GFSSW_sfc_temp_000.txt.gz
Temp
64 64 65 64 64 65 65 65 65 65 65 66 66 66 66 66 65 64 59 71 76 79 77 82 80 79 78 72 74 73 56 54 60 64 69 76 73 78 77 74 75 76 75 74 76
63 64 64 63 64 64 64 65 65 65 65 65 65 66 66 65 63 58 70 75 79 78 78 75 73 76 69 70 70 63 54 59 70 72 69 74 73 75 71 73 73 74 75 75 74
63 63 62 63 63 63 64 64 64 64 64 65 65 65 65 65 55 59 73 76 78 76 79 80 79 76 67 69 68 65 58 67 70 74 73 71 72 77 72 68 75 74 72 73 71
62 62 61 63 63 63 63 63 63 63 64 63 64 65 64 61 44 69 74 75 76 75 75 74 73 68 64 63 71 62 69 71 72 73 71 69 75 72 73 73 78 78 78 73 71
61 61 61 61 62 62 63 63 63 63 63 64 64 64 60 52 55 79 74 74 74 72 69 70 68 68 62 67 68 65 68 72 74 73 71 74 69 70 72 78 79 80 77 73 73
62 62 61 61 61 62 62 62 62 62 61 63 62 63 55 47 71 77 75 72 72 69 69 70 71 74 69 67 65 69 69 70 73 73 74 70 69 68 74 77 77 77 75 74 75
62 61 61 61 61 61 62 62 62 61 60 61 63 62 54 56 74 76 75 72 74 73 68 74 76 72 70 64 72 70 63 66 69 71 69 68 64 66 74 75 73 75 74 76 76
61 60 60 61 61 61 61 62 61 60 60 61 61 59 51 66 71 72 75 72 77 77 76 77 79 73 69 71 68 61 61 54 67 70 69 66 55 71 75 67 71 74 73 74 77
61 61 59 59 60 61 61 60 58 58 60 60 57 55 49 65 62 70 75 70 75 75 76 80 74 67 68 59 54 58 49 55 61 70 68 64 58 69 73 71 69 71 72 74 75
59 59 58 59 59 60 60 59 59 58 58 58 56 48 53 53 66 65 73 73 69 68 67 66 65 60 60 55 45 51 52 58 57 63 63 61 60 68 70 70 68 69 67 70 72
59 59 58 59 59 60 58 54 49 46 50 50 52 53 56 61 66 63 70 66 66 64 55 62 55 52 57 61 62 61 58 57 61 65 57 59 61 62 67 67 63 67 66 67 69
59 59 59 58 58 59 57 51 51 52 46 54 56 56 57 57 52 54 64 57 57 53 61 58 52 62 66 66 61 60 56 56 60 65 57 59 59 63 64 64 64 65 64 65 66
59 58 58 57 57 56 55 53 56 55 48 50 54 55 54 56 52 51 60 58 56 54 57 54 59 67 65 60 59 57 54 54 54 60 61 56 54 58 63 66 66 66 66 66 65
59 58 58 57 54 58 54 56 57 57 42 44 49 51 55 55 49 57 60 59 53 52 61 58 63 63 60 59 60 53 60 59 58 53 46 57 42 53 60 61 63 61 61 62 63
59 58 57 57 56 54 57 58 57 53 32 47 48 58 55 51 51 53 62 59 55 61 58 53 57 58 57 61 61 55 60 56 56 51 49 52 45 51 59 57 59 60 61 62 63
59 58 58 56 56 59 59 57 55 44 32 43 48 49 50 53 54 54 58 65 67 61 60 58 64 62 61 63 61 61 57 56 53 49 41 47 47 47 55 58 59 61 62 64 64
58 58 56 61 56 59 60 54 44 37 45 43 44 49 49 48 52 57 57 57 54 49 48 55 57 59 62 56 58 56 49 41 38 38 40 50 45 50 60 63 62 61 61 62 63
58 57 58 63 65 62 57 49 38 43 44 49 48 49 45 50 51 58 57 53 59 58 52 47 44 56 61 56 54 53 49 42 35 38 42 49 42 52 63 65 64 65 63 63 62
57 63 63 65 65 60 54 44 41 47 49 48 48 44 44 49 51 53 55 54 58 57 50 50 47 57 59 59 57 52 47 51 47 44 40 47 52 58 63 61 61 62 63 60 61
56 62 65 70 67 60 54 47 49 55 56 54 47 49 43 46 48 51 53 56 55 58 58 55 45 55 56 58 56 51 56 45 46 35 32 44 44 48 54 56 60 60 59 60 62
57 59 68 71 67 59 50 50 52 59 59 54 55 52 50 48 53 53 54 54 58 57 58 56 52 47 52 50 50 50 49 50 48 46 37 36 43 55 57 60 60 59 61 60 59
59 54 68 68 58 56 49 56 55 57 61 58 58 58 55 56 54 52 51 53 59 59 54 53 51 44 46 52 55 52 51 53 42 41 43 39 41 59 58 59 60 60 61 59 59
58 58 69 66 49 49 54 54 56 56 55 58 55 58 59 53 49 53 52 58 59 55 52 55 50 42 40 46 50 47 52 52 51 48 41 38 42 58 58 58 60 59 58 58 59
58 54 60 61 60 56 54 53 51 57 56 59 56 59 57 53 56 51 51 54 56 56 53 55 50 46 41 45 50 45 49 51 48 41 42 45 48 56 58 57 59 58 58 58 59
57 51 54 50 52 55 56 56 52 52 57 59 56 57 55 50 51 50 52 53 56 54 55 54 47 49 50 51 50 50 50 51 47 49 42 50 51 57 59 61 63 58 58 58 57
54 54 55 54 56 55 51 52 52 53 53 53 53 57 58 51 53 50 54 53 51 52 51 52 44 46 43 51 50 47 51 51 51 52 51 52 51 62 63 54 55 53 57 57 56
59 60 56 49 53 52 50 51 52 54 54 56 56 55 51 51 55 56 57 57 54 52 50 49 46 43 38 47 45 41 48 49 50 53 51 46 54 59 55 56 55 55 54 56 54

GFSSW_sfc_temp_003.txt.gz
Temp
64 64 65 65 65 64 65 65 65 65 65 65 66 66 66 66 65 60 55 68 70 76 78 75 74 73 71 66 67 64 50 46 52 55 60 69 67 74 73 69 72 70 67 68 71
63 64 64 65 64 64 64 65 65 64 65 65 65 66 66 65 58 54 66 74 76 76 71 68 67 69 62 63 63 57 48 52 61 62 62 68 67 68 69 69 67 66 67 69 70
63 63 63 64 63 64 64 64 64 64 64 65 65 65 65 64 54 55 70 73 75 77 74 73 72 68 60 61 60 58 52 61 65 67 68 67 68 70 67 63 69 69 67 67 65
63 62 63 63 62 62 63 63 64 64 64 64 64 64 64 60 42 63 72 73 74 76 73 72 66 61 58 57 63 55 63 64 67 69 67 66 69 66 65 69 73 72 71 66 65
62 62 62 62 62 62 62 63 63 63 63 63 64 64 58 50 53 71 73 73 73 72 67 66 64 61 56 59 60 56 62 66 68 67 66 69 65 65 67 73 72 73 71 68 66
62 62 62 62 62 62 62 62 63 63 63 63 64 63 54 44 67 71 73 69 70 68 67 66 66 65 60 61 57 63 63 63 66 66 66 65 65 63 69 72 71 73 69 68 68
62 61 61 61 61 62 62 62 62 62 62 62 64 59 51 52 68 71 70 67 70 68 64 67 68 63 64 61 66 64 57 60 62 64 64 64 60 62 70 68 71 69 68 71 70
61 61 61 60 60 61 62 62 62 62 62 62 63 56 48 65 65 66 70 68 69 71 72 72 68 69 66 64 62 56 52 46 58 63 64 65 53 65 69 67 69 68 67 67 71
60 60 57 56 58 60 61 61 61 61 62 62 56 52 49 63 59 67 70 65 66 68 68 73 69 64 65 53 48 48 42 46 53 63 63 60 54 64 67 65 64 65 65 66 66
60 59 58 57 58 59 60 59 58 58 59 60 57 49 54 54 61 65 69 68 63 65 63 62 56 56 56 50 39 44 43 48 49 58 59 56 56 62 64 62 60 58 60 62 64
60 59 58 59 59 60 57 54 48 47 52 47 48 50 56 60 66 63 65 63 65 62 51 56 48 47 50 51 53 52 49 49 53 60 57 55 55 59 63 61 59 57 59 60 63
59 58 59 58 58 59 56 50 52 52 42 52 54 55 56 62 54 58 65 57 58 50 56 52 48 54 58 58 55 53 50 49 55 61 56 53 55 58 60 59 58 59 58 59 61
59 58 58 58 58 56 54 53 56 55 46 49 53 54 55 56 54 54 60 59 57 53 53 49 53 60 60 55 55 53 47 48 50 56 55 50 50 53 58 59 59 60 60 60 60
59 58 58 57 53 54 53 56 56 56 40 42 47 51 55 55 49 56 58 58 53 53 54 55 60 58 55 55 55 47 56 56 54 48 42 51 39 47 54 55 56 54 56 57 58
59 59 58 57 53 52 55 56 56 52 29 45 48 59 56 50 51 53 59 57 52 55 54 52 54 54 53 56 58 53 57 54 52 45 41 46 42 47 52 51 53 54 55 57 57
59 58 57 55 54 56 56 56 53 40 30 41 48 48 49 50 51 53 56 57 57 51 55 53 59 57 57 58 59 59 52 51 47 45 37 44 44 43 50 52 53 54 56 59 58
59 58 56 60 53 57 56 52 40 35 43 41 44 50 48 45 48 51 49 47 44 42 41 51 51 54 59 54 54 53 45 37 35 34 36 46 43 46 56 58 59 56 56 57 58
58 57 57 61 61 58 54 46 36 42 42 48 47 48 43 47 48 50 50 46 57 54 43 40 40 52 57 53 50 48 47 38 33 34 39 46 40 50 59 60 59 59 58 57 57
57 56 56 59 62 59 50 41 40 44 48 45 46 43 43 47 50 50 50 51 52 54 48 45 42 54 57 57 54 49 45 50 43 40 37 42 46 55 55 54 56 56 56 56 56
48 53 56 60 61 55 49 44 45 50 52 51 43 47 43 48 49 50 49 53 52 55 53 50 41 52 53 55 53 49 52 44 42 34 31 38 40 44 48 51 54 54 53 55 56
49 50 61 61 58 51 43 44 49 55 57 50 49 48 48 46 49 49 48 52 56 55 54 52 48 44 51 48 47 48 46 46 45 41 35 32 39 51 53 54 54 54 55 55 55
49 47 63 64 50 46 43 51 54 54 57 57 57 53 50 50 50 47 46 51 57 56 50 52 47 40 43 49 52 49 49 48 40 38 38 36 40 54 52 54 55 56 57 54 55
47 51 64 60 41 41 48 51 52 53 53 55 54 56 56 51 47 49 48 55 56 54 50 52 46 37 40 46 48 45 48 49 47 43 39 36 40 54 48 53 55 53 54 55 55
47 47 51 50 49 47 47 48 48 54 54 56 54 57 53 50 53 48 48 53 55 55 52 54 49 44 39 41 46 43 47 48 46 38 39 41 44 50 51 53 54 55 53 52 54
47 44 48 42 47 48 48 49 48 49 54 56 53 54 52 47 47 47 49 51 55 54 53 51 44 45 47 49 49 49 48 48 45 45 41 46 48 54 51 52 53 54 53 52 52
45 45 47 45 49 48 46 45 47 49 50 51 50 51 51 45 49 48 50 50 50 51 50 50 43 45 42 48 48 46 48 47 48 48 45 47 48 57 57 53 53 51 52 52 51
49 50 48 46 46 44 43 45 48 50 52 54 53 50 47 48 51 52 53 53 53 50 47 46 43 40 36 43 44 41 46 46 45 47 48 42 50 53 52 54 52 51 52 51 49

GFSSW_sfc_temp_006.txt.gz
Temp
64 64 65 65 65 65 65 65 65 65 65 66 65 66 66 65 64 59 53 64 68 75 75 72 71 70 68 63 65 60 48 44 49 51 57 64 62 70 70 67 69 67 65 67 68
63 64 64 64 65 64 64 64 65 65 65 65 64 66 66 65 57 53 64 71 73 75 67 65 64 66 60 61 61 55 47 51 58 57 58 63 63 66 66 65 64 64 65 64 66
63 63 64 64 64 64 64 63 64 64 64 64 65 65 65 63 53 54 69 70 74 75 70 68 67 65 58 59 58 56 51 58 62 64 63 62 63 66 62 62 66 67 65 64 63
63 63 63 63 63 63 63 63 63 64 64 64 64 64 64 58 40 60 71 71 73 73 69 67 65 58 55 55 60 52 60 61 63 65 62 62 66 64 63 66 70 71 70 64 63
63 63 62 62 62 62 62 63 63 64 64 64 64 64 58 50 52 68 71 72 70 69 65 65 63 59 54 56 58 54 59 62 64 63 62 64 62 62 63 70 68 71 67 65 64
62 63 62 62 62 62 62 62 63 62 63 63 63 62 53 42 65 69 68 67 67 67 65 66 63 66 58 58 57 59 60 61 62 63 62 61 62 60 66 69 68 68 66 64 64
62 62 61 61 61 61 62 62 63 61 63 63 64 58 51 51 64 70 69 65 67 66 63 68 68 66 60 57 62 61 54 57 60 61 61 60 58 60 66 64 66 67 66 67 66
62 61 61 61 60 61 62 62 62 62 62 63 63 56 47 63 64 63 66 63 66 68 70 71 67 63 63 61 59 53 50 46 55 58 61 61 49 62 66 58 62 65 60 63 64
61 60 60 57 57 59 60 61 62 62 62 62 55 51 45 63 56 63 65 61 63 65 67 70 67 59 62 53 50 47 42 43 50 59 58 57 52 62 61 62 62 57 57 60 60
60 59 58 58 57 58 59 60 59 59 59 60 55 47 52 51 59 64 65 65 59 60 60 59 56 53 53 51 40 42 42 45 45 54 54 52 54 59 60 60 56 55 54 57 60
60 59 59 58 58 59 57 53 47 45 50 48 47 49 54 59 64 62 66 62 59 56 50 55 49 45 49 55 51 50 45 44 50 57 55 53 52 58 57 56 54 54 55 56 58
59 59 59 59 58 59 56 50 52 52 43 51 52 52 57 59 54 58 65 56 53 49 55 49 46 52 56 54 52 49 46 45 52 57 54 51 53 56 55 55 54 56 55 56 56
59 58 59 58 58 56 52 53 56 54 43 48 52 52 55 57 53 54 59 57 52 51 51 49 52 57 56 52 52 48 45 46 49 54 53 47 48 50 54 54 55 55 56 57 57
59 59 58 57 52 55 52 55 56 55 39 40 46 53 55 55 49 57 58 58 55 50 54 51 55 55 54 51 51 44 53 54 51 46 41 48 38 43 49 52 52 51 54 55 56
59 58 57 57 53 51 54 56 56 51 28 43 46 56 55 51 51 51 57 55 53 52 48 50 53 52 52 52 54 51 56 51 49 43 39 42 40 44 50 49 52 51 52 54 54
59 58 56 55 55 56 56 56 53 38 28 40 47 47 45 49 50 51 51 58 61 54 52 51 58 55 54 56 56 57 51 48 44 41 35 42 43 42 46 52 51 50 52 55 54
59 58 56 58 52 56 56 52 37 34 43 40 43 47 47 45 47 49 48 47 46 42 41 47 51 54 57 51 52 50 43 35 34 33 34 41 40 47 53 53 58 54 53 54 54
58 58 57 58 58 56 53 45 35 40 41 48 48 46 43 48 46 47 46 44 50 48 42 38 42 51 56 52 48 46 45 36 32 31 37 43 39 48 52 54 57 56 54 54 54
57 52 53 55 57 55 48 39 39 43 47 45 47 41 42 47 47 47 45 48 51 51 47 43 40 50 53 54 54 46 42 47 41 36 36 40 45 49 51 50 53 52 53 53 53
49 49 54 58 58 52 46 43 45 50 50 50 41 44 40 44 43 45 43 53 51 55 51 47 38 47 50 53 50 48 51 41 39 33 31 36 38 43 45 47 50 50 51 52 53
48 48 54 60 59 50 43 45 47 53 53 48 47 44 45 44 45 46 46 50 53 53 53 49 44 40 47 45 45 46 43 44 42 39 34 31 38 48 49 50 52 52 53 53 52
47 46 56 61 46 46 44 48 50 50 53 51 55 51 48 49 49 44 45 48 54 54 50 49 43 37 41 47 50 47 47 45 39 37 35 34 39 52 47 52 53 53 54 51 53
44 50 56 56 44 42 49 50 49 49 51 54 50 54 55 50 45 48 48 54 55 53 50 52 43 35 37 43 46 44 47 46 44 42 37 35 39 52 50 50 51 51 51 53 52
45 47 50 48 46 46 47 46 47 52 52 54 54 55 51 49 50 46 47 51 53 53 52 53 45 42 40 42 45 42 45 46 45 37 38 38 40 46 49 51 51 52 54 51 52
45 44 46 46 45 45 47 50 47 48 53 54 53 53 51 46 46 45 47 50 53 53 51 51 44 44 44 47 46 46 46 45 43 42 41 42 44 47 51 52 54 53 50 50 49
45 44 45 44 47 44 43 43 47 47 50 49 48 50 51 46 47 47 49 48 49 51 49 50 44 45 42 47 46 44 46 46 46 45 45 44 47 53 54 50 47 44 48 48 48
45 47 47 44 43 42 42 45 47 50 51 51 52 50 47 48 52 52 53 53 52 51 48 47 45 42 37 43 44 40 43 43 42 44 46 41 48 51 50 51 48 46 48 48 46

GFSSW_sfc_temp_009.txt.gz
Temp
63 64 64 64 65 65 66 66 66 66 65 66 66 66 66 65 64 57 52 60 66 73 74 70 69 67 66 61 62 57 48 43 47 49 54 60 59 65 68 64 67 63 62 64 66
63 64 64 64 64 65 65 65 65 65 65 65 65 65 65 64 55 52 63 69 71 73 66 64 62 64 58 58 59 54 46 50 56 55 56 60 59 62 63 62 63 64 63 63 62
64 63 64 64 64 64 64 64 64 64 64 65 65 64 64 62 52 52 68 70 72 72 68 65 65 63 56 56 56 53 49 56 59 62 61 59 60 63 60 59 64 65 66 62 61
63 63 63 63 63 63 64 64 64 63 64 64 63 63 63 58 39 58 70 71 71 71 66 63 60 56 54 53 58 50 58 59 61 62 60 58 62 60 62 65 69 68 68 63 62
63 63 63 62 62 62 63 64 63 63 64 63 63 63 56 49 49 65 70 70 68 67 62 61 57 56 52 54 55 51 57 60 62 61 59 61 58 59 61 67 66 68 67 64 63
63 63 62 62 62 62 62 62 62 63 62 62 62 62 51 43 62 66 65 63 64 63 62 61 61 61 56 56 55 57 58 59 60 61 60 58 59 57 62 65 65 65 67 64 62
62 62 62 61 62 62 62 62 63 62 61 62 63 57 50 50 62 65 67 62 65 64 61 64 64 65 61 55 61 58 53 56 58 59 58 58 56 56 64 62 61 62 63 63 63
61 61 61 61 61 61 61 62 62 62 61 62 63 54 46 62 63 62 64 61 64 65 64 66 66 64 58 62 56 51 49 44 54 56 58 60 48 59 63 58 61 59 56 58 59
61 61 59 60 60 59 59 60 61 61 62 62 53 50 46 63 56 62 63 57 60 63 63 69 66 60 57 50 45 48 40 42 50 56 54 54 49 60 59 58 60 54 55 57 58
60 60 59 58 58 58 59 60 60 59 57 58 55 45 50 49 56 62 63 61 56 59 57 58 56 48 52 49 43 42 40 44 44 52 50 49 51 59 56 57 52 51 52 54 57
60 59 59 59 58 58 56 52 46 45 50 45 47 48 52 57 61 59 63 58 56 56 50 54 48 45 46 50 53 48 45 42 47 53 50 49 51 56 56 54 52 52 53 54 56
59 59 58 59 59 58 55 49 51 52 42 50 52 52 54 58 50 56 64 53 51 46 53 49 46 53 54 53 50 49 43 43 50 53 50 48 50 54 54 53 52 53 52 53 54
60 58 58 58 58 55 52 52 56 54 44 47 51 50 52 55 50 52 59 55 48 46 50 48 51 56 55 52 49 46 43 43 46 51 50 47 46 50 51 51 53 53 54 55 54
59 58 57 57 52 54 50 55 56 55 35 39 44 50 54 53 48 59 61 57 50 44 51 49 54 53 50 48 53 46 51 49 48 44 39 45 36 44 48 49 50 48 51 53 53
59 58 56 57 53 51 54 56 56 51 22 43 45 57 56 49 50 51 58 55 48 48 49 46 50 50 48 50 52 47 53 50 47 42 37 40 38 44 46 47 49 49 50 51 52
59 58 56 55 54 55 56 56 52 35 28 39 46 44 46 47 50 51 53 54 60 52 53 50 58 56 55 56 54 54 49 46 41 40 33 40 41 42 43 50 47 48 50 52 52
59 58 56 57 51 56 56 51 36 30 41 38 39 45 45 44 46 48 47 47 46 42 43 47 50 55 55 52 50 48 43 34 32 32 32 38 37 48 50 52 55 52 50 51 51
58 57 57 57 57 56 53 41 31 39 39 47 45 45 39 46 46 48 45 44 52 47 46 41 37 50 53 50 46 45 45 35 30 29 33 39 36 47 49 51 56 55 52 51 51
57 52 53 56 57 56 46 34 38 43 47 44 43 38 41 46 47 45 43 45 51 53 44 40 42 49 51 52 53 44 41 45 39 33 32 37 43 48 49 47 49 51 51 50 51
51 47 52 58 57 52 43 40 44 50 51 49 40 43 40 43 42 42 42 49 51 53 51 46 37 47 48 51 49 48 50 40 37 31 30 34 35 42 44 44 46 48 49 50 51
46 45 53 58 57 48 42 43 46 54 53 49 46 43 46 43 44 42 43 50 54 53 53 46 43 38 46 44 44 44 41 41 41 37 32 30 37 46 48 48 48 50 51 51 50
45 42 55 57 46 46 43 48 51 52 52 50 50 50 45 45 45 45 43 45 54 54 48 47 41 38 38 44 47 44 45 43 37 35 33 32 37 48 47 49 50 51 51 49 51
42 46 56 54 43 43 46 47 50 49 50 51 49 51 51 47 44 44 47 51 52 52 50 51 41 35 36 42 42 41 44 44 42 40 34 33 38 50 47 49 49 50 51 52 50
43 41 46 48 46 47 46 45 45 50 51 53 52 52 49 46 47 43 45 50 52 52 53 53 43 40 39 39 43 40 44 44 43 36 36 36 39 46 48 49 49 50 52 49 49
42 43 44 39 43 48 48 48 45 46 51 52 50 51 50 44 44 43 47 49 52 53 51 51 43 43 42 44 44 43 44 43 42 41 40 40 41 45 46 48 51 53 50 50 49
43 42 43 42 45 46 45 46 45 47 50 48 48 49 50 48 47 45 48 47 49 49 47 47 41 42 38 43 43 41 43 43 43 42 42 42 43 50 50 49 50 47 46 47 46
44 45 46 43 42 41 42 45 48 49 50 51 51 48 46 48 50 51 51 50 49 48 46 46 43 40 35 39 40 38 42 42 42 43 45 42 47 49 47 47 45 45 46 47 46

GFSSW_sfc_temp_012.txt.gz
Temp
63 64 64 64 64 65 65 66 66 66 66 66 66 66 66 65 64 56 51 59 63 72 73 68 67 66 64 60 61 56 47 43 47 48 52 57 58 62 64 61 64 63 61 64 64
64 64 64 64 64 64 65 65 65 65 65 65 65 65 65 64 54 51 62 69 71 72 64 61 60 63 57 57 57 53 45 49 55 54 54 58 56 60 60 60 61 62 65 62 60
64 64 64 64 64 64 64 64 64 64 64 64 65 64 64 61 51 51 68 69 71 71 66 63 63 62 55 54 54 52 48 54 58 60 59 57 58 60 57 57 62 64 66 65 59
63 63 63 63 63 63 63 64 64 64 64 64 64 63 62 58 40 57 70 71 71 69 66 62 58 56 52 52 56 49 56 56 59 60 58 56 59 58 59 62 67 66 65 63 62
63 63 63 63 63 63 63 63 64 63 63 63 62 62 56 49 49 63 68 67 68 64 62 59 55 54 51 52 54 50 54 58 60 59 58 58 56 56 59 64 66 65 65 64 62
63 63 63 62 62 62 62 62 63 63 63 63 63 61 51 42 60 64 64 62 62 61 61 60 58 59 54 54 54 56 57 57 58 59 58 57 58 57 59 61 63 63 63 62 61
63 62 62 62 62 62 62 62 62 62 62 62 62 57 49 48 60 60 64 62 62 61 59 61 62 63 61 54 58 56 50 55 56 57 57 56 55 54 61 58 60 60 58 60 60
63 61 61 61 61 61 61 62 62 62 62 62 62 53 44 60 62 60 61 61 61 63 62 63 65 63 60 62 56 51 47 43 53 54 57 56 50 57 60 56 59 58 54 54 57
62 61 61 60 59 60 59 60 61 61 62 61 53 50 44 62 54 58 60 56 58 59 63 66 64 59 60 52 45 47 41 41 48 55 53 51 47 57 57 57 55 53 50 53 55
62 61 60 60 60 59 59 59 60 59 57 58 56 46 48 48 55 58 61 61 56 56 57 57 56 49 48 44 41 39 40 41 43 49 49 48 49 58 56 54 52 49 48 50 53
62 60 59 58 59 58 57 51 45 45 49 44 45 46 50 56 59 56 61 58 54 51 48 54 47 44 47 53 47 47 43 42 46 51 46 47 47 53 55 53 52 50 51 50 53
61 59 57 57 58 58 55 47 51 52 41 49 50 50 55 55 48 54 62 51 48 42 52 49 45 52 51 51 49 47 47 41 48 50 47 47 48 53 53 54 51 52 51 51 51
60 58 57 58 58 55 52 52 55 55 43 45 49 49 51 53 47 50 57 53 45 44 47 47 51 56 52 48 50 45 45 41 44 48 48 45 44 46 49 49 50 51 52 51 52
60 59 57 57 53 53 50 54 55 55 36 38 42 48 52 51 45 57 61 55 48 43 49 48 52 53 50 47 49 41 49 49 46 42 37 44 35 42 46 47 48 47 49 50 51
59 59 57 57 53 50 54 55 55 50 23 42 44 56 52 47 48 49 61 57 44 44 49 46 47 49 49 51 51 45 53 50 48 39 35 37 36 41 42 45 47 47 48 49 49
59 59 57 55 54 55 56 55 51 34 24 36 45 43 43 46 48 52 53 56 56 49 52 49 54 52 51 53 54 54 51 48 41 38 31 38 40 38 42 45 45 46 48 50 50
58 58 56 57 50 56 55 49 34 29 38 37 39 43 43 40 45 47 45 44 42 37 40 46 47 53 55 48 52 51 46 36 32 31 31 35 34 41 47 49 52 51 49 49 49
58 57 56 57 57 55 51 41 30 38 34 45 43 42 39 43 43 45 44 41 47 43 42 38 36 47 51 49 45 47 42 34 30 28 32 36 34 44 45 48 51 54 52 49 48
57 54 53 56 57 55 43 33 35 41 44 42 43 38 39 44 45 44 43 42 48 50 40 41 38 49 51 55 52 42 41 43 37 31 31 35 41 49 47 46 45 48 50 48 48
52 48 50 57 57 51 40 36 40 48 48 47 37 41 35 41 41 40 41 48 48 53 48 43 36 48 50 54 51 46 49 39 36 30 28 32 34 40 46 45 44 45 47 47 48
47 43 53 56 55 46 36 38 46 53 52 48 44 40 42 39 44 41 41 47 52 51 49 45 41 39 49 43 43 43 41 39 40 35 31 29 36 44 46 46 47 46 47 47 48
44 40 54 55 44 45 39 46 50 50 52 50 51 49 45 45 44 42 42 47 55 53 46 45 40 35 40 43 46 44 44 42 36 32 31 30 36 46 45 45 47 48 49 48 49
41 47 54 52 41 43 47 47 51 49 48 49 48 52 53 46 42 45 45 52 52 51 48 48 39 33 39 41 41 41 42 42 40 37 31 32 37 48 44 46 47 48 49 50 49
41 40 47 48 47 44 44 45 46 50 49 52 50 53 49 45 47 43 43 50 52 53 52 53 42 39 37 38 42 38 41 41 42 34 34 35 39 43 45 46 47 48 47 48 47
41 41 44 40 42 45 48 47 45 45 51 52 48 50 47 41 42 43 45 46 49 52 49 50 41 40 41 43 43 43 43 41 40 41 39 40 40 45 44 45 46 46 48 47 47
41 41 41 42 46 46 45 44 45 47 48 47 46 48 49 47 46 42 46 46 45 46 47 48 41 40 37 41 41 39 42 41 41 40 39 40 41 47 45 46 46 44 47 47 47
42 46 44 44 44 45 44 45 48 50 47 49 50 48 45 47 47 49 48 48 49 48 45 45 42 40 33 38 38 37 41 40 40 41 43 39 44 47 44 47 46 47 46 46 45

GFSSW_sfc_temp_015.txt.gz
Temp
64 64 64 64 64 64 65 65 65 66 65 65 65 65 65 65 64 59 52 61 64 71 72 67 68 68 69 65 65 62 53 49 53 52 59 64 62 67 70 68 69 73 72 75 72
64 64 64 64 64 64 64 65 65 65 65 65 65 65 64 64 58 54 63 69 70 71 65 61 61 64 61 62 61 58 51 52 59 59 60 63 62 65 65 65 67 71 74 74 71
64 64 64 64 64 64 64 64 64 64 64 65 64 64 64 62 53 54 68 69 71 71 66 65 62 64 58 60 59 56 52 57 61 62 63 61 61 65 64 61 67 69 72 72 71
64 63 64 64 63 63 64 64 64 64 64 64 64 64 63 58 40 59 70 70 71 69 65 62 59 57 55 54 59 55 58 60 62 64 63 61 63 62 63 68 71 71 70 69 71
63 63 63 63 63 63 63 63 64 64 64 64 63 63 56 49 51 64 68 66 66 66 60 58 56 57 54 56 56 55 58 60 62 61 60 61 60 61 63 68 71 68 68 68 69
63 63 63 63 62 62 62 63 63 63 63 63 63 62 52 42 61 65 62 64 64 62 59 60 59 61 57 56 57 58 59 61 61 62 61 59 62 60 68 67 68 67 67 66 66
63 63 62 62 62 62 62 62 63 63 62 63 63 57 49 49 61 62 62 61 64 62 57 62 62 62 61 55 60 59 55 58 59 61 61 60 56 55 67 65 66 66 64 63 62
63 62 61 61 61 61 62 62 62 62 62 62 61 54 46 60 62 60 61 59 63 63 62 64 63 63 61 62 59 55 55 48 57 59 60 61 53 62 63 61 63 64 62 61 60
63 62 61 61 60 60 60 61 61 62 62 61 52 50 44 62 54 59 61 56 59 60 61 64 61 59 59 53 50 50 44 45 52 58 58 57 53 60 64 63 63 63 61 61 60
62 62 61 60 59 59 60 60 60 58 57 58 55 45 49 48 55 58 58 60 55 55 55 55 53 51 52 49 41 44 44 46 48 55 54 53 52 59 61 60 62 63 59 59 58
62 61 60 59 58 58 56 52 47 45 48 44 46 45 51 55 59 55 59 56 55 52 45 51 47 44 49 51 52 48 47 48 51 55 53 52 51 57 61 59 59 58 57 58 58
61 61 60 58 58 58 55 48 50 51 41 49 50 50 54 55 48 52 60 49 46 43 48 47 44 52 53 52 52 49 48 46 50 53 53 52 52 58 58 58 60 57 56 57 57
61 60 59 58 58 56 51 51 55 56 42 45 49 48 50 53 47 49 55 52 46 44 45 44 49 56 52 50 48 47 45 45 47 50 52 49 49 52 57 57 55 56 57 57 57
60 60 59 57 53 54 50 54 54 54 34 38 41 46 51 52 45 55 57 54 47 43 48 46 52 52 51 47 50 43 50 50 48 47 42 51 40 47 55 53 53 53 54 55 56
59 59 59 56 52 50 53 55 53 48 24 41 42 56 52 47 48 49 58 55 45 45 48 44 47 49 47 49 52 47 52 51 49 46 43 44 42 48 49 50 51 52 52 54 55
58 58 58 54 54 55 55 54 50 34 24 36 44 42 42 45 47 51 51 56 53 49 50 47 52 54 53 53 54 52 50 48 46 45 37 42 44 45 49 52 50 51 52 53 54
58 58 56 56 51 55 55 48 33 28 40 36 37 41 42 39 43 46 44 42 39 36 38 43 47 49 53 49 50 50 47 34 34 36 35 40 39 47 51 54 55 54 53 53 54
58 57 55 56 57 55 51 40 29 37 35 44 41 41 37 41 42 43 41 38 43 42 41 36 36 46 51 49 44 45 46 38 32 32 36 39 38 49 54 53 53 56 55 53 53
57 54 53 54 56 54 44 32 34 39 38 41 40 36 36 41 42 42 41 40 44 45 40 38 39 48 51 52 51 43 40 48 38 37 36 40 45 53 53 51 50 51 52 52 52
52 49 51 58 56 49 37 35 39 44 44 45 36 39 33 37 39 40 38 48 45 49 47 44 37 45 49 53 51 48 51 41 40 34 32 37 38 44 50 50 49 48 51 51 51
49 43 53 57 54 44 34 36 42 49 47 44 40 37 38 37 40 40 38 47 51 49 48 45 42 39 47 46 44 44 41 42 43 39 35 34 41 48 49 50 50 49 51 51 51
43 42 53 55 42 42 38 43 46 48 51 49 49 44 39 42 40 40 40 45 54 52 45 47 41 36 40 45 48 48 46 45 39 35 34 36 41 51 47 48 49 49 51 52 53
41 47 53 51 39 38 44 43 45 48 49 48 47 50 47 41 39 42 45 51 53 52 47 49 40 34 40 44 44 42 43 45 43 40 34 36 41 51 49 49 50 49 51 52 52
41 42 46 47 47 43 44 44 44 50 49 50 49 51 45 43 47 41 45 50 52 53 53 54 42 40 37 39 43 40 42 42 46 37 37 38 44 48 50 50 50 50 52 52 51
40 39 45 40 42 43 45 46 43 44 49 50 49 50 46 39 42 42 44 47 51 52 52 50 43 41 40 43 45 43 43 41 42 46 44 44 42 48 50 51 52 53 51 51 49
40 38 40 43 45 43 43 44 44 45 46 47 47 50 49 42 44 41 45 46 47 48 47 48 41 42 38 41 43 41 42 44 45 42 43 43 44 50 51 50 50 51 51 50 49
42 42 44 46 44 44 44 45 45 46 47 47 50 48 46 46 49 52 52 50 50 47 45 47 42 40 36 40 41 38 42 41 44 42 48 42 51 48 47 48 49 49 50 49 49

GFSSW_sfc_temp_018.txt.gz
Temp
64 64 65 64 64 65 65 65 65 65 65 65 65 66 66 65 64 65 60 69 70 72 72 73 74 75 75 72 74 73 64 60 63 63 67 73 71 76 79 76 80 82 82 84 83
64 64 64 64 64 64 64 64 65 65 65 65 65 65 65 64 64 58 69 69 70 71 71 68 68 72 69 69 71 69 62 63 70 72 69 71 71 73 72 76 77 81 85 86 85
64 64 64 64 64 64 64 64 64 64 64 65 64 65 64 66 57 59 71 70 70 72 72 70 66 66 65 70 69 68 62 69 69 71 72 70 71 74 71 70 76 77 82 85 84
64 64 64 64 64 63 63 64 64 64 64 64 64 64 63 64 47 66 70 70 70 73 69 67 60 58 58 62 70 62 69 70 71 70 69 69 73 71 73 73 81 82 83 81 82
64 63 63 63 63 63 63 63 63 64 64 64 64 63 62 53 57 72 69 69 72 69 64 64 60 59 58 65 67 63 69 70 71 70 70 71 69 71 72 79 83 82 79 79 81
63 63 63 63 63 62 63 63 63 63 63 63 63 62 58 46 70 72 71 70 68 66 61 66 63 68 64 63 64 68 67 69 71 70 71 66 70 69 75 82 81 80 78 80 77
63 63 63 62 62 62 62 63 63 63 63 63 63 63 54 55 69 70 67 67 68 68 59 67 68 64 68 60 67 69 61 66 68 69 68 70 65 67 77 78 75 77 78 74 72
63 63 62 61 62 61 62 62 62 62 62 63 62 60 48 65 71 66 68 65 68 70 68 69 68 58 61 69 61 61 60 55 67 68 69 67 58 72 76 74 73 74 75 73 70
63 63 62 61 61 61 60 60 62 61 62 62 58 55 48 65 59 66 68 61 63 66 68 68 61 53 62 53 50 55 51 54 60 68 68 65 62 72 74 73 74 78 74 72 71
62 62 62 61 61 59 59 60 60 60 60 61 59 48 55 52 60 63 66 64 61 60 57 55 51 48 54 51 41 49 51 58 57 65 63 63 62 70 75 72 74 76 74 72 71
62 61 61 60 59 58 57 53 47 46 51 50 50 51 54 60 63 59 63 60 60 55 43 53 42 41 48 56 59 59 58 55 61 66 61 62 64 67 73 74 73 73 73 71 70
61 61 61 60 59 58 56 47 52 55 44 52 53 54 57 59 50 56 63 52 50 44 47 47 40 51 55 57 58 59 56 55 62 62 60 62 62 68 72 73 73 74 71 70 68
61 60 60 59 59 56 53 51 56 56 40 45 50 50 52 56 49 52 57 54 49 43 41 43 46 53 54 57 55 55 53 56 57 58 62 59 60 66 68 67 67 69 73 71 69
60 60 59 58 53 55 51 54 54 54 34 39 43 48 53 54 46 59 59 55 50 43 42 47 52 50 51 53 57 51 60 59 55 53 49 59 50 62 68 66 64 67 68 68 68
59 59 59 57 53 51 53 54 53 49 25 43 42 57 55 49 52 52 61 55 46 44 42 41 46 46 48 54 59 56 60 58 56 52 49 55 51 61 61 63 63 65 66 67 68
59 59 58 57 56 56 55 54 50 33 26 37 43 42 43 48 51 52 52 58 51 46 47 51 52 52 57 60 60 59 57 55 54 50 45 55 53 59 63 63 63 65 66 66 67
59 58 58 61 55 57 54 48 33 29 41 36 37 43 44 42 44 44 45 43 35 35 35 43 41 51 60 52 54 58 53 38 37 39 45 52 50 61 65 64 65 64 65 66 66
58 58 58 61 62 56 50 39 29 39 37 41 44 44 40 45 45 44 45 41 42 42 38 34 35 46 57 55 46 50 54 48 38 42 47 48 48 60 64 64 65 69 68 66 65
57 55 54 59 60 55 43 31 36 40 40 39 43 37 40 45 46 44 44 43 43 45 36 37 36 46 50 53 55 46 47 56 48 48 49 53 57 63 62 62 61 64 65 63 64
52 52 53 60 58 50 38 35 39 45 42 42 38 42 38 43 42 43 41 49 46 51 51 50 36 44 43 51 51 51 56 43 49 41 40 49 50 58 61 61 59 61 62 64 64
52 45 55 57 54 43 34 36 41 47 46 40 44 43 45 43 45 43 44 48 52 53 54 53 51 43 44 45 47 47 42 45 51 51 47 46 52 63 61 62 61 63 64 64 63
51 43 53 54 40 40 36 41 46 45 47 45 49 50 47 48 45 39 45 48 57 57 49 54 55 46 44 51 56 56 51 53 46 44 50 50 54 63 62 60 59 63 63 65 64
50 47 53 52 37 38 42 42 44 43 43 43 46 53 53 48 43 42 50 56 57 55 54 57 52 43 44 50 52 49 54 56 57 53 49 47 53 61 62 61 60 62 63 64 63
50 42 46 46 47 43 40 40 41 48 48 48 48 54 51 48 51 44 48 53 56 57 55 56 53 51 45 50 55 48 52 55 55 48 51 51 57 59 60 61 60 62 64 63 61
50 48 49 39 41 43 44 44 43 43 49 49 47 52 51 46 46 47 52 51 54 55 55 55 50 53 53 53 55 53 51 52 51 55 50 56 54 61 66 64 64 64 63 63 61
49 47 48 49 47 45 42 43 43 45 46 44 45 53 56 51 51 47 51 52 50 55 53 56 50 51 48 50 52 50 54 55 54 56 56 57 57 66 66 64 62 64 62 61 61
48 52 51 51 49 43 43 44 46 48 47 50 52 53 52 56 59 61 61 59 57 53 52 54 52 49 46 48 49 45 52 52 55 58 58 52 61 61 58 59 61 61 61 61 61

GFSSW_sfc_temp_021.txt.gz
Temp
64 65 65 65 65 65 65 65 65 65 65 65 66 66 66 65 65 66 63 73 73 71 72 76 77 77 78 74 78 78 65 61 64 67 70 78 74 81 83 78 82 85 85 88 88
64 64 64 64 64 64 64 64 65 65 65 65 65 65 65 65 66 62 72 72 71 71 72 71 70 75 69 71 73 69 62 64 74 75 73 76 74 76 75 77 79 83 89 90 90
64 64 64 64 64 64 64 64 64 64 64 65 65 65 64 67 61 64 74 73 72 71 73 73 72 68 64 71 71 69 62 72 74 77 76 73 74 79 74 71 78 79 83 87 88
64 64 64 64 64 64 64 64 64 64 64 64 64 64 64 67 49 69 70 71 71 73 71 70 68 62 60 60 71 64 71 72 75 76 73 70 76 73 75 76 83 83 85 85 85
64 64 64 63 63 63 63 63 63 64 64 64 64 63 63 57 60 72 69 70 75 71 67 67 64 63 59 65 65 64 70 74 75 75 73 74 71 71 73 80 84 85 84 84 84
64 64 63 63 63 63 63 63 63 63 63 63 63 63 59 48 75 77 74 72 71 70 67 68 66 69 65 63 63 67 70 71 74 73 74 70 71 73 75 81 82 83 83 84 84
63 63 63 63 63 63 63 63 63 63 63 63 63 64 55 56 73 75 73 71 72 71 66 68 71 67 66 60 69 66 61 68 70 72 71 74 65 67 77 80 79 80 83 83 81
63 63 63 62 62 62 62 63 63 62 62 63 62 62 49 69 73 70 71 69 72 72 70 72 69 65 61 66 64 61 60 51 67 70 72 70 58 72 81 78 77 80 81 79 77
63 63 62 62 61 61 61 61 61 62 62 63 60 57 49 68 62 69 71 65 68 69 69 72 66 58 55 50 48 55 50 52 57 71 70 67 61 73 79 77 76 79 81 79 77
62 62 62 62 61 61 60 60 60 60 61 62 61 50 58 55 64 66 70 68 63 63 61 60 57 49 47 46 39 48 52 54 55 67 68 64 64 71 76 77 76 78 81 79 77
62 61 61 61 60 60 57 53 47 46 51 50 52 54 57 64 66 61 67 63 61 57 47 55 43 40 46 49 57 58 56 54 63 70 67 65 64 69 75 75 75 77 79 78 76
61 61 61 61 61 59 56 48 52 54 43 54 57 57 62 61 53 58 66 54 52 45 52 46 38 52 55 52 50 54 55 57 65 68 65 63 63 70 74 74 76 78 78 77 73
61 60 60 60 60 58 53 51 57 58 41 43 53 52 54 57 50 54 59 56 52 47 47 41 46 54 53 48 47 52 54 57 58 65 64 62 59 64 71 74 77 78 80 78 72
60 60 60 59 54 60 52 56 54 54 33 39 43 48 51 49 44 59 62 56 51 45 48 42 50 43 49 45 50 47 61 60 59 56 51 63 50 65 71 69 69 73 76 75 73
60 60 59 59 60 53 52 53 53 49 26 45 43 57 54 44 53 55 63 56 45 47 40 38 43 41 45 43 51 53 62 59 59 56 54 53 51 61 70 66 69 72 73 73 72
59 59 59 58 58 60 54 54 50 32 27 38 43 41 42 45 50 54 54 58 56 46 42 46 53 51 50 51 51 59 57 57 57 54 42 54 55 59 64 67 71 71 71 71 71
59 58 58 64 57 58 54 48 33 29 43 36 36 40 43 42 45 47 43 41 37 32 33 41 38 46 50 45 51 55 50 38 37 39 44 59 56 62 66 68 70 69 69 70 70
58 57 57 63 65 55 50 38 29 40 38 40 40 43 39 46 46 45 38 37 43 39 34 34 32 40 48 48 46 49 50 47 37 40 48 55 48 60 69 69 71 72 71 69 68
57 55 54 58 63 55 43 31 35 40 41 38 39 37 39 45 46 43 38 41 47 44 33 37 35 43 48 51 55 49 50 58 52 55 53 53 59 65 67 65 67 70 68 67 67
53 50 51 61 61 50 39 35 38 46 43 41 35 44 39 42 42 42 41 49 48 48 44 42 33 38 46 53 52 54 62 48 53 43 42 52 55 56 62 65 65 66 67 67 68
50 44 57 63 55 44 33 35 40 47 45 39 39 42 47 45 46 43 43 50 54 51 47 45 36 36 45 44 44 47 51 53 56 54 49 47 53 68 64 65 66 66 68 67 67
48 40 54 55 41 41 36 38 44 44 46 43 45 48 50 51 48 46 45 51 58 55 43 48 44 34 39 49 59 55 53 56 50 46 54 53 53 67 67 65 66 67 68 69 68
45 47 53 52 36 36 40 40 42 42 44 42 43 51 56 52 45 48 49 59 57 54 50 53 48 35 34 41 49 50 53 55 58 56 52 50 53 67 67 66 66 66 68 68 67
47 41 46 46 47 43 38 39 39 47 44 46 49 55 53 51 54 48 49 56 58 58 55 58 53 51 44 48 48 47 50 55 56 50 52 55 57 62 64 64 65 66 68 68 66
45 45 51 39 41 42 44 43 40 41 46 48 45 52 52 48 50 50 52 55 57 56 57 56 50 55 57 57 57 54 53 53 52 56 52 58 58 65 68 67 68 68 67 66 64
44 47 51 46 47 44 42 41 40 43 45 42 42 50 55 52 52 49 52 55 52 56 55 57 51 54 51 55 56 54 56 57 56 57 58 59 60 71 72 72 68 68 67 65 64
48 52 55 53 52 44 45 42 43 46 48 51 48 49 53 57 62 62 62 62 60 55 52 52 50 51 46 53 52 46 55 56 57 59 59 54 62 70 64 64 66 67 66 65 65

GFSSW_sfc_temp_024.txt.gz
Temp
64 65 65 65 65 65 65 65 65 65 65 65 65 66 66 65 65 64 60 70 71 72 71 72 73 73 73 69 72 73 56 53 58 60 64 72 68 74 75 70 75 77 75 76 80
64 64 65 65 64 64 64 65 65 65 65 65 65 65 66 65 64 60 71 74 74 72 68 68 67 71 64 66 67 63 54 56 67 68 67 72 70 70 69 69 71 73 79 80 80
64 64 64 64 64 64 64 64 64 64 64 65 65 65 65 66 58 61 75 74 74 72 69 70 69 67 60 65 65 63 55 64 68 72 74 69 69 72 68 64 70 70 74 77 76
64 64 64 64 64 64 64 64 64 64 64 64 64 64 64 64 46 65 71 72 74 73 68 65 64 59 58 57 66 59 65 67 68 72 71 66 70 67 69 68 75 76 76 76 76
64 64 64 64 63 63 63 64 64 64 64 64 64 63 61 54 57 70 69 70 71 68 63 62 60 59 54 60 62 60 64 69 71 71 72 71 65 66 67 72 76 77 77 75 76
64 64 63 63 63 63 63 63 63 64 63 64 64 62 57 47 72 75 72 71 70 69 65 64 62 65 60 59 58 64 64 66 69 70 70 67 66 66 69 73 73 75 74 75 75
64 63 63 63 63 63 63 63 63 63 63 63 63 62 54 53 73 73 73 71 71 69 64 68 68 61 63 57 65 63 56 63 64 67 67 69 61 62 70 73 71 72 72 74 73
63 63 63 62 62 62 62 62 62 62 63 63 63 61 49 68 70 68 70 68 70 70 67 69 69 62 57 61 57 55 55 47 60 64 67 64 52 65 71 70 70 71 69 69 71
63 63 62 62 62 61 61 61 61 62 62 63 58 56 48 68 60 66 68 63 67 68 67 69 64 55 56 49 44 49 42 47 52 64 64 62 55 66 71 70 66 67 69 69 68
63 62 62 62 61 61 60 60 59 59 60 62 61 50 55 54 63 65 68 66 61 62 59 57 54 47 47 44 35 41 43 49 49 59 61 58 59 64 69 67 65 67 68 67 67
62 62 61 61 61 60 58 54 49 46 50 48 51 52 58 63 67 62 66 61 60 55 45 53 43 39 44 47 48 50 49 48 55 63 58 57 59 62 67 67 65 66 66 66 65
62 61 61 61 61 60 57 48 52 53 42 51 53 55 61 63 53 58 65 52 50 43 48 44 38 47 51 50 48 47 45 46 56 62 60 58 59 63 64 66 68 68 67 66 63
61 60 60 60 60 58 54 53 58 56 40 45 51 51 54 58 50 54 58 54 48 43 44 39 44 51 50 48 45 46 44 46 44 58 62 55 51 55 63 67 68 68 70 67 64
61 60 60 59 54 57 53 61 55 54 34 39 42 48 53 51 42 56 60 54 47 42 45 43 50 48 45 44 47 40 50 51 47 51 43 54 37 52 60 62 66 64 65 64 64
60 60 59 59 57 54 53 54 54 50 25 43 44 58 53 44 48 50 58 53 42 43 45 37 42 43 41 42 47 44 52 47 49 46 46 49 44 49 59 58 62 60 62 63 64
59 59 59 57 56 56 55 55 50 33 25 38 43 42 42 44 45 52 50 55 52 44 45 43 50 45 46 50 48 49 47 45 46 47 37 46 44 46 54 59 59 61 62 63 63
59 58 57 61 52 56 55 48 33 28 43 36 37 41 41 40 41 44 44 41 36 32 32 38 39 45 46 41 47 46 40 32 33 34 35 50 45 50 56 62 64 62 61 62 62
58 58 57 61 57 55 51 38 27 42 38 41 40 40 36 42 42 43 40 35 43 40 33 31 30 39 44 39 42 41 36 35 29 31 37 51 41 48 60 62 65 64 62 62 61
57 55 53 57 56 53 44 30 34 41 41 38 38 35 36 43 45 42 40 39 42 43 32 33 31 44 47 46 47 40 34 46 45 46 41 42 47 53 58 56 59 60 61 59 60
53 52 51 58 55 49 40 34 39 46 43 41 34 38 35 41 39 37 39 46 42 48 46 37 31 40 44 47 48 45 50 43 41 35 35 40 43 45 51 53 57 58 58 59 60
49 45 54 57 53 44 34 36 41 46 45 39 38 39 41 42 43 37 40 48 49 46 45 40 35 37 39 39 38 42 44 47 47 47 38 34 41 54 55 57 56 57 60 60 59
47 41 54 55 42 41 37 41 43 42 45 42 42 42 43 47 43 42 41 47 55 47 38 41 36 33 36 45 49 51 49 48 41 40 43 42 40 58 56 58 58 59 61 61 60
44 46 53 52 36 37 42 40 41 41 42 41 40 44 50 46 43 46 48 56 55 49 44 44 38 32 34 42 45 45 52 50 51 49 41 39 40 58 55 55 58 57 59 61 60
45 41 45 46 45 43 40 38 37 43 42 45 44 47 46 44 52 46 48 54 55 55 53 50 40 35 35 40 46 44 47 48 47 40 42 44 45 51 53 54 56 57 58 60 60
45 43 47 38 39 41 43 40 38 37 42 45 42 43 45 44 46 47 49 52 53 54 52 51 41 44 46 48 49 47 48 48 46 47 41 46 49 53 55 54 56 57 58 58 58
42 43 47 45 47 43 42 40 39 41 43 42 40 46 47 46 49 46 51 50 48 52 50 52 43 48 47 49 49 47 50 50 50 50 50 51 50 62 57 59 57 56 57 58 58
47 49 48 47 46 42 43 42 42 44 45 47 46 45 46 52 57 54 59 57 55 50 48 48 45 45 41 49 47 41 49 50 52 53 53 47 55 59 56 58 57 57 57 57 56

GFSSW_sfc_temp_027.txt.gz
Temp
64 64 65 65 65 64 64 65 65 65 65 65 65 65 66 65 65 62 56 65 67 72 72 68 68 67 67 62 64 61 47 46 50 53 59 65 65 70 72 66 68 69 68 73 75
64 64 65 65 64 64 64 64 64 64 64 65 65 65 65 65 61 56 67 72 74 73 65 62 59 63 56 58 59 54 47 51 59 60 60 66 66 67 65 64 63 66 72 71 70
64 64 64 64 64 64 64 64 64 64 64 64 64 64 64 64 55 56 72 73 73 73 66 64 62 60 54 57 56 55 50 58 62 66 66 65 63 67 62 59 65 66 69 70 74
65 64 64 64 64 64 64 64 64 64 64 64 64 64 63 60 42 61 72 72 75 71 66 61 57 51 50 50 58 51 59 61 63 66 65 62 66 62 63 64 69 70 70 69 71
64 64 64 64 63 63 63 63 64 64 64 64 64 63 59 50 51 67 71 71 68 65 60 58 53 51 47 52 54 53 58 63 65 66 66 67 62 63 62 67 71 73 72 70 70
64 64 63 63 63 63 63 63 63 63 63 63 63 62 54 42 65 69 67 66 66 62 59 58 57 58 52 52 53 57 59 60 63 64 65 64 61 61 64 68 67 69 69 69 69
64 63 63 63 63 63 63 63 63 63 63 63 63 61 51 50 65 66 68 65 66 64 59 63 62 57 57 51 57 56 53 56 59 61 60 64 57 57 64 67 66 68 66 70 67
64 63 62 62 62 62 62 62 62 62 62 63 63 56 45 64 65 64 65 62 65 64 63 63 65 56 54 57 52 48 47 43 55 58 60 61 50 61 65 63 63 65 63 64 67
63 63 62 62 62 61 61 61 61 61 62 63 55 50 43 66 57 63 63 59 63 63 62 67 59 52 51 47 40 41 37 40 47 58 58 57 52 62 64 64 63 60 61 63 63
63 62 62 61 61 61 60 60 59 59 59 61 59 48 52 52 59 61 63 62 58 57 57 54 49 42 40 41 33 36 36 40 41 52 55 53 53 58 62 63 64 61 62 60 62
63 61 61 61 61 60 56 51 47 46 50 47 48 49 57 60 63 59 62 58 56 50 42 48 38 35 39 41 44 43 40 40 47 55 53 53 53 57 60 62 57 60 59 58 59
62 61 61 61 60 60 54 47 51 52 42 51 52 53 59 62 51 56 62 49 47 40 43 40 36 44 47 46 44 43 39 39 47 54 52 52 52 59 62 61 64 61 61 57 57
62 61 60 60 60 56 52 50 55 56 41 46 50 49 51 56 49 50 56 51 44 39 41 37 41 49 46 43 42 41 38 39 42 49 51 49 48 53 59 63 62 64 64 62 59
61 61 60 59 53 51 49 56 55 54 35 39 41 48 51 52 44 58 59 54 47 40 42 41 47 45 43 41 44 38 47 47 45 44 37 49 36 46 55 57 58 58 57 60 58
61 60 59 60 51 49 51 54 55 50 23 42 44 57 53 45 49 48 58 50 41 40 41 37 40 41 39 42 46 40 49 45 45 42 42 43 40 43 52 52 58 62 54 58 59
60 60 58 57 54 53 54 54 49 34 21 37 42 41 41 44 46 51 48 53 51 41 41 39 47 44 44 48 48 49 43 43 43 41 33 41 40 39 47 55 57 59 56 58 58
59 59 57 59 50 54 54 46 33 26 42 36 37 41 41 40 41 43 41 38 35 30 28 36 39 43 45 38 42 43 35 28 26 29 31 43 40 43 52 56 60 56 56 57 57
58 58 57 59 55 54 50 39 27 38 36 42 41 41 37 41 40 39 39 35 39 38 33 27 25 37 44 41 37 37 36 28 22 29 33 44 34 44 60 58 60 60 59 57 55
58 55 53 53 55 54 44 30 31 38 42 38 38 35 35 40 41 38 35 38 40 40 31 30 31 44 46 46 45 37 32 42 34 34 35 39 44 50 52 53 56 56 56 54 53
53 52 51 54 55 49 39 34 37 44 43 41 34 37 33 36 36 36 36 42 41 44 45 37 29 41 40 43 44 43 47 32 33 27 28 35 37 41 46 49 53 54 53 53 54
51 46 52 55 53 43 33 36 42 47 47 39 37 36 37 36 38 34 36 43 47 46 45 38 34 34 37 37 38 38 37 39 40 37 30 29 37 48 50 53 53 54 55 53 54
48 41 52 53 40 40 36 40 45 44 46 42 41 39 38 40 36 36 36 43 51 47 38 40 36 31 35 45 49 47 43 42 32 32 37 37 37 51 52 53 55 54 56 55 55
45 45 52 51 36 36 42 43 44 42 41 40 39 41 45 41 37 41 43 52 50 46 40 40 34 31 33 39 43 39 43 44 42 43 40 34 37 51 50 52 53 54 55 55 55
45 40 45 46 45 41 39 39 38 43 41 43 42 44 42 39 43 40 43 49 49 49 50 44 38 34 33 38 41 36 41 45 45 38 39 40 41 44 47 51 50 55 56 55 55
46 42 44 37 39 42 42 40 38 36 41 43 39 42 42 37 39 40 46 48 49 52 49 45 35 39 40 42 45 45 45 45 42 44 42 43 45 48 49 50 52 54 55 54 54
42 42 45 42 44 41 41 40 39 40 40 39 38 43 43 40 41 41 46 47 46 49 48 47 36 41 40 48 47 45 48 46 47 47 48 46 44 52 50 51 51 53 55 54 54
47 48 48 45 43 40 39 40 42 43 44 46 44 43 42 44 49 50 51 52 52 48 45 45 42 41 35 45 45 39 45 46 46 47 49 43 49 51 51 54 53 51 56 55 54

GFSSW_sfc_temp_030.txt.gz
Temp
64 64 65 65 64 64 64 64 64 64 64 65 65 64 65 65 65 62 54 63 65 72 71 66 66 64 63 59 61 58 45 43 48 50 54 62 61 68 67 63 66 66 67 69 71
64 64 64 64 64 64 64 64 64 64 64 64 64 65 64 64 61 55 65 71 73 73 63 59 57 59 54 55 57 51 45 48 55 57 57 61 61 64 62 61 61 63 68 69 70
64 64 64 64 64 64 64 64 64 64 64 64 64 64 64 63 53 53 70 72 72 72 65 62 59 56 51 53 52 52 48 55 58 62 62 59 60 66 61 58 63 63 64 67 68
65 65 64 64 64 64 63 63 63 63 64 63 63 63 63 59 42 59 71 72 73 70 64 59 54 49 48 48 54 47 55 58 59 62 60 57 62 60 61 63 67 67 67 66 67
65 64 64 64 64 63 63 63 63 63 63 63 63 63 58 49 49 65 71 71 67 65 59 56 51 49 45 48 51 48 52 58 60 61 62 63 59 59 61 67 68 69 69 67 67
64 64 64 63 63 63 63 63 63 63 63 63 63 62 52 41 62 65 64 63 63 61 57 56 53 54 49 49 48 52 53 55 58 59 60 58 60 59 62 66 65 67 67 66 67
65 63 63 63 63 62 62 63 63 63 62 63 63 60 49 48 62 63 64 61 63 61 56 58 58 53 52 48 54 52 47 51 53 55 55 60 54 56 63 64 63 64 65 65 67
64 63 63 62 62 62 62 62 61 61 62 63 63 55 44 62 62 61 62 60 63 63 62 61 60 54 51 54 50 45 43 38 50 55 56 57 47 57 63 59 61 61 62 60 64
64 63 62 62 62 61 61 61 61 61 62 63 56 51 42 63 56 60 61 57 59 60 60 66 57 48 49 44 40 39 34 37 44 56 54 53 50 59 63 59 58 59 59 61 61
63 62 62 62 61 61 60 60 60 59 60 60 59 47 51 51 57 59 60 60 55 55 54 51 48 41 39 38 32 37 34 37 38 48 52 50 50 56 58 58 59 63 64 58 59
63 62 61 61 61 60 57 50 46 44 50 48 49 48 54 58 61 57 59 56 53 48 41 46 37 33 37 39 41 41 36 35 40 50 47 47 50 54 58 56 54 57 56 57 58
62 62 61 61 61 60 53 46 49 50 40 50 51 51 56 59 50 55 59 47 45 39 41 40 36 44 44 43 41 39 36 36 43 49 49 45 45 52 58 59 59 61 58 57 55
62 61 61 61 60 56 52 49 54 55 41 46 50 49 51 55 49 50 55 49 43 39 40 35 40 47 43 41 39 38 36 37 37 44 47 46 43 48 55 59 61 63 64 57 58
61 61 61 60 53 51 50 55 53 55 35 39 41 48 51 52 44 58 59 53 46 39 40 39 45 43 41 39 41 34 43 43 41 40 30 45 34 43 50 54 57 61 56 56 58
59 61 60 59 50 48 52 53 55 50 15 41 41 57 52 46 49 48 59 53 40 40 40 36 38 39 38 40 45 38 47 43 44 40 38 38 34 41 50 50 54 58 58 58 58
57 60 58 54 54 54 53 55 50 29 18 37 42 40 41 44 46 50 48 53 49 42 40 39 47 42 43 47 47 47 43 42 40 39 29 36 36 38 45 50 53 59 55 55 57
57 57 56 58 49 54 54 47 31 17 40 35 37 39 39 40 41 43 40 38 36 31 30 36 36 42 45 40 44 43 36 27 25 25 25 39 35 40 46 52 57 59 55 55 56
56 57 58 58 54 54 49 39 24 35 34 42 42 41 36 40 41 39 37 35 39 37 32 22 22 36 42 39 36 37 36 28 18 17 27 40 33 40 53 59 61 57 57 55 53
55 54 53 53 55 54 43 30 29 35 41 39 40 35 36 40 40 38 35 33 39 38 30 26 27 42 43 44 44 34 31 40 31 33 28 33 37 48 52 50 51 52 53 52 52
51 51 50 55 55 50 38 34 36 43 43 42 33 37 34 36 34 34 32 39 39 41 43 35 26 39 42 44 44 42 43 29 31 17 21 31 34 41 46 45 47 49 50 51 51
49 46 50 55 53 42 33 36 39 45 45 39 37 37 36 36 36 32 34 40 43 43 42 40 34 33 37 33 34 34 33 36 35 32 26 28 35 51 53 51 48 50 51 50 50
48 38 51 52 40 39 36 41 46 43 46 43 43 40 38 38 36 33 33 40 48 47 36 39 35 29 32 42 43 40 37 38 30 28 34 30 33 50 50 52 54 52 51 51 52
45 44 51 50 33 35 40 42 44 42 43 41 39 41 43 38 35 37 41 48 49 46 39 40 34 28 32 34 42 37 41 42 43 39 33 29 34 51 46 48 52 50 50 51 50
45 38 44 45 45 40 38 39 39 45 44 43 40 42 40 38 42 37 39 47 50 48 47 43 35 32 30 36 40 36 38 42 41 32 33 33 37 45 45 47 48 49 51 50 50
45 41 45 37 39 41 42 42 39 37 43 43 38 39 39 36 36 36 42 45 47 49 45 41 34 34 35 37 38 42 39 41 39 40 34 39 39 46 48 48 49 51 51 50 49
42 42 44 42 44 42 41 39 39 40 40 37 37 41 41 38 39 37 42 44 45 46 43 44 34 35 35 44 40 39 42 43 42 40 36 46 47 53 48 48 47 49 50 50 50
47 46 46 43 42 39 40 41 41 44 44 45 41 40 41 42 46 47 47 48 49 46 43 41 37 35 34 43 40 35 37 43 39 45 46 43 50 50 49 50 48 49 52 52 51

GFSSW_sfc_temp_033.txt.gz
Temp
64 64 64 65 65 64 64 64 64 64 64 64 65 64 64 64 64 62 56 62 64 72 71 64 63 61 61 56 59 56 44 42 47 47 52 57 57 63 65 60 63 63 63 66 68
64 64 64 65 64 64 64 64 63 64 64 64 64 65 64 63 61 56 65 70 72 73 62 58 55 58 52 53 55 50 45 47 53 53 53 59 59 60 61 60 59 60 64 66 66
65 64 64 64 64 64 64 63 63 63 63 63 63 63 63 62 52 53 69 71 72 72 64 60 58 55 49 50 50 50 48 54 55 58 60 56 57 60 58 56 62 62 63 66 65
65 65 64 64 64 64 64 63 63 63 63 63 63 63 63 57 41 57 71 72 73 68 63 58 53 47 45 46 52 45 52 55 57 59 58 55 58 57 58 60 64 65 65 63 65
66 65 64 64 64 63 63 63 63 63 63 63 63 62 57 47 48 63 69 68 66 63 58 55 49 47 43 46 48 45 49 55 57 57 57 59 56 55 57 63 65 66 65 65 64
65 65 64 63 63 63 63 63 63 63 62 62 62 62 52 40 60 63 63 62 62 60 56 55 51 52 47 46 45 49 50 51 54 55 56 54 55 55 56 62 62 63 64 65 65
65 64 63 63 63 63 62 63 63 62 62 62 63 59 49 47 60 60 63 59 59 59 54 56 56 51 50 46 52 50 44 48 50 52 52 56 52 53 59 61 59 61 61 64 65
65 64 63 62 62 62 62 62 62 61 62 62 63 54 43 61 59 59 60 58 60 60 60 59 59 55 53 55 48 43 40 36 48 51 53 55 45 54 61 60 58 59 58 60 62
64 64 63 62 62 61 61 62 61 61 61 62 56 48 42 62 55 59 60 57 58 58 58 65 59 48 49 43 37 37 33 33 41 52 51 50 46 55 60 57 55 56 57 59 60
62 63 63 62 61 61 60 61 60 58 58 60 58 47 50 50 56 58 58 59 54 53 53 50 48 43 43 39 29 31 37 36 36 45 47 47 47 52 56 55 54 55 56 57 58
60 62 62 62 61 61 58 50 45 44 49 48 49 48 53 57 60 56 58 55 53 48 39 44 37 33 38 39 39 38 35 33 38 46 42 41 43 48 52 54 56 53 55 56 56
58 60 62 61 61 60 54 45 47 51 41 50 50 51 55 57 49 53 58 47 44 37 40 38 34 40 42 41 39 37 35 34 40 46 43 42 42 48 51 52 54 57 57 57 54
59 57 60 61 60 56 52 50 53 52 39 46 48 48 50 52 48 49 53 47 41 37 37 35 39 46 42 39 37 36 33 36 36 42 44 40 40 45 52 55 56 59 61 61 59
58 56 59 61 54 54 50 54 52 56 34 39 41 47 50 52 44 56 57 52 45 37 38 38 44 42 39 37 38 33 41 40 38 35 27 39 28 40 45 50 53 56 58 59 55
58 56 58 59 51 49 52 53 52 50 15 40 41 55 52 46 48 47 58 52 42 40 38 35 36 36 35 38 43 37 45 41 39 34 31 35 28 34 46 46 51 50 56 55 55
57 55 57 55 53 54 54 54 51 32 19 36 41 41 41 45 47 49 48 54 49 42 42 41 47 40 39 44 45 45 41 40 37 36 26 34 31 33 40 46 48 52 54 55 57
57 55 54 56 49 54 54 48 32 24 39 35 37 40 40 39 42 43 40 39 36 32 31 35 37 41 43 37 42 42 34 26 24 26 24 36 32 37 44 47 50 52 52 55 53
56 55 55 56 54 55 51 39 24 34 32 43 40 39 34 38 39 39 39 35 40 37 31 25 23 35 41 38 34 36 34 27 20 22 25 37 29 37 49 54 57 58 54 52 52
54 51 51 52 55 54 45 30 28 34 40 39 40 35 36 41 41 38 36 35 38 39 31 26 26 38 40 42 42 33 30 38 30 31 27 30 35 43 50 51 49 51 52 50 50
48 48 49 54 56 50 39 33 34 42 43 42 32 37 35 37 35 35 34 38 39 40 40 32 24 37 41 43 43 38 40 29 30 20 20 26 30 37 42 50 55 47 47 48 50
46 42 50 54 52 44 33 36 38 44 44 39 36 37 36 36 36 33 33 38 41 39 41 37 34 32 37 33 34 35 32 35 33 28 21 19 30 40 48 51 49 45 47 48 49
45 36 51 53 36 39 36 39 45 41 43 41 42 41 38 39 37 32 32 38 45 43 35 40 34 28 32 40 44 41 36 36 28 22 29 28 31 46 44 47 48 47 48 48 49
39 43 50 49 32 33 40 41 44 40 40 41 40 43 44 38 35 37 37 45 46 43 38 39 33 27 29 34 37 34 36 36 38 35 28 25 32 47 49 45 47 47 48 48 48
40 34 43 43 43 39 38 39 38 44 43 44 41 43 39 37 41 36 37 44 46 47 48 44 35 31 28 33 35 33 35 35 34 30 32 33 38 46 48 45 44 44 47 47 48
42 37 41 34 37 41 42 40 38 37 44 45 39 39 38 35 37 37 39 41 46 48 45 41 32 34 35 36 37 36 35 36 34 37 33 37 36 42 49 48 47 48 47 46 46
40 41 44 42 43 40 40 39 40 41 40 38 38 40 39 37 40 34 39 40 42 44 42 42 33 34 32 39 37 35 36 38 40 40 40 40 40 51 51 51 47 47 48 47 47
46 47 45 43 42 39 39 41 41 44 43 44 41 39 39 41 46 46 45 45 45 43 40 38 35 34 32 37 37 33 37 38 40 43 42 35 43 50 47 48 48 48 50 48 48

GFSSW_sfc_temp_036.txt.gz
Temp
65 65 65 65 64 64 64 64 64 64 64 64 64 65 65 65 64 61 57 61 62 71 70 63 62 60 59 55 57 53 44 40 43 45 49 55 54 61 62 58 61 61 61 64 66
65 65 65 65 65 64 64 64 63 63 63 63 64 64 64 63 60 57 66 70 72 72 60 57 54 56 51 51 53 50 44 45 51 51 51 56 55 58 59 58 58 60 63 63 64
65 65 65 64 64 64 64 64 63 63 63 63 63 63 63 62 53 53 69 71 72 71 63 59 57 53 47 48 48 48 46 51 53 56 56 54 55 57 54 54 60 58 62 64 61
66 65 65 64 64 64 64 64 63 63 63 63 63 63 62 57 40 56 71 71 72 68 64 57 52 46 44 45 50 43 49 52 54 57 56 52 56 53 55 58 62 60 64 62 62
65 65 64 64 64 64 63 63 63 63 63 62 62 62 57 47 48 61 68 66 64 63 60 57 49 47 42 44 45 43 47 52 54 54 54 56 53 53 54 60 63 64 63 63 63
64 65 64 64 64 63 63 63 63 63 62 62 62 61 51 40 58 60 61 61 60 60 56 56 50 51 45 44 43 46 48 49 52 52 53 52 53 52 55 59 58 60 61 62 61
62 64 63 63 63 63 63 63 63 62 62 62 62 58 48 47 59 59 61 57 57 58 53 55 56 50 50 44 50 48 42 46 47 50 50 53 48 49 58 59 58 59 59 61 62
60 61 63 63 62 63 63 63 62 61 62 62 62 53 43 59 58 58 58 57 58 58 59 58 58 52 52 50 47 43 42 34 45 48 51 52 42 53 58 58 56 56 56 58 62
60 59 62 63 62 62 62 62 61 61 61 62 54 48 42 61 54 57 58 56 57 57 57 64 57 49 48 41 39 42 30 33 40 48 48 47 42 50 55 54 52 53 54 57 59
60 59 59 62 62 61 61 61 60 58 58 59 57 46 49 49 55 57 56 58 53 53 52 50 49 40 41 40 26 29 30 33 34 42 43 42 42 49 54 53 53 52 52 53 56
60 58 58 59 62 60 58 51 45 42 50 47 48 47 51 55 58 54 56 54 51 47 39 43 36 34 38 39 40 35 32 32 37 44 39 39 41 46 50 48 48 52 54 53 55
59 59 58 57 61 60 55 47 47 49 39 49 50 50 54 55 48 52 57 46 44 37 40 37 33 40 41 40 38 36 35 36 41 43 41 40 40 46 49 50 51 52 54 54 56
57 58 58 56 58 56 52 50 53 53 39 44 47 49 50 52 47 48 52 46 39 36 36 34 37 44 41 38 35 34 33 35 35 39 42 38 37 44 50 53 53 55 56 58 57
57 57 57 57 53 53 50 54 54 54 29 37 41 46 49 50 44 55 55 48 41 35 36 36 43 41 37 35 36 32 40 38 36 32 27 36 27 38 42 46 49 52 53 55 55
56 56 57 57 52 49 52 53 55 46 14 38 40 55 52 45 47 46 56 52 42 40 38 35 35 35 35 37 40 35 42 38 38 33 30 32 27 32 40 42 46 45 48 54 56
55 56 56 52 53 54 56 55 49 27 20 36 41 41 42 45 47 48 49 53 49 43 42 41 46 42 38 42 42 43 39 38 37 34 26 32 29 34 39 43 46 48 49 54 55
55 55 54 55 49 54 56 48 32 25 37 34 36 41 41 39 42 43 40 39 36 32 32 37 38 43 44 38 40 38 33 24 22 24 23 34 30 35 42 44 46 48 49 50 52
54 55 54 55 53 54 51 38 22 33 32 42 39 39 36 41 40 39 39 36 41 38 32 28 22 36 42 39 34 34 34 23 15 19 23 34 27 36 46 52 54 55 53 51 49
54 47 49 52 54 53 43 30 29 33 39 38 38 34 33 37 38 37 37 37 42 40 31 28 25 37 39 40 41 34 30 38 28 28 24 31 32 41 47 48 49 47 50 48 48
44 46 48 53 54 49 37 33 34 41 42 41 31 35 30 35 34 36 35 37 39 40 43 32 21 35 38 40 41 38 42 29 29 20 18 24 26 31 41 44 49 52 51 48 46
44 40 50 54 52 41 32 35 37 43 45 39 34 33 35 37 38 35 33 37 40 38 41 35 31 29 36 33 34 34 31 33 34 30 18 17 28 38 42 42 45 46 50 46 47
44 36 50 52 36 36 35 40 44 40 43 41 40 39 36 38 37 35 31 38 43 40 35 40 34 27 31 43 43 42 35 35 27 23 26 23 30 45 42 45 47 46 45 44 46
40 41 50 49 31 32 40 40 41 40 40 39 38 41 42 39 34 38 39 44 44 40 35 40 32 24 26 34 39 33 35 35 36 33 27 21 29 48 49 50 45 43 43 44 45
40 35 42 42 41 39 37 37 36 43 41 42 41 44 40 38 40 36 38 44 44 43 47 44 36 30 27 34 37 31 34 34 33 28 29 29 34 44 48 47 44 42 44 45 44
40 35 40 33 34 40 42 41 36 36 41 43 39 40 40 35 36 36 39 41 44 47 45 41 32 34 35 37 37 35 34 34 31 33 27 35 36 43 46 49 41 44 45 46 44
40 39 42 40 41 39 41 35 38 38 39 38 37 42 41 37 38 36 40 41 39 40 40 42 33 35 33 39 37 33 36 35 35 35 35 37 37 49 50 42 43 42 44 45 45
46 46 40 39 39 37 38 39 39 43 42 43 42 41 39 41 44 45 46 46 42 42 41 38 35 33 31 37 35 33 35 36 36 39 39 32 41 49 47 49 47 44 46 47 47

GFSSW_sfc_temp_039.txt.gz
Temp
66 66 66 65 65 65 64 64 64 64 64 64 64 65 65 65 65 61 56 63 64 71 70 66 65 62 63 60 61 59 50 46 48 49 55 62 61 67 69 67 68 72 72 72 70
66 66 66 65 65 65 64 64 64 63 63 63 64 64 64 64 60 57 67 71 71 72 64 60 58 60 56 56 57 54 48 49 54 55 57 60 60 62 65 63 65 69 73 72 70
65 66 65 65 65 64 64 64 63 63 63 63 63 63 63 63 56 57 69 71 72 71 65 62 60 58 53 55 54 52 48 53 56 59 60 58 58 63 61 58 64 66 69 70 71
64 65 66 65 65 64 64 64 64 63 63 63 62 62 62 59 42 59 70 70 71 68 64 60 56 52 49 48 53 48 52 53 56 59 59 57 59 58 59 63 67 68 67 68 70
63 63 64 65 64 64 64 64 64 63 63 62 62 62 58 49 49 62 67 66 65 63 61 57 53 51 47 48 50 48 50 54 56 55 55 57 55 57 58 63 66 67 67 67 68
63 62 61 63 64 64 64 63 63 63 63 62 62 61 52 42 59 61 61 62 63 61 58 58 56 54 49 48 48 50 50 51 53 54 55 54 55 55 59 63 63 63 65 67 67
62 62 60 61 63 63 64 63 63 63 62 62 62 58 49 47 60 59 61 59 60 60 55 57 58 53 52 47 52 51 45 48 50 52 51 55 49 49 61 62 61 62 64 66 68
60 61 60 59 61 63 63 63 62 62 62 62 62 54 44 60 59 59 60 59 60 61 59 58 58 54 52 53 50 46 46 39 48 50 52 54 44 55 61 59 59 61 64 64 68
60 60 60 59 58 62 62 62 62 61 61 61 54 49 42 61 54 58 59 57 58 58 60 62 58 50 51 43 39 41 34 36 42 51 51 49 45 54 57 56 56 57 60 61 64
58 59 59 58 57 59 61 61 61 59 58 58 57 46 49 49 55 56 58 58 54 54 53 52 49 43 44 41 30 32 32 35 37 46 46 43 44 50 55 55 56 58 58 59 60
58 58 58 58 57 58 58 53 47 45 49 44 47 46 51 56 58 53 57 55 53 49 40 45 40 35 39 40 41 38 35 35 42 46 43 42 43 48 52 53 52 55 57 59 59
57 57 57 58 57 57 55 48 48 50 39 48 49 50 53 55 48 51 57 47 45 38 41 38 35 41 43 41 39 38 35 36 41 45 42 41 40 47 50 52 54 55 56 58 61
57 56 57 57 57 54 52 51 54 54 40 43 47 48 49 52 46 47 52 46 41 37 37 35 40 44 41 38 36 35 34 36 35 41 43 40 38 46 52 53 54 56 58 59 60
56 55 56 56 51 51 49 54 55 55 29 37 40 45 49 51 44 54 54 48 42 37 37 37 43 41 37 36 38 33 41 40 37 34 29 40 29 43 49 50 54 55 56 56 58
56 56 56 56 49 48 52 54 54 50 14 39 40 55 51 45 47 47 55 51 40 39 39 35 37 36 36 38 40 37 43 39 38 34 32 35 29 40 44 43 48 52 54 55 58
55 55 55 51 50 52 53 53 49 31 15 35 42 41 41 45 46 48 49 53 50 44 42 40 45 42 39 42 43 44 38 39 37 34 26 35 31 36 43 47 51 54 56 54 56
53 55 53 53 46 55 53 47 31 23 37 33 36 41 42 39 42 43 41 39 36 32 31 38 39 44 45 38 41 40 34 25 22 23 24 36 31 37 46 48 50 51 52 54 56
54 53 53 53 53 53 49 36 25 33 32 42 40 40 36 40 41 41 39 36 41 38 33 30 26 37 43 40 38 36 35 26 16 19 25 34 29 38 47 52 54 55 55 57 54
53 48 47 49 54 52 40 30 29 34 39 38 39 34 34 39 39 39 37 37 40 41 32 29 29 38 39 41 42 35 30 39 27 31 25 32 37 45 51 50 50 52 54 53 53
45 42 43 52 54 48 36 33 34 40 42 40 32 35 31 35 33 34 34 38 39 43 45 36 28 35 38 40 40 37 41 28 29 21 20 28 30 34 41 46 49 48 51 52 54
45 37 49 54 52 39 32 33 37 43 44 39 35 33 34 34 35 34 34 38 41 38 43 39 33 30 37 33 32 34 31 33 32 30 24 24 31 43 45 46 45 47 48 48 50
43 34 50 52 35 33 34 39 44 40 43 41 41 39 36 37 36 36 36 36 42 40 35 39 34 25 29 39 42 40 37 35 27 26 29 29 31 51 46 45 47 48 47 46 48
38 38 50 48 30 32 39 40 41 40 40 39 38 41 41 37 34 38 39 44 42 39 35 39 32 26 26 34 38 34 37 39 34 33 28 24 31 49 50 48 48 48 47 45 44
39 33 38 41 40 37 36 36 36 44 40 42 40 43 40 38 41 37 39 45 43 43 46 45 34 28 25 33 39 31 34 34 32 28 30 29 34 42 45 47 47 49 47 45 44
40 35 39 33 35 40 40 40 36 35 40 41 38 40 39 35 36 36 40 40 42 46 45 40 32 34 36 38 37 34 34 34 31 33 29 36 35 41 46 46 47 50 46 46 43
39 37 42 39 39 40 40 38 38 37 38 36 37 39 41 37 39 35 38 39 38 42 41 41 33 35 33 38 38 33 37 35 36 36 34 36 35 46 48 49 47 47 46 47 44
44 45 40 40 38 37 38 37 39 41 40 42 41 40 40 41 45 46 46 45 44 42 39 39 36 33 29 38 38 34 37 36 36 38 38 32 40 46 45 48 49 48 48 48 45

GFSSW_sfc_temp_042.txt.gz
Temp
66 66 67 66 66 65 65 65 64 64 64 64 64 64 64 64 65 63 61 70 71 72 71 72 72 71 71 68 69 70 61 59 61 62 65 71 69 77 78 76 77 81 80 80 81
64 65 65 66 66 65 65 65 64 64 64 64 64 64 64 64 63 58 71 71 72 72 71 68 66 68 66 65 67 65 59 61 68 69 66 69 69 72 71 73 75 78 81 81 80
64 64 65 65 65 65 65 64 64 64 63 63 63 63 63 66 59 62 70 72 72 72 71 70 68 66 61 64 64 63 58 66 63 67 66 66 66 71 69 68 74 75 78 78 79
63 63 63 64 64 65 65 65 64 64 63 63 63 63 63 65 50 65 70 70 71 73 68 66 65 60 58 57 63 56 62 64 64 66 64 63 68 66 69 72 77 76 77 77 79
62 62 62 62 63 64 64 65 64 64 63 62 62 62 62 57 60 69 67 69 71 70 63 59 60 60 56 58 58 57 61 62 64 62 63 65 63 65 67 74 77 77 76 76 79
61 61 61 62 61 62 63 64 64 64 63 62 62 62 59 50 67 69 69 69 68 68 65 63 59 63 57 57 56 58 57 59 61 61 63 59 62 64 67 73 73 74 74 76 78
60 60 61 61 61 60 62 63 64 63 63 63 62 63 55 56 68 68 67 67 66 68 63 67 66 60 61 54 59 58 52 58 60 61 59 62 56 58 68 71 70 72 75 75 78
60 60 59 60 60 60 60 63 63 63 62 63 62 61 52 64 68 64 67 65 68 68 67 67 66 61 58 59 56 52 53 48 57 57 60 59 51 64 69 69 67 70 73 74 76
60 59 59 59 60 59 58 61 62 62 62 62 59 56 50 64 58 65 67 63 65 66 66 67 64 58 56 51 48 50 47 47 50 57 56 56 53 62 65 65 65 69 71 72 74
59 58 58 58 59 58 57 60 61 61 61 61 60 48 55 53 60 61 65 65 61 61 58 57 57 51 52 48 44 46 44 47 47 54 54 52 53 60 64 64 64 67 70 70 71
58 57 57 57 58 58 55 54 46 46 53 52 52 52 54 60 63 58 63 61 61 57 48 52 45 42 49 51 51 47 45 44 50 54 51 51 52 56 61 62 62 64 66 68 71
57 57 57 57 57 58 54 47 51 58 44 55 54 56 57 60 51 55 63 54 52 46 50 45 38 49 51 51 47 46 44 45 49 52 50 50 49 56 59 60 62 64 66 68 70
56 56 57 56 57 54 49 48 59 59 50 47 52 52 54 57 51 51 58 54 50 45 46 43 46 49 47 45 42 44 43 44 44 49 51 48 47 56 61 63 64 65 66 68 69
56 56 57 56 52 52 47 54 53 57 38 41 44 51 54 56 48 59 61 55 48 45 46 45 51 45 44 43 46 40 48 45 43 41 37 47 38 52 58 60 62 66 66 67 68
57 55 56 56 48 46 51 53 52 50 27 44 43 59 56 50 51 49 60 54 45 45 45 41 42 42 40 43 47 41 48 45 44 39 37 41 32 48 57 53 58 63 66 69 70
55 54 54 52 53 55 56 52 47 33 27 36 43 42 42 48 48 50 50 56 55 46 45 47 51 47 48 49 48 48 44 44 43 37 29 42 38 45 55 58 60 64 65 68 69
55 54 53 54 47 58 54 45 31 30 42 34 38 42 42 41 42 46 42 40 39 33 34 42 43 48 49 43 46 43 37 31 28 26 30 45 41 45 57 58 59 60 64 67 69
53 53 53 53 57 55 49 33 28 38 38 44 42 42 37 43 42 42 40 36 45 43 39 35 34 43 47 44 40 38 39 33 25 30 37 43 35 48 59 59 61 63 65 65 67
52 51 50 54 57 52 41 30 34 41 43 40 41 36 35 40 42 40 39 39 44 44 35 36 33 45 47 47 47 40 33 44 33 38 31 40 47 56 60 59 61 61 61 62 64
46 48 50 56 55 46 36 35 36 46 46 45 36 40 34 37 38 39 39 46 45 50 51 41 31 42 43 46 46 44 47 31 32 24 26 38 41 43 51 54 57 58 59 61 63
46 42 52 56 52 37 32 34 41 49 49 44 40 38 40 38 40 39 41 44 49 47 50 43 38 36 39 36 38 36 33 36 36 34 29 28 39 55 52 55 57 56 58 59 59
43 34 53 54 36 34 35 37 46 45 48 46 47 45 42 42 40 41 41 44 50 48 41 46 37 30 35 47 49 48 42 39 29 29 31 31 35 56 54 57 55 56 58 60 58
39 37 50 49 33 34 38 40 45 44 44 44 43 46 47 43 38 43 44 49 48 47 44 45 33 30 35 39 43 37 41 42 37 35 29 28 36 54 56 55 57 56 58 60 56
39 33 39 42 43 42 37 37 38 46 44 46 45 48 45 42 45 40 41 46 48 49 48 47 39 33 33 40 43 33 36 36 32 29 34 35 39 49 52 53 56 57 57 58 55
38 35 39 35 38 43 44 42 40 39 45 47 43 45 44 39 41 39 43 44 45 46 46 43 33 37 38 41 42 39 36 35 32 33 30 40 42 48 52 51 53 56 57 54 50
36 35 40 42 44 43 43 42 42 41 44 41 43 45 46 42 44 39 43 42 42 46 42 43 35 38 33 43 42 35 40 38 38 38 35 36 37 52 54 55 54 55 53 49 50
44 45 40 41 40 41 40 44 44 47 45 48 47 44 43 46 50 51 49 48 46 44 41 40 35 34 31 42 41 37 40 38 39 39 40 33 44 52 51 51 51 51 52 53 49

GFSSW_sfc_temp_045.txt.gz
Temp
64 64 65 66 66 66 65 65 65 65 64 64 64 64 64 64 64 65 60 72 76 73 71 76 75 75 75 71 75 75 63 60 64 67 70 78 73 80 84 79 82 85 85 85 86
63 64 64 64 65 65 65 65 65 64 64 64 64 64 64 64 64 60 72 73 73 73 71 70 69 71 68 68 69 66 60 63 73 75 73 75 74 76 74 75 77 81 86 86 85
62 62 63 63 64 64 65 65 65 64 64 63 64 63 63 64 60 62 70 73 73 73 76 74 74 70 65 68 67 66 60 70 72 71 72 71 72 76 72 69 78 78 82 83 83
62 62 62 62 62 63 63 65 65 64 64 63 63 63 63 66 51 69 70 72 72 72 70 70 68 63 62 60 68 60 67 70 71 70 68 66 72 70 73 73 82 83 83 81 81
62 61 61 61 62 62 62 63 65 64 64 63 63 62 63 58 62 72 67 70 73 72 65 65 62 64 59 64 65 61 64 69 69 68 68 68 65 67 70 77 80 81 80 79 80
62 61 61 61 61 61 61 62 63 64 64 63 63 62 60 52 72 74 73 72 73 70 65 66 60 65 62 60 60 64 64 65 67 66 67 62 64 66 69 75 76 77 77 79 80
61 61 60 59 60 61 61 61 62 63 63 63 63 64 58 59 73 73 72 71 72 72 64 66 68 60 63 57 63 62 56 61 63 64 63 66 58 60 70 73 72 75 77 78 79
61 61 60 59 59 60 60 60 60 62 63 63 63 64 54 68 74 68 72 70 73 73 70 70 69 64 62 62 59 55 57 52 63 63 65 62 52 68 74 73 71 73 75 77 79
60 60 59 59 58 59 59 59 59 60 63 63 60 59 53 65 62 70 71 66 69 70 69 69 66 59 59 53 52 54 49 53 58 64 62 59 56 68 71 70 70 72 74 76 77
58 59 58 58 57 58 58 59 58 59 60 62 62 52 58 56 63 66 70 70 64 64 61 60 59 53 54 52 45 50 49 53 53 60 59 56 57 64 68 68 67 70 72 74 75
58 58 57 57 57 58 57 51 49 47 51 51 53 55 57 63 66 62 67 65 64 60 51 55 49 46 53 56 57 51 51 50 56 61 56 54 56 60 66 67 66 68 69 71 73
58 57 56 56 57 57 55 46 46 48 43 57 58 58 62 63 53 58 67 57 55 49 54 46 41 54 58 56 53 51 48 49 55 58 54 53 53 60 63 64 67 67 68 69 72
57 57 57 55 56 56 53 51 53 50 42 50 56 57 56 59 55 53 60 58 53 49 48 45 49 54 52 49 47 48 47 48 49 54 55 52 50 59 66 67 68 69 70 72 72
57 57 56 55 52 54 51 55 52 51 35 39 46 53 57 58 50 62 63 58 53 48 49 49 54 49 48 46 49 43 53 50 48 45 41 51 38 53 61 64 66 68 70 71 71
57 56 55 54 51 49 55 54 51 47 28 45 46 63 58 52 54 53 64 56 49 50 49 44 46 46 44 47 51 45 50 48 46 41 38 43 37 49 61 60 64 68 70 71 73
56 56 55 50 53 56 60 53 46 30 27 36 43 44 44 51 51 53 53 58 57 50 50 50 55 51 50 51 51 50 46 44 44 40 29 43 43 47 57 62 64 70 69 70 72
56 53 52 53 44 59 57 45 30 26 42 34 38 43 43 42 45 46 43 41 41 33 34 44 45 50 53 45 49 45 39 32 29 27 31 49 46 48 60 63 64 65 68 70 71
55 53 52 54 56 56 49 34 26 34 39 46 43 43 39 43 43 45 42 37 46 47 41 35 34 46 49 45 42 41 40 35 27 33 39 49 38 49 64 64 65 67 67 69 69
54 52 50 55 58 54 42 29 33 38 44 41 42 36 38 43 43 43 42 42 47 48 39 40 37 49 51 50 48 40 33 45 34 39 33 41 51 60 64 64 64 65 66 65 67
46 48 52 57 57 48 37 34 35 47 49 47 37 41 34 39 40 42 39 48 45 52 54 45 34 45 47 50 50 47 50 32 32 24 28 42 46 48 56 59 62 61 62 64 66
46 40 52 58 54 41 32 35 38 51 52 47 43 42 42 39 43 41 41 47 52 51 51 48 41 37 42 38 40 40 37 39 42 37 32 32 42 60 55 58 58 60 64 63 64
43 35 52 56 37 36 36 39 44 47 50 49 50 48 45 45 42 43 43 48 55 54 44 48 40 33 37 49 51 49 42 41 30 33 35 34 37 57 59 60 59 60 61 63 65
39 37 53 51 34 35 42 39 44 45 47 48 46 50 53 46 41 46 48 53 53 52 48 47 37 31 35 41 47 40 44 45 41 37 30 28 37 59 60 59 60 59 60 62 63
39 34 40 42 46 40 38 37 39 49 47 51 49 53 50 46 50 44 46 48 52 52 49 50 41 34 34 40 44 33 39 41 33 30 35 36 40 50 54 54 57 59 61 62 62
37 35 39 36 41 41 45 40 41 41 48 51 47 49 48 43 44 44 47 45 48 48 48 46 34 39 40 43 43 42 41 42 34 34 30 38 38 46 49 52 55 57 58 59 58
37 36 39 45 47 43 44 40 42 43 45 45 47 50 50 46 48 44 47 45 44 47 45 44 35 38 33 43 44 41 46 46 42 39 38 38 36 49 54 57 53 54 56 53 52
44 45 40 43 46 45 46 48 47 49 49 52 51 48 46 48 53 54 54 53 49 46 42 40 35 33 32 44 45 38 44 43 40 41 40 35 47 53 51 48 46 48 48 50 51

GFSSW_sfc_temp_048.txt.gz
Temp
63 63 63 64 64 65 65 66 65 65 65 64 64 64 64 64 64 63 59 69 71 74 72 73 73 72 72 66 70 70 54 51 56 59 63 73 67 73 74 70 75 72 72 75 79
63 63 63 63 63 63 64 64 65 65 65 64 64 64 64 64 61 59 70 75 75 73 70 68 65 68 62 63 64 59 52 54 65 67 65 70 68 69 68 68 68 71 77 78 77
63 63 63 63 63 62 63 64 64 65 65 64 64 64 63 64 58 61 73 74 74 74 71 71 71 68 59 63 62 59 52 62 66 70 68 66 66 69 65 62 68 69 73 76 76
63 62 62 62 62 62 62 63 63 64 64 64 63 63 63 62 47 67 74 73 72 72 69 67 66 60 57 56 64 55 63 64 65 69 66 62 67 64 66 65 73 73 74 73 73
62 62 62 62 62 61 62 62 63 63 64 64 63 63 61 55 57 69 69 70 70 67 64 61 61 60 55 59 61 58 61 65 67 66 64 66 61 61 63 69 73 74 75 71 71
61 62 61 61 61 60 60 61 62 63 62 64 63 63 57 48 72 73 72 71 69 66 63 62 62 64 57 59 59 62 62 62 64 64 64 61 60 61 63 69 68 70 70 71 71
61 60 61 60 60 60 60 61 61 61 60 63 63 62 56 55 72 72 72 70 72 70 62 64 66 59 60 56 62 60 52 57 58 60 59 61 54 56 64 67 66 67 69 71 72
60 60 60 60 59 59 59 60 60 60 61 61 63 60 51 69 72 68 71 69 72 73 69 68 67 61 57 61 57 52 52 43 57 60 61 59 46 60 65 64 63 65 68 69 71
60 59 58 59 59 58 58 59 59 60 60 60 58 56 50 65 61 68 70 65 69 70 69 70 65 57 58 48 45 48 40 45 51 60 58 55 48 60 66 61 60 63 65 68 70
59 58 58 58 58 57 58 58 59 59 58 58 59 49 57 54 62 66 69 69 64 62 58 57 55 49 50 45 36 42 42 46 47 53 54 50 50 57 62 62 59 60 62 63 66
58 58 58 57 56 57 55 53 48 46 50 48 49 55 56 64 66 62 67 64 63 58 48 53 46 41 46 49 51 50 46 44 50 57 52 50 50 54 59 60 60 61 63 64 66
57 57 57 57 57 57 53 45 48 46 40 52 54 59 62 62 53 58 66 55 54 46 52 45 38 51 55 54 51 49 44 44 50 56 50 48 48 54 57 58 60 61 62 63 65
57 57 57 55 55 54 51 50 52 50 36 46 51 56 56 60 53 53 60 57 50 47 47 42 47 54 51 49 45 45 42 43 44 49 50 46 43 49 57 59 61 63 64 64 64
56 56 57 55 50 52 49 53 51 50 32 38 44 52 56 58 50 61 62 57 52 46 49 46 53 49 46 46 47 40 49 49 46 40 32 44 28 43 51 54 57 57 58 61 64
56 56 56 55 48 47 53 53 51 45 22 40 43 62 56 52 52 52 62 57 48 49 48 41 45 44 43 46 50 43 49 45 44 37 33 36 28 38 50 50 54 56 59 60 61
57 56 56 51 50 52 55 52 46 30 22 36 43 45 45 51 51 53 53 57 57 50 50 48 54 49 47 51 50 49 44 43 40 35 26 34 34 34 44 50 53 58 57 60 60
56 56 53 52 43 55 53 45 29 24 36 34 36 44 44 43 45 46 44 41 38 32 33 43 44 49 51 45 48 46 39 24 24 23 22 44 36 39 52 56 57 57 54 58 57
55 55 54 54 53 54 47 34 24 36 33 42 42 43 40 43 43 43 41 37 45 43 37 33 30 43 49 45 39 40 38 26 20 21 28 41 31 40 55 59 57 58 58 57 57
55 50 50 51 54 51 40 26 31 35 39 38 41 35 37 42 42 40 39 39 44 46 37 35 36 49 49 50 47 40 33 40 31 32 21 32 40 50 57 55 56 56 56 56 57
46 46 47 55 55 46 36 34 34 37 45 44 34 40 33 38 39 40 39 45 45 49 51 44 32 44 47 49 49 42 46 30 27 13 17 30 35 39 46 49 54 53 53 55 56
45 39 50 56 52 40 31 34 36 43 49 45 41 40 41 38 42 40 40 47 50 48 50 47 38 36 42 37 36 38 36 36 34 28 19 21 31 46 46 50 49 51 54 55 53
41 34 50 52 36 36 34 39 41 42 51 50 50 47 43 44 41 42 40 47 53 52 43 47 39 31 34 44 47 45 38 37 24 22 27 23 30 53 50 49 50 50 55 55 56
38 38 50 48 31 32 40 39 40 41 47 48 47 50 50 44 38 45 46 51 52 50 45 46 35 28 33 37 45 36 41 41 38 34 27 25 30 53 53 53 55 55 54 55 56
39 34 40 42 41 40 38 36 38 47 49 52 50 52 47 45 49 44 43 48 50 51 51 49 39 29 24 34 39 29 37 39 35 29 31 32 35 43 48 49 50 51 54 54 55
39 36 39 35 37 42 42 40 38 41 49 51 48 50 47 42 44 43 44 44 48 47 46 43 31 35 37 40 41 38 37 37 34 34 29 36 37 43 45 46 48 50 50 50 54
38 35 38 40 42 43 42 38 41 44 45 46 46 50 49 44 46 43 45 44 41 44 44 44 32 36 29 39 40 35 40 40 41 41 37 38 38 46 51 51 49 48 47 47 49
45 44 40 42 41 41 41 41 44 47 49 52 50 47 45 47 51 51 51 51 49 42 42 39 35 32 30 39 40 35 41 42 40 43 41 36 43 49 47 50 45 45 46 48 49

GFSSW_sfc_temp_051.txt.gz
Temp
63 64 63 63 64 63 63 64 64 65 65 65 65 64 64 64 63 61 56 63 66 73 72 69 68 67 66 60 62 59 45 42 48 51 55 66 61 70 69 67 69 67 68 71 76
63 63 63 63 63 64 63 63 63 64 65 65 65 64 64 64 57 54 67 72 74 74 66 63 61 64 55 57 58 52 45 48 58 59 58 63 61 63 64 64 62 64 69 72 75
63 63 63 63 63 63 63 63 63 63 63 65 64 64 64 62 53 54 71 72 74 73 68 66 65 62 54 55 54 53 46 56 60 63 63 61 61 64 60 57 63 64 68 70 70
63 62 63 62 62 62 62 61 62 62 63 62 64 63 63 59 42 62 73 73 74 70 66 62 59 56 52 50 57 49 56 59 61 63 62 58 62 59 58 60 66 67 67 69 68
62 62 62 61 62 61 62 62 62 62 63 62 64 63 58 50 52 67 70 72 71 66 61 59 55 55 51 53 55 51 55 61 62 61 61 63 57 56 58 63 66 67 68 67 68
60 61 61 61 61 61 61 61 61 61 61 62 62 63 53 43 67 69 68 66 66 63 60 60 60 60 53 53 52 56 59 56 58 58 58 58 57 56 57 64 62 64 65 63 66
60 59 59 60 60 60 60 60 60 60 61 61 60 60 52 51 67 67 70 66 67 64 59 64 63 59 57 52 57 58 50 52 53 55 54 59 51 52 60 61 59 61 62 66 66
59 60 59 58 59 59 59 59 59 59 60 60 61 58 47 66 67 67 67 65 68 69 65 62 63 60 57 56 55 49 46 39 52 56 56 55 44 56 61 57 59 61 63 61 65
59 58 58 58 58 58 58 58 59 59 60 61 55 52 46 66 59 66 65 62 65 66 66 68 61 55 56 49 44 46 35 38 45 57 55 52 44 56 61 58 56 58 60 63 66
58 58 58 57 58 58 57 57 58 58 56 59 56 46 53 52 60 64 65 65 61 60 58 57 54 48 45 43 33 37 36 39 41 50 51 48 46 52 57 56 53 55 54 57 63
57 57 57 57 57 57 52 46 42 44 47 48 47 50 55 60 64 60 64 61 60 54 44 52 43 37 40 43 45 44 41 41 44 52 47 45 45 50 54 54 56 57 54 59 62
57 57 57 57 57 57 51 41 45 45 38 51 50 54 59 61 52 56 63 53 52 44 50 44 39 47 50 48 46 44 41 39 46 51 47 44 45 51 54 54 57 57 55 58 62
57 56 57 57 56 51 46 46 50 51 36 42 47 51 55 57 50 51 57 54 48 44 45 38 45 51 47 45 44 40 37 38 40 45 45 41 40 44 52 54 57 60 61 60 61
56 57 57 56 49 47 44 50 51 50 31 37 41 47 54 56 47 59 60 55 50 44 46 45 50 48 44 43 44 36 45 45 43 37 29 40 26 36 47 51 52 52 54 59 60
57 57 56 56 45 43 49 50 47 43 18 40 41 56 56 48 50 51 60 56 45 46 45 39 44 45 41 43 47 40 47 42 40 33 30 32 27 34 42 46 50 49 52 53 56
56 56 56 51 48 48 52 49 46 26 17 35 42 43 44 48 49 51 52 55 54 48 47 44 51 47 45 48 47 48 42 40 37 32 22 30 30 31 40 46 47 49 54 53 55
56 56 53 52 43 51 50 43 23 14 35 33 35 43 43 42 43 45 44 41 36 32 32 41 42 46 49 41 44 42 33 18 26 24 20 36 30 33 45 51 52 52 53 55 56
55 55 52 53 53 50 44 34 17 32 32 40 41 43 38 42 42 43 41 35 41 39 30 27 25 40 46 41 36 36 34 20 15 17 24 36 27 37 49 53 54 56 54 54 52
55 47 47 51 53 48 39 26 27 31 36 37 38 35 35 41 41 40 39 37 40 41 31 29 31 46 46 47 44 36 29 38 25 26 18 27 35 45 50 49 50 53 53 53 54
46 44 45 50 52 44 33 30 33 36 36 41 33 38 32 37 36 37 37 42 43 45 45 42 30 44 46 48 48 40 43 26 21 11 14 25 29 36 42 45 48 48 48 51 54
45 40 47 50 48 38 27 32 36 39 42 39 38 38 37 37 38 37 37 44 46 45 48 45 35 34 43 37 36 37 34 35 30 24 16 17 27 42 43 45 44 47 51 52 53
41 33 47 49 33 34 33 38 37 39 45 44 44 42 39 41 38 40 36 42 50 47 40 46 38 28 30 41 44 40 36 35 19 19 20 24 27 47 49 46 48 52 53 54 53
39 39 47 45 28 30 38 36 37 41 44 47 45 47 46 42 36 42 43 49 52 49 45 43 35 28 32 38 42 35 40 38 34 28 19 20 27 48 46 49 52 50 50 51 55
39 32 39 40 41 37 35 34 36 45 45 50 48 50 46 42 43 40 40 47 50 50 51 49 38 26 23 29 35 29 35 35 35 24 27 27 33 43 46 48 49 49 46 46 49
39 35 37 34 36 38 39 38 38 40 47 50 46 47 46 41 42 40 42 41 45 48 47 43 27 31 34 37 37 35 34 35 28 34 29 36 36 42 47 46 49 51 48 51 51
38 35 39 37 41 39 38 37 38 43 43 43 43 48 45 41 43 39 41 39 38 40 40 40 27 34 27 37 37 33 37 37 37 38 38 39 37 47 50 50 51 46 47 47 49
43 44 39 38 40 37 37 39 42 45 47 49 46 43 41 43 47 47 48 46 44 39 40 38 33 30 24 36 36 28 37 38 38 40 42 35 43 49 48 48 43 44 45 46 47

GFSSW_sfc_temp_054.txt.gz
Temp
64 64 64 64 64 63 64 64 63 64 64 63 65 65 65 64 63 58 54 62 63 71 73 68 66 65 63 57 60 57 43 39 45 48 51 60 59 66 67 63 66 64 65 69 73
63 64 64 64 63 63 63 63 63 63 63 64 63 65 64 64 57 52 63 70 72 73 64 61 59 61 54 55 56 50 42 45 54 55 53 59 58 61 62 61 60 61 66 70 72
63 63 63 63 63 63 62 63 62 62 63 63 63 64 64 62 51 52 69 70 72 73 67 64 63 60 52 53 52 50 44 54 57 60 60 58 58 60 57 57 60 59 65 68 67
63 62 62 62 62 62 62 62 63 63 62 63 63 62 63 58 40 62 71 71 73 70 64 61 57 52 50 49 54 46 54 57 58 61 58 56 60 55 57 60 62 61 64 67 67
61 60 60 61 61 61 61 61 62 62 62 62 62 61 58 48 50 67 70 72 70 64 60 57 53 52 48 50 52 47 52 57 59 59 57 60 56 56 57 62 64 63 65 65 65
61 60 60 60 59 60 60 61 61 61 61 61 61 60 53 42 65 68 67 65 66 62 58 58 55 56 53 52 50 54 55 55 56 55 56 55 55 55 56 62 61 61 61 62 64
61 59 59 59 59 59 60 60 60 60 60 61 61 57 50 49 65 66 67 64 64 62 58 60 62 59 55 50 56 55 48 50 52 54 53 56 52 50 59 59 58 58 58 61 62
59 59 59 58 58 58 58 59 59 59 59 60 61 55 46 63 65 63 66 64 66 65 63 62 62 59 54 54 52 48 45 39 50 54 55 54 44 53 58 55 55 56 58 59 62
58 58 58 57 57 58 58 58 58 59 59 60 54 50 45 64 57 63 64 61 63 65 63 64 59 53 53 46 43 42 34 37 44 54 53 49 43 55 61 54 53 54 55 58 61
58 58 57 57 57 57 57 57 57 57 55 56 54 45 49 50 58 62 64 64 59 60 56 53 51 46 44 44 34 36 35 37 39 48 48 45 44 51 54 53 53 53 53 53 57
58 57 57 57 57 57 53 46 41 40 48 43 46 46 52 58 62 58 63 59 58 52 45 50 44 40 40 46 43 44 42 38 43 50 44 44 44 48 52 51 53 54 53 55 58
57 57 57 57 57 56 49 40 44 44 36 46 48 50 53 59 50 55 62 52 50 43 46 44 40 47 49 46 44 42 37 36 44 48 44 42 41 48 52 53 55 57 58 57 57
57 56 57 57 56 50 47 45 49 48 36 41 49 45 49 56 50 49 57 54 48 44 43 40 45 50 47 43 41 39 36 37 38 43 41 40 41 44 48 51 55 58 59 59 59
57 57 57 57 48 45 43 51 50 49 30 35 38 43 48 54 46 57 60 54 48 44 45 45 50 48 45 41 42 36 43 43 41 36 29 39 27 36 43 45 49 48 49 55 58
57 56 56 56 46 44 48 50 49 44 8 40 37 51 51 49 48 51 60 55 44 45 46 38 43 42 40 42 45 38 45 41 39 32 28 30 28 35 42 44 46 47 50 52 54
56 56 56 51 48 50 49 50 45 21 12 33 41 40 43 47 47 51 52 56 55 48 46 43 49 46 45 46 47 46 41 37 34 29 17 28 29 32 38 44 46 50 52 54 50
56 55 53 52 44 52 48 43 22 17 34 32 34 40 41 41 42 45 43 41 37 33 33 40 40 45 48 40 44 41 31 16 16 15 19 33 27 32 42 48 48 50 51 53 52
55 54 51 52 51 48 45 33 19 29 30 34 39 41 37 42 42 43 40 35 41 38 31 29 27 40 44 41 36 36 32 20 14 18 22 33 26 36 45 49 51 51 50 51 52
54 45 44 49 51 49 36 22 25 30 33 34 39 35 35 39 40 40 40 36 39 40 31 29 29 44 45 45 43 36 27 36 23 22 16 25 32 41 45 45 47 48 49 48 50
44 44 45 52 51 43 32 29 32 37 34 39 33 36 31 34 36 38 38 41 41 43 43 37 26 43 45 48 46 39 41 26 19 10 13 23 25 31 38 41 45 45 46 49 53
40 40 45 49 47 38 28 31 34 39 37 38 35 36 35 34 36 36 38 41 44 42 43 41 32 34 42 37 33 36 31 29 28 23 15 16 27 39 41 43 42 44 47 48 48
39 33 46 49 32 34 32 36 36 36 44 42 42 41 37 37 36 35 35 39 47 45 38 41 34 28 33 39 42 39 35 32 19 17 17 25 26 44 40 42 44 50 48 51 49
39 36 45 44 30 31 36 36 36 38 42 45 43 44 43 38 36 38 39 47 47 45 40 41 33 24 28 35 41 33 36 37 32 26 17 17 26 45 43 50 51 48 50 49 48
35 30 36 39 39 36 34 33 36 44 42 47 45 47 42 39 41 37 40 45 49 49 50 46 35 26 22 28 32 26 33 35 33 21 24 24 31 42 45 48 51 51 51 51 48
39 35 38 33 36 38 39 38 41 40 46 46 43 44 42 37 38 37 41 43 46 49 46 42 28 30 33 36 35 35 33 33 29 34 24 31 33 40 46 49 50 52 48 49 49
38 36 39 37 41 38 39 38 39 42 43 42 40 45 44 40 40 37 39 37 37 43 42 41 27 34 27 35 35 31 35 35 35 36 35 36 36 48 52 51 49 44 45 46 47
43 44 39 39 37 37 37 38 40 43 46 47 46 43 40 42 44 45 45 44 42 39 36 37 31 30 24 34 33 26 34 36 36 37 40 34 42 50 48 48 43 41 43 43 42

GFSSW_sfc_temp_057.txt.gz
Temp
64 64 65 64 64 64 63 63 63 64 63 64 63 63 65 64 63 57 52 60 63 69 72 66 65 63 62 56 58 53 42 38 44 46 50 56 55 62 62 60 63 63 63 65 69
64 64 63 63 63 63 63 63 63 63 62 63 63 63 62 64 57 52 62 68 70 71 63 60 57 59 52 54 54 49 40 44 52 53 52 56 55 58 60 58 59 60 64 65 68
63 62 61 62 62 62 62 62 62 63 63 63 63 63 62 61 50 52 68 68 71 71 66 62 62 58 51 51 51 49 42 52 55 58 58 54 56 58 54 55 56 56 61 65 63
63 61 61 61 61 61 61 61 62 62 62 62 62 62 62 57 39 61 70 71 70 69 64 58 56 51 48 48 52 45 52 54 57 59 56 53 57 54 56 58 61 60 62 63 63
62 61 61 60 61 61 60 60 61 62 62 62 61 62 56 48 48 66 70 69 68 66 60 55 51 50 47 49 50 46 50 55 58 58 55 57 53 53 54 61 60 63 63 62 62
60 60 60 59 59 60 59 60 61 61 61 61 61 61 51 42 62 66 66 65 65 62 57 57 53 55 50 49 50 52 53 54 55 55 54 54 53 53 54 59 58 59 60 60 61
59 59 58 58 58 59 59 59 60 59 60 60 61 57 48 49 62 62 66 63 66 62 56 58 59 55 52 49 54 52 46 48 51 53 53 54 50 48 56 59 57 59 56 59 60
60 59 58 58 58 58 58 58 59 59 59 60 60 54 44 62 65 61 63 62 62 61 60 59 60 57 53 53 50 47 44 38 49 52 54 54 44 52 56 56 54 55 57 59 58
59 58 58 58 58 58 57 58 58 59 59 59 52 47 43 62 56 61 60 60 62 59 59 65 60 52 54 47 39 40 33 36 44 53 52 49 41 52 58 53 52 53 54 55 58
58 58 58 58 58 57 57 57 57 56 54 55 52 42 48 48 56 59 61 61 58 57 55 53 52 46 46 44 35 34 35 36 39 45 47 44 41 50 53 51 51 52 54 54 56
58 58 57 57 58 57 52 44 40 39 46 40 42 44 50 56 62 56 59 57 57 51 45 49 43 40 44 46 45 41 38 36 40 48 43 42 41 47 51 48 48 50 53 55 56
57 57 57 57 57 56 47 40 42 43 35 45 45 47 51 54 48 55 60 50 50 44 47 44 39 46 48 47 43 43 37 35 42 45 42 40 40 47 51 52 53 55 56 56 55
57 57 57 57 56 49 43 44 50 47 36 41 45 46 47 50 49 49 55 52 47 43 43 41 44 50 46 42 40 37 34 36 37 41 39 38 38 43 48 50 52 54 56 57 57
57 57 57 57 48 46 43 50 50 49 28 34 39 43 46 49 46 57 58 52 46 42 44 43 48 46 43 41 41 35 42 42 39 35 28 37 27 36 43 44 47 48 49 50 53
57 56 56 56 46 43 48 50 48 44 6 37 36 48 47 45 47 49 59 54 44 45 43 38 41 42 41 41 44 38 44 40 37 31 27 29 27 35 39 42 47 46 48 50 51
56 56 55 50 48 49 51 48 45 21 14 32 38 35 37 46 47 49 51 55 54 46 46 42 50 46 43 46 46 45 39 36 32 29 18 28 29 32 37 40 44 47 48 49 49
55 55 52 52 43 51 48 43 21 12 34 31 32 33 40 41 42 44 42 42 38 32 33 40 40 45 47 40 43 39 32 19 17 15 19 31 28 33 41 44 45 45 45 48 49
55 54 49 52 50 49 41 28 18 29 29 34 36 36 37 42 42 41 40 35 40 38 32 29 29 39 44 40 37 34 33 22 16 15 21 30 25 34 44 46 47 47 44 48 48
52 47 46 48 51 45 36 22 25 30 33 31 36 34 35 39 40 38 39 38 40 40 32 27 27 41 44 44 42 35 26 34 23 22 17 24 30 39 43 42 44 46 48 46 48
41 41 45 51 48 43 32 28 32 36 33 34 33 35 32 36 36 36 38 42 40 42 42 35 26 42 42 46 44 38 40 26 19 13 16 24 25 31 36 39 42 43 44 46 48
39 36 45 50 47 35 28 30 33 37 37 39 34 34 34 35 37 36 37 40 43 41 42 39 32 34 41 37 34 33 29 29 28 23 17 17 28 36 38 40 41 43 45 46 46
36 27 45 46 32 32 30 34 37 37 44 41 44 40 35 39 38 37 36 38 45 44 37 40 33 30 34 38 41 38 34 31 20 18 17 23 25 41 42 43 43 46 47 50 48
35 34 44 43 28 31 36 37 37 38 40 41 41 44 45 38 34 37 37 45 46 43 40 41 30 19 30 37 40 33 35 33 29 24 15 16 26 42 39 42 46 51 53 53 52
33 29 36 36 38 36 33 35 37 41 39 44 42 44 41 37 40 36 38 43 45 46 49 45 33 26 22 28 32 24 32 32 32 21 22 23 28 38 43 44 50 52 47 45 50
37 34 38 33 34 38 41 41 39 38 43 45 42 42 40 36 37 35 39 41 44 48 43 40 28 29 32 35 34 33 32 32 29 31 23 28 31 38 45 46 50 46 46 46 47
37 36 40 37 41 40 40 38 40 40 40 39 39 41 41 39 40 36 39 37 37 41 39 39 27 31 26 34 34 31 34 34 34 35 34 36 35 47 50 52 49 44 43 44 44
43 44 39 36 34 36 36 37 39 41 46 46 44 41 39 40 43 45 44 42 42 38 35 38 30 29 21 33 32 27 32 34 35 35 38 32 41 50 48 49 45 42 42 42 42

GFSSW_sfc_temp_060.txt.gz
Temp
64 64 64 64 63 64 63 63 64 63 63 63 63 63 63 62 62 58 52 59 61 68 69 65 63 61 61 55 56 52 41 37 43 46 50 57 53 58 60 57 60 62 58 63 65
64 64 63 62 62 61 62 62 63 63 63 63 63 63 63 62 56 52 62 67 68 70 64 59 56 58 52 53 53 48 39 42 51 52 52 55 54 55 56 56 56 57 63 62 65
63 63 63 62 62 62 62 62 62 62 62 63 63 62 62 60 50 51 68 68 69 69 66 62 61 57 50 50 50 47 42 50 54 56 57 54 52 56 52 52 57 55 59 62 60
62 62 61 61 61 61 62 61 61 61 62 62 62 62 62 56 41 57 68 70 69 68 63 58 56 52 49 46 51 44 50 53 56 58 56 51 54 51 54 57 60 59 59 60 61
61 61 61 60 60 60 60 60 60 61 60 61 61 61 57 47 49 63 68 67 68 64 58 55 51 52 48 49 50 47 49 54 56 57 54 55 52 52 53 59 59 61 60 59 59
61 60 60 60 59 59 58 59 59 60 59 60 60 61 51 40 62 62 63 63 63 61 58 56 52 54 49 48 49 51 53 53 54 54 54 52 50 51 53 55 56 57 59 59 62
60 60 59 59 59 59 59 59 59 59 59 60 60 57 47 45 59 60 61 61 63 62 56 59 57 54 51 47 53 51 46 47 50 52 52 52 47 46 55 57 55 55 55 58 59
60 59 58 58 58 58 59 59 59 59 59 59 59 52 40 60 60 60 60 59 62 65 62 61 59 55 52 52 49 46 43 38 49 51 52 54 42 51 54 53 54 54 51 54 59
59 58 58 58 58 58 58 58 58 59 59 58 50 46 39 60 54 60 58 56 57 59 58 63 59 51 51 44 41 44 33 36 43 52 51 48 40 50 53 50 50 51 52 54 55
59 58 57 57 57 57 57 57 57 55 53 54 51 41 45 46 55 57 57 58 56 55 54 53 51 46 46 44 33 37 38 35 39 45 46 42 40 49 52 50 50 49 50 52 54
58 57 57 57 57 58 52 44 40 38 44 39 41 41 48 53 58 55 57 55 54 52 45 49 42 40 44 47 43 40 37 36 39 45 41 40 39 45 51 47 46 48 50 52 55
58 58 58 57 57 57 47 39 41 43 35 43 44 45 50 51 46 52 57 48 49 43 47 41 35 46 51 48 45 43 39 35 40 44 41 40 38 46 51 49 51 52 53 52 54
58 57 57 57 57 50 44 44 49 47 34 39 43 43 47 47 44 47 54 49 45 44 43 40 40 47 45 42 40 40 37 35 36 40 38 36 37 41 47 49 49 51 52 51 52
57 57 56 56 48 46 43 49 49 48 28 32 37 42 46 46 43 55 56 51 46 43 44 42 46 44 43 40 41 33 42 41 39 34 29 36 27 36 41 44 46 45 47 48 48
56 56 55 55 46 41 45 49 49 44 9 37 37 49 47 40 45 47 57 52 43 43 43 38 42 42 40 42 44 37 44 40 36 30 26 30 28 35 38 41 43 43 44 46 48
55 56 55 48 45 47 50 49 45 24 14 31 38 35 36 40 44 47 52 54 51 44 44 42 49 47 44 45 45 43 38 35 31 29 18 26 28 32 36 37 41 43 45 46 47
56 55 51 52 42 50 45 43 22 17 32 27 30 33 33 38 41 44 43 41 38 33 33 38 39 44 47 40 44 39 32 17 17 15 18 29 26 32 39 42 42 42 45 45 46
55 54 49 50 47 46 41 28 16 28 30 35 36 34 34 40 38 39 38 35 39 38 31 27 28 39 44 40 36 33 32 22 15 16 22 30 24 33 40 42 45 44 44 45 47
52 44 48 49 49 46 37 23 25 29 33 32 33 33 35 39 38 37 37 34 39 38 33 28 28 42 44 44 42 32 25 33 22 20 16 24 29 38 41 40 42 44 45 44 46
40 39 42 48 47 43 32 28 31 35 33 32 32 36 32 35 35 34 35 39 38 40 40 32 26 40 42 45 43 37 38 26 21 14 15 23 24 31 35 37 42 43 43 45 46
38 35 44 48 46 36 28 30 33 38 36 37 33 33 35 34 37 33 34 39 42 39 41 37 32 34 40 37 33 34 30 29 27 22 18 18 29 36 38 40 38 41 43 43 45
35 26 44 45 33 33 32 35 38 39 42 41 42 39 34 37 34 34 34 38 45 43 37 39 34 30 33 37 40 37 33 30 21 19 20 21 26 39 39 40 43 44 46 47 47
32 33 43 44 31 33 37 38 39 39 39 42 40 44 42 36 33 36 37 43 45 43 39 40 30 24 30 36 39 33 34 32 28 24 21 18 27 42 36 39 43 45 51 45 45
34 29 36 39 40 37 35 35 36 40 41 43 41 43 40 36 38 36 37 42 44 45 49 45 32 26 23 28 31 24 32 32 28 19 22 21 28 36 41 42 43 47 47 43 48
34 33 38 33 37 38 41 40 36 35 42 43 41 41 39 34 35 35 37 39 43 47 42 40 28 29 33 34 33 32 32 31 27 28 23 27 28 37 41 44 46 50 45 42 43
37 35 39 37 39 36 39 37 37 39 39 38 37 40 40 37 37 34 37 35 35 39 38 38 26 30 26 34 33 31 33 33 32 33 31 33 33 47 50 50 49 45 42 40 41
42 44 39 36 32 33 33 36 38 41 44 44 43 40 38 39 41 42 42 40 40 37 35 35 30 26 21 31 31 26 32 33 33 33 36 29 40 49 47 48 46 42 41 40 41

GFSSW_sfc_temp_063.txt.gz
Temp
63 65 64 64 63 63 63 62 62 63 63 63 63 64 63 63 61 58 53 60 62 68 69 65 64 61 63 59 59 56 48 44 48 48 54 60 59 65 67 67 68 70 69 70 70
62 62 63 63 62 62 63 63 63 63 63 62 63 63 63 62 55 52 64 67 69 70 63 59 56 58 54 55 56 52 45 47 53 56 55 59 61 63 64 62 65 67 69 66 69
62 63 62 62 62 62 62 62 62 62 61 62 62 62 62 61 49 52 68 69 69 69 65 62 60 58 52 53 53 51 46 52 55 58 60 58 59 62 61 59 64 64 65 65 66
62 61 61 61 61 61 61 61 61 60 61 61 61 61 62 56 39 59 68 70 70 68 63 59 56 53 51 48 53 47 52 55 58 59 59 56 60 58 60 63 66 65 66 67 66
61 61 61 60 61 60 60 60 60 60 60 60 60 60 55 45 46 62 66 66 67 64 58 55 53 54 50 52 51 49 52 55 58 58 58 59 56 58 58 63 64 64 65 66 67
61 60 60 60 59 59 60 60 60 60 60 59 60 59 49 37 59 62 61 62 64 60 58 57 56 57 52 51 51 53 54 55 56 57 57 54 54 55 58 61 62 61 63 64 66
60 59 59 59 59 59 59 60 60 60 60 59 59 56 46 43 58 60 59 57 61 61 56 60 59 58 53 50 55 53 47 51 54 54 54 56 50 49 59 61 61 61 63 62 65
60 59 59 58 58 58 59 59 59 59 59 59 59 51 40 57 59 57 59 57 61 63 61 62 58 56 54 55 51 48 48 41 51 54 54 56 45 55 58 57 58 59 60 59 63
59 58 58 58 58 58 58 58 59 59 59 59 50 47 38 58 51 57 59 54 57 60 60 63 56 52 51 46 44 44 36 39 46 53 53 53 46 54 57 55 56 57 58 58 59
59 58 58 58 58 58 57 58 57 54 53 54 51 40 44 43 53 56 59 58 53 55 53 53 51 46 46 44 34 37 37 39 42 48 49 46 45 51 55 54 54 55 57 57 57
59 58 58 58 58 57 52 46 41 40 43 38 40 40 46 50 56 54 57 54 55 51 44 48 42 39 44 46 46 43 41 39 42 49 47 44 43 48 52 52 52 54 56 58 59
58 58 57 57 58 58 48 39 41 44 35 43 43 44 49 51 41 51 56 48 48 43 47 41 37 44 50 48 46 44 40 39 43 47 46 42 42 48 52 52 54 55 56 55 57
57 57 57 56 53 51 44 44 49 47 35 39 42 42 46 47 40 45 52 51 47 43 44 38 38 46 46 45 41 42 40 38 40 43 43 40 41 45 51 51 52 52 53 54 53
56 57 57 56 47 46 42 48 49 48 27 32 37 41 44 43 38 52 54 52 47 42 44 39 45 43 40 39 41 37 44 43 41 39 34 40 34 41 45 45 46 48 50 51 51
56 57 56 54 42 42 46 49 48 44 13 34 36 49 47 38 42 45 55 52 41 42 44 37 41 41 36 37 41 37 42 42 38 34 35 36 34 40 44 42 44 47 49 50 51
56 56 54 47 45 47 50 49 44 23 6 30 37 35 35 35 40 45 49 53 49 43 44 41 48 44 42 44 44 43 40 37 34 32 25 31 33 37 41 43 46 48 49 49 50
56 55 52 50 43 48 47 42 23 17 31 26 31 33 33 36 39 44 43 41 37 32 33 36 38 44 47 40 45 41 36 25 23 23 26 32 30 37 43 46 48 48 49 49 50
55 53 50 50 48 48 43 27 19 28 29 35 35 34 31 38 39 41 39 36 40 38 33 31 29 39 45 41 37 37 37 27 21 22 26 32 28 37 43 45 49 50 49 48 50
52 42 43 47 50 47 37 20 23 29 33 32 33 30 34 37 38 38 36 36 37 40 32 29 30 44 44 44 43 36 31 36 23 23 22 29 34 42 45 45 47 47 48 48 50
39 38 40 48 48 44 32 30 31 36 34 33 31 35 32 34 35 36 36 39 39 42 42 35 30 41 42 45 43 39 39 29 24 18 22 27 29 34 39 43 46 46 47 48 49
37 35 43 46 44 37 29 31 34 40 38 37 33 33 33 32 35 33 35 40 42 41 42 38 33 34 41 37 34 35 31 30 30 26 23 24 32 39 41 44 44 46 47 48 48
34 29 44 44 36 35 33 36 39 39 41 40 40 38 34 36 35 33 34 38 44 44 37 39 35 30 33 39 41 39 34 32 23 23 23 23 31 43 42 43 43 46 48 48 48
32 32 42 42 33 33 39 40 40 38 38 41 39 41 40 36 33 35 36 43 45 43 40 41 30 26 30 36 39 35 36 34 31 28 23 24 32 43 42 43 45 46 48 46 47
33 30 36 37 39 37 35 32 35 41 40 41 40 41 38 35 38 35 36 42 45 44 48 44 33 29 25 31 33 27 32 33 30 25 26 25 31 40 43 43 46 47 47 46 45
34 32 38 32 33 36 36 36 35 35 41 42 40 39 38 33 35 34 37 39 43 45 42 40 29 31 34 35 35 33 33 32 27 29 27 31 30 38 42 43 46 48 46 45 43
34 35 38 36 34 34 36 35 36 37 38 37 36 38 39 36 35 34 37 34 35 38 38 38 28 31 28 35 34 31 34 33 34 34 32 33 34 46 49 51 49 45 44 43 42
41 44 39 35 31 32 35 35 37 39 42 42 40 38 36 37 40 42 41 40 40 37 35 35 31 27 23 32 32 27 32 33 34 35 37 31 39 48 47 48 46 44 43 42 41

GFSSW_sfc_temp_066.txt.gz
Temp
64 63 64 63 63 63 63 63 63 63 63 63 63 64 64 63 63 61 54 62 68 70 69 70 68 66 67 65 67 69 59 56 59 59 63 71 69 75 78 77 78 80 80 79 79
63 63 63 63 62 62 62 62 62 62 63 63 62 62 62 63 60 56 66 68 69 69 67 65 62 61 60 62 63 62 57 60 68 67 64 65 70 72 71 73 74 77 79 77 80
63 63 63 62 61 61 62 62 61 61 62 61 62 62 62 63 53 58 70 69 70 70 70 68 68 59 55 61 60 61 57 65 61 64 67 64 68 73 71 67 76 75 76 75 72
62 61 61 61 61 61 62 61 61 61 60 61 60 61 60 58 42 63 69 71 70 71 67 64 61 53 52 51 62 54 61 63 64 64 63 62 69 68 71 74 77 77 75 76 74
62 61 61 60 60 60 60 60 61 61 60 61 60 60 57 47 50 68 65 66 68 65 61 61 58 57 51 54 58 54 59 62 65 63 63 63 64 68 68 74 74 74 72 74 75
61 61 60 60 60 60 60 60 60 61 60 60 60 59 52 38 63 67 61 61 65 66 58 63 60 63 59 56 53 59 59 59 63 63 62 59 61 63 68 74 73 73 73 75 75
61 60 60 59 59 59 59 60 60 60 60 60 61 58 49 49 64 67 61 57 59 61 57 65 64 60 63 54 62 58 53 58 60 60 59 63 56 58 69 72 71 72 74 74 74
60 59 59 58 58 58 58 59 59 59 60 59 59 55 44 62 66 62 63 57 60 64 64 67 64 61 60 63 58 54 53 46 57 59 59 60 52 62 69 70 69 72 74 74 75
59 60 60 59 59 59 59 58 58 59 59 60 54 51 43 61 55 61 62 54 60 63 65 67 59 54 56 53 47 49 45 48 51 60 59 57 55 64 68 66 67 69 71 72 73
60 59 58 58 58 58 58 57 58 56 56 58 55 44 50 48 56 60 63 60 56 57 54 55 50 45 47 47 40 45 46 49 49 54 56 54 54 58 63 62 65 69 70 71 71
59 58 57 57 57 57 56 53 48 45 49 45 45 46 48 55 59 56 59 55 55 53 45 52 42 39 44 53 56 55 49 47 51 55 53 53 54 57 62 64 64 67 69 70 72
58 58 58 58 58 55 53 44 47 49 39 48 48 48 52 53 44 50 58 46 48 43 51 45 37 47 51 52 52 51 49 48 48 54 53 51 51 57 60 61 63 65 67 69 69
57 57 57 57 56 51 46 45 53 52 37 41 46 45 48 51 42 43 53 47 50 43 48 42 42 49 46 47 46 49 49 48 47 48 51 49 50 54 56 57 59 60 62 63 63
57 57 56 56 52 49 44 49 51 50 30 34 39 44 47 47 40 50 53 51 48 40 42 42 45 45 43 42 46 38 51 50 47 46 43 48 45 49 52 52 56 59 61 62 62
56 56 55 54 48 44 48 50 49 45 19 35 38 51 47 42 39 46 52 54 47 42 43 36 39 38 34 41 46 39 51 49 47 44 44 44 43 48 52 49 53 57 59 60 62
56 56 55 53 52 50 53 51 45 29 19 31 40 36 36 37 38 46 46 55 55 44 43 40 46 43 42 43 45 43 42 45 46 44 34 43 42 45 49 52 53 56 58 59 61
56 55 55 54 47 54 50 43 29 25 33 31 33 35 34 34 37 40 42 44 42 35 33 36 37 41 44 36 40 41 40 31 31 32 36 39 38 47 51 53 56 55 57 58 61
55 54 53 54 52 51 44 35 26 32 30 38 35 34 31 40 38 41 40 38 46 45 38 33 30 36 40 42 40 42 42 38 29 32 37 38 36 46 51 55 57 56 57 57 59
53 53 53 52 53 50 39 31 28 30 34 33 35 31 34 39 38 39 37 37 41 45 37 34 32 41 43 45 48 42 39 44 34 33 36 43 43 49 51 52 54 55 56 56 58
48 49 50 54 54 49 39 32 33 37 35 33 32 42 33 40 38 42 40 41 43 46 49 42 32 42 44 49 48 46 47 37 35 29 30 37 40 43 45 49 53 54 56 57 57
48 48 51 53 52 43 32 33 35 42 39 39 40 40 42 40 43 41 40 44 47 46 50 47 42 36 44 41 40 41 40 38 41 37 36 36 42 55 51 53 53 54 55 56 56
45 41 53 53 42 39 36 38 41 42 44 42 46 45 43 44 42 42 40 45 50 50 45 46 43 34 36 44 47 45 43 43 36 31 34 36 41 53 56 54 52 54 56 56 55
43 43 54 51 34 36 44 43 44 45 45 46 45 48 48 44 40 43 43 48 50 49 48 49 40 30 32 40 44 40 42 42 39 37 31 36 40 51 53 52 55 54 56 55 54
44 38 46 48 46 39 37 39 41 47 47 48 47 49 46 44 46 41 42 46 49 50 48 50 41 36 34 38 41 33 38 40 35 33 36 39 42 48 51 53 56 56 56 55 53
44 37 40 36 42 41 44 43 42 40 48 49 47 45 45 41 42 40 43 45 48 48 49 49 36 37 39 40 40 38 37 37 33 38 35 41 42 50 52 54 55 57 54 52 50
40 38 41 42 42 44 42 41 42 43 44 43 43 45 47 43 43 41 44 45 45 48 47 47 36 38 33 39 39 35 39 39 39 41 40 41 42 55 57 57 54 53 49 48 46
45 46 42 42 42 42 37 39 41 45 47 48 46 46 44 43 46 50 50 49 49 46 43 43 39 36 31 37 37 33 38 39 40 42 43 37 47 54 52 53 51 50 47 46 46

GFSSW_sfc_temp_069.txt.gz
Temp
64 63 64 64 63 63 62 62 62 62 62 63 63 63 62 63 63 64 58 66 68 71 70 74 71 67 69 66 70 73 59 57 62 64 68 78 74 80 84 81 83 84 85 83 85
63 63 63 63 62 62 62 62 63 62 62 62 62 62 62 62 61 59 69 70 70 70 68 65 65 64 58 63 64 61 57 60 70 72 70 73 73 75 75 75 78 81 85 84 84
62 62 62 62 62 61 62 62 62 62 62 61 62 62 61 62 53 58 72 70 70 70 71 71 72 65 55 61 62 61 57 66 71 68 71 68 68 77 74 71 78 78 82 82 83
61 62 62 61 62 61 61 61 61 61 61 61 61 59 61 60 41 62 68 71 70 71 67 67 66 58 55 54 63 57 63 67 69 66 64 64 70 72 74 77 83 84 83 81 79
61 62 61 61 60 60 60 60 61 61 61 59 60 59 57 50 51 69 68 66 67 67 61 60 61 61 54 59 59 58 63 65 67 66 66 68 65 69 73 79 80 79 76 79 80
61 60 60 60 59 59 59 60 60 60 61 60 60 59 54 43 68 70 65 61 61 63 60 60 64 66 61 58 57 59 62 62 65 65 65 61 65 67 73 79 77 77 77 78 79
60 60 60 60 60 59 59 59 59 59 59 60 60 59 52 51 68 69 62 56 58 56 53 63 68 64 63 56 63 60 54 58 61 64 61 64 58 60 71 75 74 75 77 78 79
61 60 60 59 59 59 59 60 59 58 59 59 59 56 45 65 69 65 67 58 59 62 57 64 66 64 62 63 59 52 53 47 57 61 62 60 52 66 71 70 71 75 77 77 78
60 60 59 58 58 58 58 59 59 58 59 60 54 52 46 63 57 64 65 56 54 56 58 65 58 56 60 49 48 49 42 49 54 62 60 56 54 67 70 69 70 73 76 77 78
59 58 58 58 58 58 57 57 58 58 58 61 55 45 53 51 58 61 66 61 48 51 53 51 51 45 51 44 37 44 47 53 51 57 58 55 55 64 67 66 68 72 74 75 75
58 58 58 58 58 57 52 49 49 46 52 48 47 49 52 58 62 57 62 56 50 46 43 48 44 37 44 50 54 56 53 52 57 58 55 55 57 60 65 64 65 69 72 73 74
57 57 58 57 56 55 55 47 49 49 41 52 51 52 56 57 47 55 60 46 41 36 47 46 40 48 50 52 50 53 52 52 56 59 53 56 55 62 63 63 65 67 70 72 74
56 57 57 57 56 57 49 44 51 52 37 45 50 48 51 53 47 48 53 47 41 40 48 45 45 52 45 45 44 46 50 53 51 54 54 53 51 55 61 64 66 65 67 70 69
56 57 57 56 53 54 47 50 52 52 31 38 41 45 50 51 43 52 52 47 49 42 50 49 48 49 45 40 43 43 57 57 52 47 41 52 44 54 59 56 58 62 65 66 66
56 56 56 54 54 46 49 54 53 47 21 37 38 52 49 41 38 45 53 48 44 41 44 36 44 44 43 40 43 43 54 55 52 49 48 45 42 51 55 51 56 61 62 64 65
56 56 56 55 56 53 56 52 49 30 20 32 41 38 38 38 38 42 45 47 50 41 46 41 48 44 43 43 44 51 51 49 49 46 35 48 46 44 50 54 56 60 62 63 64
55 55 55 57 48 55 51 43 31 27 38 32 35 36 34 35 35 36 37 39 37 32 33 36 37 41 43 36 41 43 39 31 30 30 36 47 42 50 54 59 59 59 61 62 64
55 54 56 58 58 55 46 35 28 33 31 40 38 36 32 36 34 41 45 41 47 44 36 33 30 34 40 39 36 38 37 34 30 34 39 43 38 48 57 60 60 61 61 62 63
55 60 57 59 57 54 40 32 29 31 34 33 36 31 36 42 41 45 41 41 46 50 39 34 32 39 41 44 44 37 36 47 39 42 40 43 48 52 53 55 57 58 59 59 61
54 54 56 58 57 48 41 33 35 40 37 34 33 44 36 43 44 46 46 47 47 51 53 44 32 38 40 45 49 45 48 38 37 30 32 42 45 46 47 50 55 56 58 59 60
55 52 56 59 55 49 33 35 36 45 43 39 45 43 46 45 48 46 45 47 51 49 54 51 44 37 44 39 39 43 41 42 43 40 37 36 44 56 52 54 55 57 58 59 59
52 43 58 59 42 41 41 43 43 47 47 45 49 50 48 49 47 46 44 49 53 54 48 51 45 34 39 47 50 49 47 48 37 34 37 37 41 58 58 57 57 57 58 60 58
49 51 61 57 36 40 47 47 48 49 49 50 49 52 53 48 43 47 47 52 53 52 50 52 42 32 34 42 46 42 46 47 43 39 34 37 40 59 59 56 57 57 59 59 58
49 38 53 55 50 41 39 41 45 51 51 52 51 53 51 48 51 45 45 49 52 52 49 53 45 38 36 39 43 35 42 43 35 34 40 42 44 49 53 54 58 59 59 59 57
48 40 43 41 45 45 47 48 46 45 52 54 50 50 48 44 45 43 46 48 51 50 52 52 38 40 43 44 43 40 39 41 33 40 36 45 47 51 55 56 58 59 58 57 55
40 38 42 45 50 48 45 43 44 47 48 47 47 49 51 46 46 43 47 49 48 51 50 51 38 41 35 42 42 37 42 43 41 43 44 46 45 57 60 60 58 58 56 53 52
49 48 42 47 48 46 41 41 42 48 50 51 50 50 47 46 51 54 55 54 53 49 48 47 43 39 34 40 40 35 41 42 43 46 46 39 49 56 54 55 56 55 52 51 50

GFSSW_sfc_temp_072.txt.gz
Temp
63 63 63 63 64 63 63 63 63 63 63 63 63 62 62 62 62 60 54 63 67 71 70 70 68 65 66 62 65 67 51 48 52 57 62 73 72 77 77 71 75 75 71 75 77
63 63 63 63 63 63 62 62 62 62 63 63 62 62 62 61 58 55 66 70 72 71 65 63 62 63 56 58 59 57 49 51 62 66 65 69 71 71 68 67 69 70 75 77 74
62 63 63 62 62 62 62 62 61 62 62 62 62 62 61 60 49 53 69 70 71 71 67 67 67 62 55 57 57 56 49 59 63 67 65 66 66 71 68 62 68 68 72 75 73
63 62 61 61 61 61 61 61 61 61 61 61 61 61 59 56 37 61 69 68 71 70 64 61 63 57 52 50 58 52 58 60 65 65 63 60 65 64 67 67 74 72 73 73 71
62 61 61 61 61 60 60 61 61 61 61 61 60 59 56 45 48 65 68 66 66 66 59 57 57 57 51 54 56 53 58 62 65 65 63 65 61 62 65 70 72 73 73 71 72
61 61 61 61 61 61 60 60 60 60 60 60 60 59 51 39 65 69 66 62 61 58 59 59 57 62 58 56 55 57 59 61 64 63 63 60 59 62 65 71 68 70 67 66 68
61 60 60 60 60 59 60 60 60 59 59 60 60 57 49 48 66 67 63 59 59 57 52 61 61 60 60 55 62 58 51 55 58 61 58 61 54 57 66 69 66 67 65 69 70
60 60 59 59 59 59 59 59 59 60 59 60 59 55 44 63 66 64 65 57 59 59 57 58 58 55 59 61 58 50 50 43 55 58 59 58 46 59 66 65 64 66 65 67 70
60 59 59 59 59 59 58 58 58 59 59 59 54 50 44 64 56 62 63 57 54 55 57 59 53 51 55 48 43 46 38 41 48 58 57 54 48 60 66 63 63 63 65 67 68
59 58 58 59 58 58 58 57 56 57 58 60 56 44 50 51 59 61 64 60 49 48 48 48 48 45 46 44 33 38 39 44 44 53 55 51 50 59 63 61 61 63 65 67 67
58 58 58 58 57 56 55 52 45 43 50 46 47 47 52 59 62 57 61 52 49 40 38 47 40 38 43 48 48 47 46 45 50 57 52 51 50 55 60 58 58 60 61 63 66
58 57 57 58 57 57 55 46 45 46 37 50 52 52 56 58 47 54 61 46 40 33 37 41 37 44 51 51 47 48 46 46 53 55 51 51 50 57 59 58 59 61 61 62 63
57 57 57 57 57 54 49 44 50 52 38 45 50 49 51 54 46 47 53 48 39 34 35 38 42 48 48 46 44 45 41 43 48 51 47 45 45 52 58 60 61 62 61 61 60
57 57 57 57 51 53 47 51 52 52 30 35 37 45 50 51 43 55 52 46 39 33 36 41 51 47 45 43 46 39 49 48 51 43 33 46 32 47 54 55 57 55 57 58 56
56 57 56 56 49 47 50 55 52 45 18 38 39 51 49 43 39 44 52 44 36 36 41 37 43 43 38 40 46 40 46 50 47 42 40 39 31 45 52 50 51 52 55 56 57
56 56 55 56 52 53 54 53 47 29 19 32 39 37 36 39 38 43 44 45 43 43 44 41 48 44 44 46 45 44 40 43 45 41 29 38 35 37 44 50 51 54 55 57 57
56 56 54 57 48 56 52 44 29 24 39 31 34 36 34 36 37 41 37 36 36 32 33 38 37 42 44 38 41 38 34 30 28 28 25 43 36 41 50 55 54 53 54 56 57
55 56 56 58 57 55 47 34 25 33 31 37 37 36 33 37 35 37 38 36 42 42 36 32 28 36 40 40 36 35 37 32 25 23 28 40 29 38 51 56 58 57 55 56 56
55 56 55 56 57 53 40 29 28 31 35 32 35 33 34 36 36 35 35 38 40 44 35 30 30 38 40 42 43 36 34 39 33 36 27 32 37 43 47 51 52 53 54 53 55
52 53 53 58 57 48 39 34 34 42 38 35 31 41 35 42 37 41 42 47 45 50 50 41 30 38 39 43 43 39 45 32 32 26 26 31 33 34 40 46 50 51 51 53 54
51 49 53 58 53 44 33 34 37 47 45 39 42 43 46 45 47 44 42 47 51 49 51 47 40 35 39 37 36 36 34 38 39 34 26 23 30 45 45 48 49 51 53 53 53
49 41 55 56 40 40 39 44 44 48 48 46 48 48 46 47 44 44 41 45 52 51 45 48 40 32 37 45 48 45 43 42 27 27 30 27 29 50 48 49 51 51 54 54 54
46 48 57 55 35 37 44 45 49 48 49 49 48 51 52 46 40 45 44 51 52 48 45 47 36 29 32 38 43 38 43 44 38 35 31 25 29 50 48 48 50 50 52 53 53
47 36 47 51 48 41 39 41 45 51 50 52 51 52 49 46 48 43 43 48 50 50 49 49 40 31 25 32 38 30 38 39 33 28 32 31 38 44 47 47 50 51 52 52 52
46 39 42 39 42 45 45 45 45 44 51 52 48 49 47 42 43 42 44 46 49 50 48 46 32 34 39 41 41 37 36 37 28 33 26 37 41 45 49 48 50 52 53 52 51
40 37 42 41 49 46 45 43 41 45 47 47 46 49 49 43 43 41 44 43 43 45 44 46 32 35 29 41 40 34 40 39 38 38 39 41 40 51 53 53 52 50 51 50 49
46 46 40 42 46 44 41 42 42 47 50 51 48 47 45 45 49 50 50 49 47 43 43 43 36 31 26 36 36 29 37 39 39 41 41 34 42 49 49 52 50 49 49 48 48

GFSSW_sfc_temp_075.txt.gz
Temp
63 63 63 64 64 63 63 63 63 62 62 63 64 63 63 62 62 59 51 57 62 69 69 65 63 61 62 58 59 57 47 45 49 50 56 67 63 73 74 69 69 67 67 70 74
63 64 63 63 62 62 62 62 62 62 62 63 63 63 63 62 56 52 62 67 69 70 63 58 55 57 53 52 56 48 44 49 59 59 58 65 64 64 63 65 63 64 67 71 71
63 62 62 62 62 62 62 62 62 62 62 61 61 62 61 60 49 51 67 68 69 70 66 62 60 57 49 50 52 51 47 57 60 62 63 61 58 70 64 61 64 63 64 68 68
62 62 62 62 62 62 62 61 62 62 61 61 61 61 60 55 35 59 65 68 69 68 63 58 55 50 46 47 52 47 56 58 61 63 61 59 64 66 66 65 68 68 68 66 66
62 61 61 61 61 61 61 61 61 61 60 60 60 59 55 44 45 63 62 66 65 64 58 54 50 51 45 49 49 47 53 59 62 61 59 61 59 62 63 66 68 70 69 67 66
62 61 61 60 60 60 60 60 60 61 60 60 59 58 49 37 60 62 62 62 58 59 58 56 51 54 53 49 48 51 54 56 58 57 61 58 58 60 62 67 66 68 65 65 68
61 60 60 60 60 60 60 60 59 60 60 60 59 56 46 45 62 63 61 58 58 56 52 58 57 52 54 50 55 52 45 50 53 56 55 59 53 55 63 65 61 60 61 63 65
60 60 59 59 59 59 59 60 59 58 59 60 59 51 42 60 60 59 59 55 58 57 56 57 57 51 49 57 52 49 46 40 50 55 57 55 44 57 64 60 60 59 60 62 65
60 59 59 59 58 58 58 58 59 58 59 58 51 47 42 63 54 59 58 53 54 56 56 59 54 50 51 46 39 43 37 39 47 54 53 51 45 58 63 60 57 59 62 61 63
59 59 58 58 58 58 58 57 57 56 57 58 54 40 48 49 57 59 59 56 49 50 48 47 46 44 44 42 33 36 36 39 38 50 50 47 47 56 61 60 58 57 60 61 61
58 58 58 58 58 57 53 50 44 40 46 44 44 44 51 56 60 55 55 50 47 42 36 44 39 37 41 45 44 42 39 38 43 50 46 45 47 52 57 57 55 56 59 60 63
58 58 58 58 58 57 49 42 43 44 36 48 49 49 54 56 46 51 55 44 41 33 35 37 36 43 48 48 46 43 40 39 45 52 49 45 46 52 56 54 56 58 58 60 57
57 57 57 57 57 50 44 42 48 48 33 43 48 48 49 52 44 45 52 43 37 34 34 33 39 46 47 45 42 40 36 37 42 46 48 44 40 46 54 57 56 60 60 60 59
57 57 57 57 49 47 42 49 49 49 24 34 38 43 48 50 41 51 51 45 39 33 35 34 45 44 43 42 44 38 47 47 46 41 31 41 28 40 49 54 55 57 57 57 57
57 57 57 56 45 42 48 50 50 44 16 34 38 51 48 42 40 42 50 44 37 36 36 35 41 39 40 42 45 38 45 44 45 40 35 36 30 36 46 49 54 51 52 54 55
56 56 56 51 48 48 50 48 45 26 18 32 37 35 36 40 38 43 42 44 43 36 37 40 47 44 43 44 44 44 41 41 41 38 29 33 32 31 38 49 50 52 50 53 54
55 56 52 54 43 50 48 39 24 22 37 32 34 37 34 34 36 40 36 33 32 29 31 37 36 42 46 38 42 41 35 29 28 28 23 36 31 37 44 48 52 50 50 52 53
56 56 54 55 51 52 45 29 19 31 31 39 38 36 33 38 35 37 33 31 34 36 33 30 28 37 42 40 38 36 36 31 25 21 25 37 28 37 45 50 53 54 53 53 51
55 48 47 50 52 47 40 25 28 31 35 32 33 32 34 37 38 35 34 36 40 43 33 29 30 39 43 44 43 37 33 38 30 30 25 30 33 43 45 45 49 51 53 50 50
43 44 46 53 51 42 33 31 31 41 38 36 29 38 33 35 35 35 38 44 43 46 45 35 30 38 40 44 42 40 43 31 29 24 22 27 27 32 38 41 46 47 50 50 51
42 41 48 52 47 38 31 33 36 44 43 37 38 38 39 38 40 37 40 45 49 47 48 41 34 34 38 37 35 36 35 36 35 31 25 20 29 41 43 45 45 46 49 51 51
40 34 50 49 35 37 36 42 46 46 46 44 41 42 41 42 39 38 37 43 50 49 43 46 38 31 35 43 45 43 38 38 26 25 29 24 30 46 43 45 47 48 50 51 50
37 38 50 47 29 37 40 43 46 45 45 46 45 47 47 42 36 41 41 48 49 46 42 45 33 27 30 38 42 36 41 42 37 33 27 25 29 46 46 45 47 47 48 50 50
39 32 38 42 43 41 38 39 43 47 46 48 47 48 44 42 43 39 40 46 49 47 49 48 37 28 25 30 34 29 37 37 30 23 28 28 34 42 46 45 46 48 49 49 49
37 37 41 32 36 42 44 44 42 41 47 48 46 45 42 37 38 37 41 42 46 49 46 43 30 32 36 39 38 35 35 34 27 33 27 36 38 43 46 46 47 48 48 48 48
34 34 37 35 39 44 42 40 41 43 42 42 40 43 42 37 37 35 40 39 39 42 41 43 29 32 26 38 38 32 37 36 37 38 36 38 38 48 52 50 49 47 48 47 47
38 40 39 38 37 41 40 41 42 44 47 48 44 42 40 42 44 44 44 44 42 40 39 39 33 27 23 35 34 27 34 36 36 38 38 33 41 46 48 50 48 47 47 47 47

GFSSW_sfc_temp_078.txt.gz
Temp
64 63 64 64 63 63 62 63 63 63 63 62 63 63 63 63 61 58 50 57 61 68 69 63 61 59 61 55 60 54 42 45 46 50 53 64 62 69 68 61 69 62 63 69 71
63 63 63 63 63 63 62 62 62 62 62 62 62 62 62 62 55 50 61 66 67 68 62 56 54 54 52 53 56 51 40 45 55 57 56 59 59 58 60 61 61 61 66 68 69
63 62 62 62 62 62 62 62 62 62 62 62 62 61 61 58 46 48 66 66 67 68 64 61 59 54 48 52 51 50 44 53 57 62 62 55 54 61 58 55 63 61 64 65 65
62 62 62 62 62 62 61 61 61 61 61 61 61 61 60 53 33 56 63 65 65 64 61 57 54 48 45 47 50 44 51 54 57 60 57 54 60 54 59 61 67 67 66 64 64
61 62 61 61 61 61 61 61 61 60 60 60 59 60 54 42 42 58 63 63 61 61 57 54 49 50 43 48 47 45 48 55 58 59 59 58 56 57 59 69 69 69 64 63 63
61 61 60 60 60 60 60 61 61 60 58 59 58 58 48 36 57 59 60 59 56 53 56 55 51 55 50 46 45 52 52 52 56 56 59 57 57 60 64 67 66 66 62 61 63
61 60 60 60 60 60 60 60 60 59 57 59 58 56 46 43 57 57 59 57 55 53 53 57 57 53 52 45 53 49 45 49 52 53 54 58 53 54 63 64 64 63 60 63 63
60 60 60 59 59 59 59 59 58 58 56 58 59 51 40 58 57 58 57 55 54 53 53 58 56 52 49 53 48 44 45 37 49 52 56 57 46 56 62 61 61 62 59 59 62
59 59 59 59 59 58 58 58 58 58 58 59 50 46 39 61 52 56 56 52 53 50 53 60 54 50 49 42 38 41 32 37 42 52 53 51 46 57 62 59 59 60 59 59 61
59 58 58 58 58 58 58 57 58 56 56 56 53 40 47 48 55 55 56 55 50 49 46 48 46 44 44 40 31 35 39 36 36 46 47 46 46 53 59 57 56 57 56 57 60
58 58 58 58 58 58 51 47 42 40 45 41 43 42 49 55 57 52 54 49 48 44 34 43 38 35 39 44 45 41 38 40 39 47 44 43 46 52 57 54 55 56 56 57 61
57 57 57 58 58 57 47 41 43 43 35 46 47 47 51 53 45 49 54 43 40 32 34 37 34 42 47 47 45 44 38 35 41 48 44 44 45 50 54 53 53 56 57 59 58
57 57 57 57 57 49 42 42 48 46 33 42 46 46 47 50 43 44 50 43 36 33 33 32 39 47 44 43 41 38 37 36 38 43 43 40 41 45 50 54 55 57 58 59 58
57 57 57 57 48 45 42 48 47 47 25 34 40 43 47 48 40 49 50 43 37 33 35 33 42 41 38 41 44 35 44 44 42 36 30 41 29 39 48 49 53 53 55 55 56
57 57 57 56 44 41 47 49 47 42 15 35 38 51 47 41 39 41 48 44 36 35 35 33 37 37 36 42 45 39 46 44 41 36 37 35 31 35 42 44 50 56 57 54 54
56 56 56 49 48 47 49 47 42 21 18 31 37 35 37 39 38 42 41 44 43 38 38 38 46 43 42 43 45 44 42 42 41 38 29 33 32 30 38 45 49 55 55 52 51
56 56 53 52 42 51 48 39 22 18 37 30 33 34 32 33 34 37 35 32 31 25 29 34 38 42 45 38 43 40 36 27 27 28 24 34 32 38 41 46 49 51 50 50 51
56 56 52 53 49 49 46 28 21 29 32 40 35 35 33 36 34 36 33 31 35 34 33 30 28 37 42 41 38 37 34 23 19 22 24 34 28 36 42 46 49 51 51 51 50
54 46 46 49 50 45 37 24 29 32 37 33 35 32 34 36 35 34 32 33 38 36 32 29 30 40 43 43 42 37 34 37 27 27 20 28 33 42 41 40 44 46 48 48 49
43 43 45 51 49 42 32 29 31 39 40 36 31 37 33 36 35 34 35 42 41 41 44 36 30 39 40 44 41 41 42 32 32 25 20 25 27 32 35 38 43 45 44 46 50
42 40 48 50 46 37 28 27 34 43 42 36 34 35 38 39 37 35 37 43 47 46 45 39 35 34 39 36 36 36 35 36 34 27 21 18 27 39 41 43 43 43 46 46 49
39 33 48 48 35 34 30 41 45 44 43 42 39 38 39 39 36 35 36 42 49 46 41 42 38 30 35 41 46 41 38 36 23 26 22 22 28 43 42 44 45 45 47 47 49
37 37 47 45 29 35 40 42 46 44 43 43 42 44 44 39 35 37 40 48 49 46 44 45 33 28 30 35 40 35 40 41 35 28 21 21 29 44 42 43 47 46 47 46 47
36 30 37 39 39 35 36 39 43 49 44 46 44 45 42 40 41 37 39 46 48 47 50 47 35 29 25 30 33 29 34 37 31 20 25 25 33 40 42 44 44 45 47 46 46
35 33 35 27 33 36 38 40 42 41 47 46 45 41 38 36 37 35 39 41 46 49 45 43 30 33 35 37 36 34 34 33 29 33 27 34 36 42 46 44 46 46 46 46 46
31 29 35 32 36 34 39 38 40 43 42 40 39 41 40 35 36 34 38 36 37 42 40 40 30 31 26 36 35 32 35 35 35 37 35 36 36 49 49 48 46 45 46 46 46
35 39 38 33 32 31 34 38 40 44 45 47 44 39 39 40 42 43 42 42 40 39 38 37 31 27 22 32 32 27 33 34 34 37 39 33 40 44 47 48 48 46 47 47 46

GFSSW_sfc_temp_081.txt.gz
Temp
64 63 63 63 63 63 63 63 63 63 63 63 63 62 63 63 62 56 49 57 60 68 68 61 60 57 58 53 57 53 42 44 44 46 50 62 61 67 62 58 61 60 61 65 68
63 63 63 63 63 63 63 63 62 62 62 62 62 62 62 61 53 49 60 66 65 66 61 56 53 54 49 51 53 48 44 43 52 52 52 57 60 63 58 55 58 60 64 65 68
62 62 63 62 62 62 62 62 61 61 61 61 61 61 60 57 45 45 64 66 67 63 62 61 58 53 46 49 49 49 43 51 54 55 56 55 55 60 57 52 58 58 61 63 65
62 62 62 62 62 62 62 61 61 61 60 60 60 59 60 52 32 53 64 64 65 63 58 56 54 48 43 44 49 43 49 52 56 56 54 52 57 54 57 57 62 63 64 64 62
61 62 61 61 61 61 61 61 61 61 61 59 58 59 53 41 42 58 63 63 61 57 53 52 49 49 42 45 49 48 52 53 55 55 54 57 53 55 55 62 63 65 65 63 61
61 61 60 60 60 60 60 60 60 60 59 56 57 59 48 35 54 57 57 57 57 53 52 54 51 53 47 46 48 53 53 50 53 53 54 53 53 56 58 58 60 61 62 61 61
61 60 60 60 60 60 60 60 60 59 58 55 58 56 45 42 56 56 58 55 55 52 46 56 56 52 50 45 53 51 45 49 48 50 51 54 51 52 60 57 58 59 60 61 61
60 59 59 59 59 59 59 59 59 58 58 57 60 51 40 56 54 57 54 51 54 54 49 52 56 52 50 50 47 46 46 39 46 49 51 53 43 54 60 55 54 58 60 61 61
59 59 59 59 59 59 59 58 59 58 59 59 49 44 39 59 51 54 54 49 50 50 50 55 54 49 49 42 37 40 31 37 41 49 49 47 42 56 61 58 56 58 63 61 62
59 58 58 58 58 58 57 58 58 56 55 55 52 39 47 46 52 53 53 53 48 46 42 46 46 42 43 40 31 33 32 33 35 43 44 43 42 54 59 59 60 61 61 59 60
58 58 58 58 58 58 50 45 41 40 43 39 40 42 47 53 58 50 52 50 49 43 33 43 38 35 38 44 43 40 38 35 38 44 44 41 42 51 55 56 56 57 60 59 60
58 57 57 58 57 56 46 39 41 41 34 45 45 46 50 52 44 48 52 43 42 33 34 35 34 40 44 46 44 43 37 34 39 45 43 40 42 50 54 54 56 57 58 57 56
57 57 57 57 56 48 42 41 46 45 32 41 46 44 45 48 42 44 48 43 38 33 32 33 37 42 41 42 40 38 39 35 37 40 40 38 38 45 52 51 53 56 57 56 56
57 57 57 56 48 44 41 47 46 45 21 34 39 42 46 47 38 48 48 43 38 33 34 34 42 39 37 40 43 36 44 42 41 35 29 39 26 37 49 50 51 54 53 54 53
57 57 56 55 44 41 45 48 46 40 10 35 37 49 46 39 38 40 47 43 34 34 33 34 36 38 34 40 45 40 46 43 41 35 30 30 29 33 40 43 50 53 56 54 54
56 56 55 49 46 46 47 46 42 21 15 31 37 36 37 37 37 41 40 44 41 37 36 36 42 43 41 43 45 45 43 41 40 35 28 31 31 30 36 43 44 51 52 54 53
56 56 52 50 42 48 48 38 22 20 37 31 33 33 32 32 31 36 34 31 31 23 28 33 38 41 44 35 43 42 36 28 27 28 25 31 30 37 40 44 46 49 50 50 50
56 55 53 52 48 49 44 28 22 29 31 37 36 35 31 34 34 35 32 25 33 34 29 29 27 37 40 39 38 36 34 23 19 24 25 31 26 35 42 46 47 48 50 48 47
54 45 45 47 49 49 35 24 31 32 37 33 35 31 33 35 34 32 30 33 35 36 31 30 30 39 41 43 43 36 30 36 26 24 19 26 31 40 41 42 42 43 45 45 46
42 42 43 49 47 42 31 31 30 38 38 37 31 34 31 35 33 33 32 39 37 39 42 35 30 39 40 44 42 38 40 30 32 15 18 24 25 31 37 40 40 41 43 44 46
42 39 46 48 45 35 26 27 33 41 41 36 33 33 37 34 35 34 34 40 44 41 42 40 35 34 40 36 35 36 35 34 31 27 20 18 27 36 38 41 40 41 42 44 45
38 32 46 46 33 32 27 38 44 42 41 40 38 36 35 36 33 36 34 37 46 44 37 42 36 30 34 40 43 39 37 35 22 26 26 18 27 39 39 41 42 41 44 44 46
35 36 45 44 26 27 37 41 43 42 42 41 40 41 41 36 33 37 41 47 47 45 41 42 33 28 30 36 39 36 40 41 35 27 19 20 28 42 38 40 43 43 44 45 45
35 30 36 37 36 32 33 34 39 45 42 44 42 42 39 36 38 35 38 45 48 45 50 46 35 29 25 30 35 32 35 38 35 28 25 23 32 39 39 40 43 46 46 44 46
33 31 37 26 31 33 35 37 37 38 44 44 40 39 36 32 34 34 38 41 45 49 43 41 30 31 34 36 35 33 33 34 33 34 27 32 33 41 41 41 43 46 46 45 44
31 28 32 30 33 33 36 34 37 40 39 38 37 40 38 34 35 32 35 35 37 40 40 39 28 31 27 36 35 33 34 35 35 36 34 35 35 44 47 44 44 43 43 45 46
33 36 35 31 29 30 31 36 38 40 41 44 43 38 37 39 41 41 40 40 39 36 37 36 31 27 21 32 32 26 32 33 35 35 38 33 41 43 42 47 45 43 45 46 46

GFSSW_sfc_temp_084.txt.gz
Temp
63 64 63 63 63 63 63 63 63 62 62 62 63 63 62 61 61 55 50 57 60 67 66 62 59 56 57 55 56 53 44 45 43 44 48 61 60 63 62 60 58 58 58 63 66
63 63 63 63 63 63 63 63 62 61 61 62 62 61 61 60 52 47 58 65 65 66 59 55 53 52 49 49 53 50 45 42 51 50 50 56 59 62 60 58 55 57 64 68 68
62 62 62 62 62 62 62 62 62 61 61 60 59 59 59 56 44 44 63 66 67 66 59 58 56 52 45 46 48 50 41 49 51 55 56 54 53 61 55 53 57 56 58 64 64
62 62 62 61 62 61 62 61 62 62 62 60 58 59 59 51 32 51 62 64 65 63 56 55 52 47 43 42 47 45 52 51 54 55 54 53 54 52 56 62 60 59 59 61 62
61 61 61 61 61 61 61 61 61 61 61 58 58 59 53 40 41 56 63 61 61 57 52 50 48 47 42 43 44 48 50 51 53 54 52 55 51 53 54 62 61 62 62 60 62
61 60 60 60 60 60 60 60 61 60 59 57 56 57 47 34 52 55 55 56 56 54 50 51 50 50 47 45 44 48 49 49 52 54 54 52 50 53 55 60 61 60 60 59 61
60 60 60 59 60 60 60 60 60 59 58 58 57 56 44 41 54 54 56 53 55 54 48 52 52 51 49 45 51 47 44 48 47 52 49 52 46 47 53 56 60 60 57 58 61
59 60 59 59 59 59 59 59 59 58 58 58 59 49 38 55 53 57 53 50 54 54 51 50 51 49 48 50 46 43 43 36 48 48 50 50 40 50 52 52 55 62 59 57 60
59 59 59 58 59 58 58 58 59 59 59 58 48 43 38 58 50 53 51 47 50 51 50 52 49 47 48 42 37 42 35 37 40 49 46 46 39 51 53 52 51 61 58 57 62
58 58 58 58 58 58 57 58 58 56 54 55 51 38 46 44 50 51 51 50 47 47 44 43 45 41 41 39 29 33 34 41 38 43 47 40 39 47 51 52 50 54 54 57 61
58 57 58 58 58 57 50 44 40 39 43 38 40 40 47 53 57 49 50 50 46 43 32 36 37 33 38 41 40 39 36 36 41 45 45 38 42 45 49 50 52 51 52 55 61
57 57 57 58 57 54 45 38 39 41 35 44 44 45 48 50 43 47 51 40 40 33 34 33 32 41 45 42 42 41 38 35 39 43 42 39 40 47 49 50 55 55 55 59 63
57 57 57 57 56 48 41 40 45 43 33 40 44 43 44 47 41 42 46 40 37 33 32 29 38 45 39 38 38 39 38 34 36 40 39 37 36 41 46 49 50 55 61 63 64
57 57 57 56 47 43 40 46 45 44 21 34 39 41 45 45 37 46 46 41 39 33 32 33 42 40 36 34 40 35 45 43 39 35 31 36 28 34 43 46 47 51 53 58 61
56 57 56 55 43 40 45 46 44 40 12 36 37 49 45 38 37 39 46 42 35 35 32 30 36 35 33 35 43 38 46 42 39 33 31 29 29 33 37 40 49 52 52 54 56
56 57 55 48 44 45 46 45 41 21 13 30 37 36 35 36 36 40 39 43 42 37 36 35 41 42 38 38 45 44 42 40 37 33 23 30 30 28 33 41 42 48 53 55 56
56 56 52 49 42 47 45 37 22 15 34 31 33 34 30 31 32 35 33 29 27 23 25 33 36 41 43 34 42 42 34 29 27 27 24 30 28 35 37 42 45 47 49 51 54
55 55 53 51 50 50 41 27 15 28 22 37 36 34 29 34 33 34 33 25 32 32 25 26 26 37 41 36 36 38 34 22 17 22 23 30 25 35 41 44 46 48 49 50 49
53 44 44 46 49 49 35 21 24 24 36 33 35 29 32 35 34 33 31 26 32 34 30 28 30 39 41 43 41 36 32 35 25 22 20 26 30 39 39 42 43 43 44 45 45
42 41 42 47 50 44 28 29 27 37 36 38 30 33 26 33 32 32 31 37 36 36 41 35 30 38 38 43 41 38 40 28 29 16 18 23 22 31 37 40 40 41 40 42 43
41 39 44 46 48 34 23 25 32 40 40 35 31 31 33 32 34 32 34 38 41 38 40 37 35 34 36 34 34 37 31 34 31 25 19 18 27 35 37 40 40 40 41 41 43
37 31 43 44 30 29 25 36 43 40 40 38 36 35 33 34 31 34 34 38 44 44 35 40 36 30 33 39 42 38 35 34 24 24 25 18 26 39 37 39 40 40 42 42 44
34 34 43 41 25 25 34 38 41 40 41 40 38 38 39 35 31 34 38 47 46 42 39 41 33 28 30 34 38 35 36 36 31 27 26 20 27 42 37 40 38 40 41 42 43
33 28 34 36 34 31 32 32 36 44 41 43 42 43 38 34 37 33 35 42 47 46 49 47 35 30 26 30 34 31 33 36 30 19 25 23 29 38 41 41 39 40 42 41 42
31 31 36 24 27 30 32 34 35 35 41 43 41 39 36 32 34 33 39 40 45 48 44 41 30 31 33 35 33 32 32 33 29 32 27 28 32 39 42 41 40 42 43 43 42
30 27 30 27 30 29 32 32 32 36 37 35 37 38 40 35 33 31 36 37 38 43 40 38 31 32 27 34 33 32 33 34 35 36 32 34 33 41 43 38 40 41 42 44 44
32 34 32 31 27 28 27 30 32 35 38 42 39 34 35 39 42 39 38 39 38 37 37 35 30 28 23 31 31 27 32 33 34 35 36 30 40 43 40 43 43 42 43 46 45

GFSSW_sfc_temp_087.txt.gz
Temp
63 63 63 63 63 63 63 63 63 62 62 62 62 61 62 60 60 56 49 58 61 67 66 62 61 59 60 56 58 55 46 46 49 49 54 62 62 64 66 64 65 66 65 67 70
63 62 63 63 62 63 63 62 62 62 62 62 62 60 60 60 53 48 58 65 66 65 58 55 52 55 52 53 55 51 47 49 54 54 56 60 61 62 62 61 61 63 66 70 68
62 62 62 62 62 62 62 62 62 62 62 62 61 58 59 57 46 47 63 65 66 66 59 57 56 52 49 50 51 51 46 53 55 57 60 58 59 64 61 58 64 63 64 67 67
61 61 62 62 61 62 62 62 62 62 61 61 59 59 59 53 34 53 62 64 65 64 57 52 51 48 46 45 50 46 52 54 55 57 57 56 59 59 60 63 66 65 66 66 64
61 61 61 61 61 61 61 61 61 62 61 59 59 60 53 43 43 56 62 61 61 58 53 49 47 47 44 46 48 46 52 54 57 56 56 57 56 59 59 62 64 64 64 64 64
60 60 60 60 60 60 60 60 61 60 59 58 58 59 48 37 54 55 55 57 57 54 51 51 49 52 47 46 47 50 52 53 54 55 55 54 54 57 60 63 63 65 64 63 65
60 60 60 60 60 60 60 60 60 59 58 59 59 55 45 43 56 55 57 54 55 55 49 51 52 47 49 45 53 51 46 48 50 53 53 56 49 51 59 59 61 62 65 64 64
60 59 59 59 59 59 59 59 59 58 59 59 59 50 40 55 54 55 54 51 55 54 52 51 51 47 45 50 50 46 46 39 49 51 54 54 45 54 59 58 60 61 63 64 64
59 59 59 59 59 58 58 58 59 59 59 58 49 44 40 58 50 53 52 49 51 51 51 53 50 46 47 40 39 42 36 38 43 50 50 50 45 54 57 55 58 59 63 63 63
58 58 58 58 58 58 57 58 57 55 54 54 51 40 47 45 50 51 52 51 48 47 45 45 43 41 40 34 30 35 37 39 40 46 49 45 46 51 54 54 57 56 61 62 62
58 58 58 58 58 56 49 45 41 39 43 39 40 40 47 53 54 49 51 49 47 43 32 36 33 33 36 38 41 43 39 39 43 46 47 46 45 50 52 52 53 54 57 59 62
58 57 58 57 57 54 45 39 39 41 34 44 44 44 48 49 43 47 51 41 40 33 34 32 30 41 43 42 40 42 38 38 42 46 46 44 45 49 51 51 53 55 56 59 62
57 57 57 57 56 47 41 40 45 44 33 40 44 43 44 46 41 42 46 41 37 33 31 29 34 46 41 39 35 39 38 36 39 43 44 42 41 45 49 52 54 56 58 61 64
57 57 57 56 47 42 40 45 45 44 20 33 38 41 45 45 38 47 47 42 38 33 33 33 39 42 35 36 37 34 45 43 40 39 35 42 32 39 46 47 51 56 56 58 62
56 57 56 55 43 40 44 45 44 40 11 35 38 49 45 38 38 40 46 42 35 35 34 31 36 38 34 35 36 36 47 44 40 36 36 36 35 39 41 45 49 51 53 57 60
56 56 55 47 44 43 45 44 41 22 12 31 38 36 35 37 37 40 40 43 43 37 35 36 40 41 39 39 38 38 43 42 39 35 28 33 34 35 38 44 49 55 55 57 59
56 56 51 49 41 48 44 37 22 15 33 28 33 34 31 31 33 34 33 27 26 20 19 33 36 42 42 35 38 35 38 29 27 27 25 33 32 39 43 45 48 51 54 55 58
55 55 53 50 50 49 40 27 14 27 21 38 37 35 30 32 32 33 33 25 31 30 22 25 24 37 40 35 33 39 36 27 20 23 26 32 29 39 46 48 50 50 52 52 53
53 43 43 45 51 49 36 20 22 22 34 33 36 31 31 34 34 33 30 27 30 33 28 28 29 40 42 40 37 36 30 37 26 26 27 31 35 43 44 45 46 47 48 49 50
41 41 41 46 51 44 27 28 27 36 35 38 30 33 30 33 31 31 31 34 34 37 41 35 28 38 39 43 41 38 41 31 28 19 22 28 30 37 42 44 46 46 47 48 48
40 38 42 48 49 35 22 23 31 40 41 36 32 31 33 32 33 31 33 38 39 38 41 37 35 33 37 34 35 36 34 33 33 29 25 24 32 41 42 44 43 43 45 46 46
37 30 42 48 29 28 24 34 42 39 40 40 38 37 34 34 32 33 32 35 44 42 34 39 36 30 33 39 42 39 36 36 27 26 23 24 33 45 43 43 42 43 45 45 46
33 33 41 43 24 26 33 35 39 39 39 38 37 40 41 38 31 35 36 45 45 42 38 40 34 29 30 35 39 35 37 35 32 30 26 26 32 44 42 45 44 44 44 45 45
33 26 33 34 32 28 29 31 33 42 38 39 40 42 38 35 39 34 33 43 44 44 47 46 36 31 24 31 34 31 34 35 31 25 27 28 34 42 44 44 45 45 45 45 45
30 30 32 23 27 28 33 35 31 32 37 41 37 34 31 31 34 34 35 35 42 46 44 42 31 33 34 36 35 34 33 33 27 32 28 33 33 43 43 44 44 45 44 44 44
31 27 28 27 28 27 30 30 30 32 32 32 32 34 33 31 33 33 36 34 35 42 40 40 32 33 29 35 34 33 34 34 34 35 34 34 33 42 45 45 44 44 43 43 45
31 33 31 31 27 27 27 29 31 32 35 37 35 33 33 35 37 39 40 41 41 39 38 36 33 30 25 32 33 28 32 33 34 35 37 32 41 44 43 44 46 44 44 45 46

GFSSW_sfc_temp_090.txt.gz
Temp
64 64 63 63 63 63 63 63 63 63 63 63 63 63 61 61 60 62 56 64 66 67 66 64 64 65 66 62 63 64 52 52 59 61 65 73 69 72 75 73 73 71 72 74 77
63 63 63 62 63 63 62 63 63 62 63 63 63 62 60 61 59 56 64 65 66 68 62 58 56 59 59 59 59 57 52 57 67 68 67 71 69 72 70 70 69 70 73 75 76
62 62 62 62 62 62 63 63 62 63 63 62 61 60 60 62 53 55 63 65 67 68 62 61 56 55 56 59 57 57 54 63 65 66 68 68 68 73 70 67 73 71 72 73 69
62 62 61 61 62 62 62 62 62 62 62 61 60 59 60 58 40 58 63 64 65 67 56 56 55 49 49 51 59 52 60 62 64 64 64 65 71 68 71 73 77 79 76 75 73
61 61 61 61 61 61 61 61 62 61 61 59 59 60 58 50 51 64 62 63 65 62 54 49 51 50 44 52 55 52 58 61 64 62 64 68 65 67 68 74 76 75 73 75 76
61 61 60 60 60 60 60 60 61 60 59 59 59 59 54 44 62 63 61 61 61 59 55 51 49 52 49 49 52 58 58 60 62 62 62 62 65 66 70 72 72 72 73 74 75
61 60 60 60 60 60 60 60 60 59 59 59 60 60 51 49 62 63 61 59 60 58 55 55 53 49 50 45 57 57 51 55 58 62 60 63 58 59 71 70 70 72 74 73 75
60 60 60 60 60 59 59 59 59 59 59 59 59 57 48 61 64 60 60 58 60 59 56 56 54 50 48 52 52 50 52 45 56 59 62 61 52 64 70 69 68 71 73 74 75
60 59 59 59 59 58 58 58 59 60 59 59 56 53 46 61 54 60 60 54 56 55 55 56 52 46 47 37 40 46 42 46 51 59 58 58 54 64 69 67 68 71 73 73 76
59 59 59 59 58 58 57 58 58 58 59 59 57 47 53 49 55 56 59 56 52 50 46 45 44 39 41 35 32 40 44 48 48 54 56 54 56 60 65 66 67 70 72 72 74
58 58 58 58 58 56 56 57 51 48 51 47 47 46 50 56 59 54 56 53 52 47 35 37 36 33 40 41 40 51 48 47 53 55 53 54 55 59 63 64 66 69 69 70 74
58 58 58 58 57 55 55 50 47 47 43 49 49 49 53 54 47 51 56 46 45 37 39 34 33 43 48 43 40 43 47 46 52 52 53 54 53 59 62 62 65 67 70 71 71
57 57 58 57 56 55 51 48 52 51 43 45 49 48 49 51 46 47 51 48 43 38 36 32 42 47 44 38 34 43 47 48 46 50 52 52 48 53 60 62 65 67 69 72 71
57 57 57 56 53 52 49 52 53 52 34 38 41 45 48 49 43 51 52 47 42 34 35 36 41 43 40 37 36 37 52 50 48 46 38 50 40 52 57 57 61 64 67 68 71
57 57 56 55 53 50 50 53 53 50 25 38 40 52 49 43 43 44 51 47 38 39 35 34 38 39 35 39 38 37 49 49 48 46 45 43 41 52 53 54 58 63 66 69 71
56 57 55 54 54 52 54 53 50 33 26 33 40 37 38 41 41 44 45 48 46 37 38 38 42 43 44 42 41 39 44 46 47 44 32 46 43 48 51 55 59 64 67 68 70
56 56 55 56 51 53 53 49 32 30 37 34 35 35 33 33 36 39 38 35 33 28 29 37 37 43 46 36 39 35 38 30 29 30 34 44 41 49 56 56 61 64 67 69 70
55 56 54 56 54 52 50 38 29 34 33 42 39 36 30 34 34 36 35 32 37 36 30 31 27 39 43 40 34 34 35 35 27 31 37 40 37 47 59 63 64 62 64 64 68
54 54 54 54 53 51 42 31 34 33 40 35 38 32 33 34 34 34 32 34 39 39 31 33 30 43 44 40 39 36 34 44 36 37 36 41 45 53 57 57 57 59 61 61 64
53 52 50 52 53 47 38 35 37 42 41 40 32 36 32 33 31 31 32 42 38 44 44 36 29 40 39 42 38 35 42 36 36 28 30 36 40 48 51 54 56 58 60 63 63
52 50 48 51 51 42 34 36 39 47 44 37 36 34 35 34 34 32 33 40 45 42 45 37 36 33 37 35 36 35 36 40 42 38 36 33 41 52 51 54 54 56 57 58 60
50 42 48 50 40 37 38 40 43 45 46 43 40 35 35 37 35 34 32 36 49 47 38 43 36 31 34 43 48 39 43 44 37 31 34 37 42 53 55 54 55 57 56 56 57
47 45 49 46 35 36 41 39 42 42 42 40 38 40 37 35 35 38 34 42 49 46 43 45 37 30 31 36 40 35 40 43 41 39 33 38 43 53 52 53 57 56 57 55 55
48 40 45 48 44 38 33 37 37 45 42 43 36 39 36 36 43 38 33 41 46 47 46 47 40 35 34 38 41 33 40 43 37 34 37 40 44 51 52 54 57 57 57 56 56
44 38 38 38 40 38 37 39 35 34 40 43 40 38 31 31 35 36 34 38 41 43 43 45 36 38 40 41 41 39 39 39 34 40 36 43 42 52 57 56 57 56 55 55 54
44 40 40 40 37 38 38 37 34 35 35 36 34 37 35 31 32 30 33 34 34 41 38 43 36 39 34 40 40 38 40 41 42 43 42 42 42 52 56 59 56 58 54 53 54
41 43 44 37 38 39 36 35 34 36 39 40 38 36 36 35 39 40 40 40 43 39 41 41 40 37 32 38 39 35 40 40 41 43 44 38 47 53 52 52 55 58 55 55 56

GFSSW_sfc_temp_093.txt.gz
Temp
63 63 63 63 63 63 63 63 63 63 63 63 63 63 62 62 61 63 59 66 66 68 67 68 66 67 69 65 66 65 46 51 60 64 69 76 73 79 82 76 77 75 77 79 82
63 63 63 63 63 63 63 63 63 63 63 63 63 62 61 61 62 59 66 66 66 67 63 61 60 63 58 61 60 56 48 55 68 72 70 72 73 74 73 74 73 73 76 79 80
63 62 62 62 62 62 62 62 62 62 62 62 62 61 61 63 56 59 64 65 66 67 67 63 61 58 54 61 59 59 53 63 67 72 65 68 70 75 72 69 75 73 73 74 74
62 62 62 62 62 62 62 62 62 62 61 61 60 59 60 62 41 62 64 64 65 66 63 60 58 52 50 50 63 54 62 63 66 59 64 65 67 72 74 75 81 81 78 75 74
61 62 61 61 61 61 61 61 62 61 60 59 60 60 59 53 55 67 64 65 66 64 58 54 53 51 47 54 58 57 61 65 66 61 62 66 66 69 72 78 81 82 78 77 75
61 61 61 60 61 61 60 60 60 60 59 59 59 60 58 48 65 67 65 64 65 62 57 52 52 56 50 49 51 61 60 61 65 59 62 63 66 69 71 79 76 77 76 78 77
60 60 60 60 60 60 60 60 60 59 59 60 60 62 55 53 66 67 64 62 63 62 55 58 52 50 54 46 57 55 51 57 60 64 59 65 59 63 73 75 73 75 77 77 78
60 59 60 60 60 59 59 59 59 59 59 60 60 61 52 64 68 63 64 62 63 63 59 60 53 48 51 53 51 48 50 46 56 61 63 62 52 65 73 73 70 74 76 76 77
60 59 59 59 59 59 58 58 59 59 60 59 58 56 50 61 58 63 64 58 59 59 59 59 54 43 44 40 38 42 38 47 50 59 60 58 54 68 72 71 69 72 75 77 78
59 58 58 58 59 58 57 58 59 58 60 63 61 50 55 52 59 60 63 60 55 54 49 48 46 39 39 36 32 38 41 49 49 56 58 55 56 66 70 70 69 72 75 76 77
59 58 58 58 58 57 58 59 54 51 55 51 51 51 53 59 62 57 60 56 55 50 38 40 35 33 37 40 47 42 47 49 54 60 56 55 56 63 66 67 68 71 73 75 76
58 57 58 58 57 56 58 54 52 51 46 54 53 52 56 57 49 54 59 48 47 40 42 35 32 45 46 46 40 38 42 48 55 59 55 54 55 62 64 65 68 70 72 74 76
58 57 57 57 56 57 55 53 57 56 45 49 52 51 52 54 49 50 54 51 46 41 39 34 41 49 45 38 35 38 43 47 50 53 55 52 51 56 63 66 68 70 73 75 75
57 57 57 57 52 58 54 56 58 56 35 42 44 48 50 51 44 56 56 50 45 38 36 38 44 44 41 36 39 37 52 51 51 46 40 53 40 53 58 60 64 67 69 71 74
57 57 56 55 56 54 54 58 58 53 26 41 43 56 50 44 46 47 55 49 41 40 38 34 39 42 39 41 43 37 45 50 49 46 46 46 42 52 59 56 60 65 68 71 74
57 56 55 57 59 56 58 57 53 32 27 35 43 39 37 39 44 47 47 51 50 42 41 37 42 44 43 47 46 41 45 43 48 44 32 46 45 49 53 58 62 66 69 71 73
56 56 55 61 52 57 58 52 32 29 41 36 38 36 35 34 37 42 41 38 35 29 31 37 36 42 44 35 38 36 38 30 28 28 34 50 44 51 59 61 65 66 69 72 73
55 56 55 60 57 54 54 39 29 38 36 47 44 37 31 35 34 39 38 34 41 40 36 33 28 37 43 40 35 34 35 32 27 29 36 45 40 50 62 66 65 66 69 72 72
55 58 56 55 55 55 46 33 35 33 44 36 42 32 34 35 34 35 33 37 43 43 33 35 31 41 44 43 42 35 33 45 39 45 39 43 49 56 59 60 61 63 64 65 68
59 57 50 53 55 52 41 37 40 47 45 44 32 40 32 33 31 32 35 45 42 47 48 36 30 42 41 44 41 35 38 36 37 29 30 40 44 46 51 56 60 61 62 65 68
58 54 50 53 54 48 35 38 42 49 48 42 40 37 36 33 34 32 35 43 48 46 49 40 36 33 38 37 34 34 35 40 44 40 36 33 42 56 54 56 57 59 62 64 66
57 46 52 55 44 45 40 43 45 46 50 44 41 37 34 35 36 33 33 39 51 50 41 41 37 31 34 43 49 45 41 46 37 36 39 38 41 58 57 57 59 61 60 61 62
56 50 54 51 37 39 45 43 46 43 43 43 38 39 42 34 34 38 33 44 50 49 42 42 37 30 31 37 40 37 42 44 45 41 36 36 41 58 57 57 60 60 61 60 60
56 42 50 54 51 43 39 40 40 46 43 45 42 44 41 40 40 36 32 42 49 49 46 46 37 33 33 38 42 34 40 46 38 37 42 43 46 51 54 55 60 60 61 61 60
54 44 47 44 45 44 43 42 38 37 43 46 43 41 32 35 40 35 34 36 43 45 44 42 35 41 43 45 44 41 42 43 34 42 38 45 46 54 58 58 60 62 60 59 59
52 45 49 47 44 44 43 41 37 38 39 39 37 40 38 34 32 31 34 35 34 41 38 46 37 42 37 44 43 40 44 44 44 45 45 46 45 57 60 60 60 61 59 57 58
50 50 52 43 44 44 41 39 37 40 42 43 41 41 38 39 43 43 42 41 39 38 41 44 43 39 34 41 42 36 42 43 44 47 46 39 48 56 55 57 57 59 59 58 59

GFSSW_sfc_temp_096.txt.gz
Temp
64 63 63 63 63 63 63 63 63 63 63 64 63 63 63 62 62 60 54 63 64 66 62 65 65 64 64 59 62 61 45 45 51 57 62 74 69 74 76 70 72 70 70 72 74
64 63 63 63 63 63 63 63 63 63 63 63 63 63 62 61 59 57 65 66 67 67 62 58 55 60 54 56 56 52 44 49 60 64 65 66 71 71 68 67 65 66 73 74 73
63 63 63 63 62 62 62 62 62 62 63 62 62 61 61 61 52 56 65 65 66 66 64 62 58 55 51 53 54 53 46 56 61 66 61 61 66 74 67 62 66 64 68 72 70
62 62 62 62 62 62 62 62 62 63 62 61 61 60 60 59 40 60 65 65 66 65 62 59 53 49 47 46 55 49 56 59 62 58 56 57 60 62 66 67 74 71 71 70 69
62 62 61 61 61 62 61 61 62 61 60 60 60 60 57 51 53 67 66 66 65 64 57 54 50 49 44 51 52 51 56 61 62 58 58 62 60 60 60 69 76 74 72 69 69
61 61 61 61 61 61 61 60 61 60 60 60 60 60 53 45 65 67 65 65 64 62 58 54 50 49 49 49 48 53 55 59 61 57 57 57 59 61 63 70 69 73 69 69 70
61 60 60 60 60 60 60 60 60 60 60 60 60 60 53 52 66 67 65 62 63 60 54 58 54 47 47 47 53 50 46 55 54 55 53 57 54 53 62 68 70 70 67 70 70
61 60 60 59 60 60 59 59 59 59 60 60 60 58 48 64 65 64 64 62 63 63 59 59 55 48 44 52 49 42 46 39 50 56 56 53 44 59 65 63 62 68 66 67 69
60 59 59 59 59 59 58 59 59 59 60 60 56 54 47 61 58 63 64 58 60 60 59 60 52 43 42 40 36 38 34 38 46 57 57 52 47 60 67 66 63 63 65 67 68
60 59 59 59 58 58 58 58 60 58 59 62 60 48 53 52 59 61 63 60 55 55 51 49 44 37 35 35 28 32 32 41 44 52 53 51 51 60 65 63 60 63 63 66 69
59 58 58 58 58 57 56 55 49 47 53 49 50 50 53 59 62 57 61 57 54 50 37 39 34 31 35 37 40 40 41 41 48 55 51 49 51 56 62 64 60 61 63 64 67
59 58 58 58 58 57 55 52 50 50 40 55 54 53 56 58 48 54 60 48 46 37 38 34 29 41 43 40 38 36 37 41 49 54 51 49 49 57 59 59 59 62 63 64 65
58 57 57 57 57 54 54 52 57 56 41 49 53 51 51 54 47 50 54 50 43 39 38 32 39 45 42 38 35 36 35 41 39 50 51 50 45 52 59 59 60 63 64 66 65
58 57 57 57 51 56 52 56 57 56 33 40 44 48 49 51 43 56 56 49 44 37 37 35 44 41 41 37 38 34 44 42 46 42 33 46 30 42 49 56 58 57 59 60 63
57 57 57 55 54 52 53 58 57 50 25 41 43 56 49 41 46 46 56 48 38 39 38 32 37 40 35 37 42 37 42 43 42 42 42 41 35 40 52 51 55 58 59 61 63
56 56 56 55 56 56 58 57 50 31 23 34 44 41 37 37 41 47 46 50 48 40 40 35 43 42 43 44 44 42 42 43 41 38 28 37 38 39 46 52 54 60 61 62 62
56 56 55 61 51 57 57 47 31 27 42 36 39 38 34 34 36 41 40 36 31 27 29 35 37 42 44 35 39 36 35 28 27 27 28 41 37 41 52 58 58 60 60 63 62
55 56 55 59 57 55 51 38 27 35 33 46 44 38 32 34 33 39 37 29 38 37 31 29 24 37 41 38 34 34 34 28 20 21 28 42 31 40 53 56 58 58 59 62 62
55 54 53 54 56 54 43 31 31 32 42 37 40 31 34 34 34 34 32 33 40 39 30 31 29 41 42 42 40 34 31 37 30 36 28 35 38 47 52 52 53 53 58 55 56
53 53 49 55 55 49 40 36 36 45 44 44 31 40 32 33 31 31 32 42 42 45 46 35 28 40 41 44 40 35 37 31 32 24 25 32 33 39 46 48 52 51 52 53 55
50 48 51 55 53 45 33 35 40 48 48 39 37 35 36 33 34 30 35 43 47 45 45 41 35 32 39 36 33 33 32 35 37 33 25 24 31 44 46 51 51 52 54 56 56
51 42 52 53 40 41 35 42 45 45 48 45 40 36 35 34 34 33 33 40 50 48 40 39 35 28 31 42 47 43 38 39 31 32 31 30 31 49 49 52 53 53 55 53 56
49 46 51 49 34 36 43 44 46 42 42 42 39 42 43 35 33 35 33 44 48 47 39 40 35 29 30 35 40 34 40 42 41 35 32 29 32 51 48 50 53 51 52 53 53
49 38 44 46 46 40 37 39 39 45 44 45 43 44 38 39 42 34 33 42 48 47 47 45 36 32 29 34 37 30 37 42 35 31 35 32 38 45 48 49 51 52 52 52 52
49 42 45 38 40 42 42 42 38 36 43 45 42 40 33 33 38 35 35 38 44 46 44 42 33 35 41 43 41 38 37 40 34 38 32 39 41 47 48 46 50 51 53 53 52
45 40 43 43 43 42 41 38 37 37 39 39 37 39 38 33 33 31 34 35 35 41 39 41 34 39 32 43 42 36 42 42 41 42 41 41 39 48 51 52 51 48 53 52 52
47 48 46 42 41 38 37 38 38 40 42 43 41 38 38 39 41 42 42 41 39 38 39 41 36 33 30 38 39 31 39 40 41 42 42 36 43 47 48 51 49 50 52 53 53

GFSSW_sfc_temp_099.txt.gz
Temp
64 64 64 64 63 63 63 63 63 63 63 63 63 63 63 63 62 58 50 58 60 67 65 58 58 61 60 53 58 55 44 43 49 50 56 65 65 69 70 66 68 67 64 69 72
63 64 63 63 63 62 63 63 63 62 63 63 63 62 62 61 55 52 62 68 68 67 60 53 52 55 50 51 51 49 43 44 53 55 54 58 64 68 66 61 62 63 67 71 72
63 63 63 63 63 63 62 62 62 62 63 62 62 61 61 60 50 51 65 66 66 66 60 59 57 53 48 50 49 49 43 52 53 57 57 57 61 63 61 56 62 61 64 68 69
63 62 62 62 62 62 62 62 62 62 61 61 60 60 60 56 37 56 66 66 66 64 59 56 52 46 45 44 49 43 51 53 58 56 56 56 60 59 59 59 66 67 68 68 67
62 62 61 61 62 62 62 61 61 62 60 60 60 60 56 48 50 63 67 66 63 61 56 50 47 46 41 46 48 44 49 55 59 54 52 58 56 55 57 63 66 68 67 66 67
62 61 61 61 61 61 61 61 61 60 60 60 60 60 50 40 59 63 62 62 61 58 55 50 48 49 45 46 45 48 50 52 57 52 53 53 55 56 60 64 63 65 63 64 65
61 61 60 60 60 61 61 61 60 60 60 60 60 58 49 46 60 61 63 58 59 57 51 55 51 48 45 45 52 47 43 51 51 51 50 56 49 51 58 61 60 62 60 62 65
61 61 60 60 60 60 60 60 59 59 60 60 60 53 42 61 57 61 61 61 60 60 56 56 53 47 44 45 48 43 42 37 49 52 53 54 42 54 58 55 56 61 59 61 64
61 60 59 59 59 59 59 59 59 59 59 60 52 47 43 61 55 59 59 55 58 57 56 58 51 43 43 34 36 37 34 35 44 54 49 49 44 53 59 53 54 57 63 61 63
60 59 59 59 59 58 58 59 58 57 57 59 57 42 50 50 57 59 58 57 52 52 49 46 42 38 36 32 28 31 33 38 39 49 48 44 47 54 55 54 53 58 60 59 63
60 59 58 58 58 58 53 48 43 41 46 44 47 46 53 57 60 55 58 54 51 47 32 36 31 26 34 36 35 39 35 35 42 52 47 45 47 51 57 53 52 56 60 59 61
59 58 57 58 58 57 51 44 45 46 36 50 50 51 55 56 47 52 57 44 44 33 35 30 27 38 41 40 36 35 35 36 44 52 49 47 47 54 57 58 60 59 60 58 60
58 58 57 57 57 51 48 47 52 50 35 46 51 49 50 51 45 47 51 46 39 35 34 28 36 43 40 37 33 34 34 37 40 46 48 46 43 47 56 57 58 60 61 61 62
58 57 57 57 50 50 48 53 52 50 31 39 44 47 48 48 41 53 54 46 40 33 34 31 40 40 38 35 36 32 39 41 43 39 33 43 30 42 49 53 55 55 55 58 60
57 57 57 56 48 46 50 53 51 44 12 40 42 54 47 40 41 45 52 45 35 36 35 31 33 37 35 37 40 35 41 42 40 36 35 36 33 39 47 48 50 55 54 57 58
56 56 56 52 52 51 53 51 45 24 10 32 44 40 37 37 38 46 44 46 46 39 38 34 40 40 41 43 42 42 40 40 39 36 26 34 32 35 43 48 47 51 54 58 59
56 56 54 57 47 51 51 41 25 15 37 31 36 36 35 33 36 40 37 31 26 26 28 34 35 42 44 35 39 36 34 28 26 27 23 38 34 38 46 53 54 54 54 56 58
56 56 54 55 51 50 44 31 16 32 26 42 41 36 32 34 33 35 33 24 34 33 28 21 26 37 42 37 32 34 33 25 23 23 24 38 30 38 49 50 57 56 56 58 58
55 50 48 48 51 47 36 20 22 26 39 35 36 26 32 34 34 33 25 27 36 36 30 25 28 41 41 43 39 34 30 37 31 31 25 30 35 45 47 48 51 52 53 53 56
48 47 44 50 49 42 30 28 30 42 41 40 24 37 30 33 30 29 27 37 38 42 44 33 28 39 40 42 39 36 38 31 30 23 22 26 29 34 39 44 50 50 52 53 54
46 41 47 50 46 36 22 25 36 45 44 38 33 34 31 32 33 24 31 39 43 41 45 37 32 32 36 34 30 31 29 34 34 29 24 20 28 41 41 45 45 47 51 53 54
44 35 47 47 32 32 25 37 45 41 44 42 37 34 31 35 34 32 32 34 44 43 35 36 34 27 30 39 43 37 35 38 26 28 25 22 28 46 46 48 49 49 52 51 54
42 37 45 43 24 24 36 41 42 39 39 40 37 39 39 34 32 36 33 41 45 42 36 38 34 25 29 36 40 37 38 40 38 33 27 26 30 48 46 47 50 48 48 50 51
42 32 36 37 37 33 32 34 35 41 40 42 40 39 36 36 38 34 32 39 45 44 45 43 37 30 24 29 34 29 36 38 32 26 31 32 35 40 44 44 45 48 49 49 49
41 35 38 29 32 35 36 37 35 33 40 41 38 35 34 28 35 33 35 37 43 45 41 41 33 34 36 39 38 35 35 38 33 37 32 37 39 42 43 44 45 47 49 49 50
38 35 36 35 39 36 35 32 34 35 36 35 34 38 38 31 31 32 34 34 34 40 36 38 32 35 28 40 39 34 38 38 39 40 38 41 37 43 45 48 50 47 50 50 50
40 41 39 37 35 32 30 33 35 37 39 41 38 34 38 36 36 39 41 41 39 37 39 38 35 30 25 35 38 30 37 39 40 42 42 34 40 44 46 49 49 49 51 51 51

GFSSW_sfc_temp_102.txt.gz
Temp
63 64 64 64 64 63 63 63 63 63 63 63 63 63 63 62 61 56 49 55 59 68 66 58 56 55 55 54 56 52 42 39 45 48 51 63 63 67 70 66 66 64 63 67 70
63 63 63 63 63 63 63 63 63 62 63 63 62 62 62 61 54 50 59 66 67 67 58 53 50 51 47 48 51 47 41 44 53 53 53 57 64 66 63 60 60 62 68 69 70
63 63 63 63 63 63 62 63 62 62 61 62 62 61 61 59 48 48 66 66 67 66 58 56 54 48 45 48 49 46 41 51 53 55 56 55 57 64 62 55 59 61 64 66 67
62 63 62 62 62 62 62 62 62 62 61 60 60 61 60 54 35 55 67 67 67 64 57 53 51 45 42 41 48 43 48 52 52 54 54 53 57 57 60 56 62 67 70 68 65
62 62 62 62 62 62 62 62 61 61 60 60 60 60 54 45 46 61 66 64 61 59 54 49 46 46 39 42 47 42 46 52 55 51 53 55 54 57 59 61 61 64 67 66 66
62 61 61 61 61 61 61 61 61 61 60 60 60 60 49 38 57 60 59 60 58 56 52 49 46 49 45 42 42 46 47 49 54 50 51 49 53 55 58 59 58 61 61 64 67
62 61 60 60 61 60 61 61 60 60 60 60 61 57 47 45 57 58 61 56 57 55 50 52 49 47 44 40 46 47 42 47 50 50 48 51 48 51 57 58 55 56 57 61 63
61 61 60 60 60 60 60 60 59 59 59 60 60 51 41 59 56 58 58 58 60 58 55 53 52 48 43 44 44 42 43 36 47 49 50 48 40 53 55 56 54 54 53 56 61
61 60 59 59 59 59 59 59 59 59 59 60 50 45 40 61 54 57 55 53 55 56 54 57 49 43 42 35 35 38 33 34 42 51 47 46 42 51 56 54 53 53 52 56 58
60 60 59 59 59 59 58 58 58 57 56 58 55 41 48 48 54 57 55 56 50 50 47 43 40 37 36 32 27 30 32 33 37 46 47 43 45 49 53 53 52 51 51 53 57
60 59 58 58 58 58 53 47 44 41 45 42 44 44 50 55 57 53 55 51 49 45 32 35 27 25 34 35 34 34 34 34 40 49 45 44 46 48 51 51 50 51 53 55 58
59 58 58 57 58 58 50 44 44 45 37 47 48 49 53 54 45 50 55 42 42 32 34 28 25 37 41 37 35 34 33 33 40 48 46 44 44 48 49 50 50 51 51 55 60
58 57 57 57 57 51 47 46 51 49 35 44 48 47 47 51 43 45 50 44 38 33 32 26 34 42 40 35 32 34 33 35 36 44 44 44 40 44 49 52 52 51 52 58 61
58 57 57 57 50 49 45 51 51 48 24 36 43 45 48 46 39 51 51 44 38 32 33 29 38 38 38 35 34 30 39 39 39 35 31 41 29 38 42 49 52 52 52 58 61
58 57 57 56 47 44 49 51 49 43 8 39 41 52 47 40 39 43 50 44 35 35 34 27 32 34 34 37 38 34 41 39 39 35 35 36 33 36 45 45 52 56 56 59 58
57 56 56 52 49 49 51 49 44 21 8 29 41 39 38 38 39 43 42 44 45 37 37 33 40 37 39 43 42 41 39 41 39 36 25 34 34 35 41 46 52 54 55 57 57
56 56 53 56 46 50 49 40 22 14 35 29 34 36 34 34 36 38 35 30 27 22 25 32 34 41 44 36 38 36 34 27 26 26 22 34 33 37 45 52 56 55 54 57 58
56 56 54 54 49 48 42 27 13 29 27 40 38 37 32 33 32 34 30 24 34 31 27 26 25 36 41 36 30 33 32 27 22 20 26 38 29 38 47 52 55 57 56 57 56
55 47 47 47 50 46 35 16 21 24 37 32 34 22 32 34 33 34 22 25 33 35 28 26 29 41 41 41 38 33 30 36 28 28 24 28 35 44 47 47 49 52 53 53 54
46 45 44 49 48 40 28 26 29 40 39 38 26 34 25 31 26 30 25 35 36 39 41 33 27 38 39 41 39 35 38 27 27 23 19 25 28 34 39 42 44 47 49 50 52
45 41 45 48 44 33 21 24 35 42 42 36 31 33 30 30 33 22 29 37 40 41 42 34 31 30 36 31 31 33 31 33 35 26 21 19 26 37 39 42 45 44 46 48 48
44 35 45 45 30 29 24 36 44 39 41 39 36 35 30 34 34 32 28 32 42 41 33 36 32 24 28 39 41 37 33 34 22 25 21 19 27 42 40 43 45 45 48 48 50
42 36 44 42 24 22 34 39 40 38 37 38 36 37 40 35 31 37 33 40 42 41 37 38 33 25 25 35 39 33 36 37 34 29 23 18 26 45 42 44 46 45 44 48 49
40 29 34 35 34 31 31 33 33 40 39 40 38 38 36 34 35 31 29 39 43 43 44 43 35 27 21 30 33 28 33 36 29 22 25 24 30 38 42 45 46 45 45 45 47
40 32 36 28 30 32 34 35 33 32 38 39 36 36 33 31 35 32 32 36 42 44 40 41 32 34 36 37 35 33 33 36 28 34 31 34 36 39 40 40 45 45 46 46 46
38 33 34 32 35 33 34 32 32 33 35 33 33 37 34 31 30 32 35 34 34 37 35 36 31 32 28 38 37 32 36 36 36 38 37 38 37 44 44 45 45 43 46 47 48
38 39 37 35 32 30 29 31 33 35 37 39 37 33 33 34 35 39 40 39 39 36 38 38 32 29 24 34 35 27 36 36 38 39 40 34 40 44 45 47 46 46 48 49 49

GFSSW_sfc_temp_105.txt.gz
Temp
64 64 63 64 64 63 63 63 63 63 62 63 63 63 63 62 61 54 47 54 56 66 65 57 54 54 53 48 52 55 41 37 41 46 48 58 58 65 70 64 63 62 62 67 70
63 63 63 63 63 63 63 63 63 62 63 62 63 62 62 61 52 48 58 65 66 66 57 51 48 49 44 45 47 44 39 42 48 52 51 53 57 63 63 62 60 60 64 68 68
63 62 62 63 62 63 63 63 63 62 62 61 61 61 61 57 45 47 65 66 67 66 57 54 51 48 41 44 43 43 39 45 50 54 53 50 52 61 61 60 58 59 63 66 66
63 63 62 62 62 62 62 62 62 61 62 61 60 60 60 52 33 53 66 67 67 62 56 51 47 42 41 39 46 40 46 47 49 54 55 49 53 55 59 56 59 60 66 65 66
62 62 62 61 62 61 62 62 62 61 60 60 61 60 53 43 44 59 65 64 59 58 52 48 43 42 39 40 44 39 46 49 51 54 51 52 50 54 57 57 59 61 65 65 66
62 62 61 61 61 61 61 61 61 60 60 60 60 60 47 37 55 58 57 58 56 54 50 48 44 47 43 40 40 42 47 48 51 51 50 46 49 53 55 59 57 59 63 65 66
62 61 61 60 61 60 61 61 60 60 60 60 60 56 45 44 55 56 59 54 55 53 48 51 48 44 44 40 45 42 39 45 49 49 46 48 43 48 55 58 54 54 55 59 64
61 61 60 60 60 60 60 60 59 59 59 60 60 49 40 57 54 56 55 55 57 56 53 52 50 46 43 44 39 38 41 36 46 49 49 44 35 49 55 56 51 51 51 55 58
61 61 60 59 59 59 59 59 59 59 59 59 49 44 39 60 52 55 54 51 53 54 52 56 48 41 42 34 31 36 28 34 41 49 46 44 37 47 54 56 52 50 49 53 55
60 60 59 59 59 58 58 58 57 56 55 56 53 39 46 46 53 55 54 54 49 48 46 42 38 35 36 32 24 30 32 32 37 44 46 41 41 46 49 53 52 50 49 51 54
60 59 58 58 58 58 52 47 43 40 44 41 42 42 48 53 56 51 54 50 47 43 32 34 26 23 32 35 35 33 33 31 38 46 43 40 43 44 47 48 50 49 49 50 53
59 59 58 58 58 57 49 43 43 44 36 46 46 46 51 52 45 48 53 41 39 30 33 27 23 36 40 38 35 33 32 31 38 46 45 42 41 46 46 48 49 50 49 49 51
59 58 58 57 57 50 46 46 49 47 35 43 47 46 46 49 43 43 48 42 36 31 29 25 33 40 38 34 32 32 33 32 36 42 43 43 39 42 46 49 50 51 52 51 51
58 58 57 57 49 48 45 50 49 48 21 35 41 44 46 45 38 49 49 42 37 31 31 28 37 36 36 34 34 30 39 39 37 37 31 40 29 38 42 45 47 49 50 49 51
58 58 57 56 47 44 48 50 48 42 10 37 39 50 46 40 38 43 49 42 35 34 31 26 32 34 34 36 37 33 42 38 36 35 35 35 31 36 42 41 44 48 50 52 54
57 57 57 51 48 48 49 48 43 21 10 28 39 37 38 40 38 41 41 43 43 37 34 31 39 36 37 41 39 38 38 38 37 35 24 33 33 34 37 44 46 51 51 53 54
57 57 53 54 46 49 48 40 21 12 33 28 32 35 35 34 37 36 34 29 27 21 21 32 33 37 43 36 37 34 35 27 25 24 22 36 34 38 44 49 51 52 55 56 60
56 56 54 53 49 48 42 26 11 27 24 38 36 35 31 34 33 34 30 25 34 31 27 26 25 36 41 36 32 32 33 21 19 20 25 35 30 39 45 50 53 56 59 59 59
55 48 47 48 49 45 34 13 20 23 35 32 33 21 32 33 33 33 21 25 32 34 29 26 26 40 39 39 38 32 30 36 26 26 24 29 34 43 45 47 47 51 53 53 54
46 45 44 48 47 40 26 26 28 37 37 36 23 32 22 31 31 30 25 34 34 37 38 30 24 37 39 40 38 35 37 30 23 16 21 25 26 32 38 42 46 48 49 52 54
45 41 45 47 45 32 19 24 34 40 40 35 30 31 28 32 32 30 27 36 37 37 39 33 28 29 35 31 28 31 28 33 34 25 21 21 27 38 38 41 45 46 49 49 51
44 35 45 45 29 26 23 33 42 37 40 37 35 35 32 35 33 32 27 31 40 38 34 34 29 20 27 37 39 36 32 33 24 24 24 18 27 42 40 43 45 46 47 48 49
39 38 45 45 23 21 33 36 38 36 36 36 34 36 36 35 30 37 31 39 41 40 36 38 30 17 22 32 38 32 35 35 32 27 27 17 26 44 43 44 45 45 45 46 46
40 31 35 35 31 30 31 32 32 38 37 38 35 36 33 34 33 29 28 40 43 43 45 43 35 26 19 29 31 28 32 33 25 20 28 23 28 36 41 43 44 43 43 43 44
41 34 37 28 30 31 32 33 31 32 36 37 34 34 28 27 31 28 29 37 42 43 41 40 31 34 36 37 33 32 32 32 25 28 23 31 32 35 38 40 42 43 44 45 46
38 34 34 32 33 32 33 31 31 32 34 32 32 37 34 29 28 31 30 33 29 38 37 39 31 30 27 36 34 31 33 33 35 34 35 35 32 40 41 40 43 43 46 47 46
40 39 38 34 31 30 29 30 33 34 36 37 36 32 31 33 35 39 36 37 35 35 36 37 30 26 23 31 33 27 34 32 35 36 36 33 39 42 44 44 41 42 44 45 46

GFSSW_sfc_temp_108.txt.gz
Temp
64 64 63 63 64 64 63 63 63 63 63 63 63 63 62 62 61 52 46 53 54 65 65 56 53 52 51 47 50 49 39 35 40 40 45 58 53 60 66 63 64 61 59 65 71
63 64 63 63 63 63 63 63 63 63 62 62 61 62 62 61 51 47 57 64 66 65 57 53 47 48 43 43 45 42 36 39 47 48 46 55 54 53 56 61 62 60 64 68 69
63 63 63 63 63 63 63 63 63 62 62 62 61 61 60 56 44 45 64 66 67 65 57 53 50 47 39 42 41 40 37 45 47 50 51 52 53 56 52 52 61 57 62 66 67
63 63 63 62 62 62 62 62 62 61 61 60 61 60 60 51 32 52 66 67 67 61 55 50 46 43 41 39 42 36 43 45 48 50 49 49 55 52 52 53 63 59 65 66 66
62 63 62 62 62 62 62 62 62 61 60 60 60 60 52 41 42 58 65 62 58 56 51 47 42 40 37 38 41 39 41 45 48 50 50 52 50 49 51 55 61 60 62 63 65
62 62 61 61 61 61 61 61 61 60 60 60 60 59 46 36 54 56 56 57 55 52 49 46 43 46 40 41 39 42 43 42 46 48 51 48 48 49 52 57 58 60 61 65 66
62 62 61 61 60 61 60 61 59 60 59 60 60 55 44 42 54 55 56 53 54 52 47 49 47 43 43 40 42 42 36 40 43 47 46 49 43 44 51 52 55 55 56 61 66
62 61 61 60 60 60 60 60 59 59 59 59 60 49 39 56 53 55 54 53 55 55 52 51 49 44 42 44 39 36 37 32 41 47 46 46 37 46 50 47 50 51 52 56 60
62 61 61 60 59 59 59 59 59 59 59 59 48 43 38 58 50 54 53 50 52 52 50 55 46 39 39 35 29 33 29 31 38 48 47 43 40 47 48 47 50 49 48 53 56
61 60 60 59 59 58 58 57 57 56 55 55 52 38 45 45 51 53 53 52 47 46 44 41 37 32 33 31 14 25 29 32 35 42 46 40 41 45 45 45 47 50 48 51 54
58 60 59 58 58 58 52 47 43 40 43 40 41 41 47 52 54 50 52 48 46 41 33 33 26 21 28 34 34 33 30 30 38 45 43 41 41 45 47 43 46 49 48 50 53
58 59 58 58 58 56 50 43 43 43 35 44 45 45 49 52 44 47 51 40 38 29 31 27 23 34 38 38 34 33 31 32 39 43 44 40 39 43 44 44 46 48 48 50 53
56 58 58 58 57 51 46 46 49 46 35 41 45 44 45 47 41 42 46 41 35 32 29 25 31 38 36 34 32 33 31 33 35 42 43 40 38 40 44 47 48 50 51 51 53
56 58 58 57 50 48 45 49 47 46 21 34 39 42 46 44 37 48 48 41 37 31 30 27 35 35 35 31 34 27 37 38 40 35 31 38 29 38 42 43 46 49 49 48 50
55 57 58 57 47 45 47 48 46 42 10 36 38 49 45 38 38 42 47 41 33 33 31 24 30 33 32 35 36 33 39 38 36 33 35 34 31 34 43 40 44 46 48 51 51
55 57 57 50 48 48 49 47 42 21 9 28 38 36 38 39 37 40 40 42 42 35 34 30 39 36 35 38 37 37 38 38 37 33 25 32 33 31 37 42 44 46 48 50 52
56 57 53 53 44 49 47 39 21 12 32 28 31 35 35 35 35 34 32 30 28 22 24 32 32 36 38 34 36 33 29 23 20 20 24 34 32 36 42 47 48 49 49 50 55
56 56 54 53 50 48 41 28 13 27 23 36 35 36 26 34 30 33 29 25 31 31 24 25 25 35 41 36 31 32 29 21 19 22 27 36 29 37 43 49 52 53 53 51 55
55 49 47 47 49 45 34 15 20 23 33 32 32 20 32 33 34 28 20 24 31 34 29 26 26 39 40 40 37 33 30 36 27 25 21 26 31 41 45 45 44 49 52 53 57
48 46 44 48 48 41 28 27 27 35 37 35 21 32 25 30 31 30 24 33 33 36 36 30 18 36 40 39 38 35 37 26 26 20 22 25 27 30 37 40 43 45 50 52 53
45 40 45 48 46 36 20 24 32 39 39 34 29 29 30 33 30 22 25 34 36 36 36 31 27 29 34 32 30 33 31 32 31 26 22 21 27 38 37 39 42 43 47 48 51
43 34 45 46 33 26 23 32 41 36 38 36 34 32 34 35 29 21 27 30 39 39 32 32 28 22 31 36 39 35 33 33 23 24 22 21 27 42 40 42 44 44 46 47 47
38 39 45 44 24 22 31 34 36 35 35 35 32 35 37 36 27 31 26 38 40 38 36 36 27 13 22 30 35 32 35 35 31 28 27 22 28 43 41 43 43 43 44 46 47
38 32 37 39 32 29 30 31 31 37 36 37 34 35 35 35 32 28 26 40 42 40 46 43 35 25 20 28 31 26 32 33 24 21 26 24 29 36 39 41 42 43 43 44 46
38 34 38 31 29 29 31 32 31 31 35 36 33 33 29 26 28 27 29 38 42 43 41 38 30 34 36 37 33 32 32 32 24 27 23 30 31 34 37 38 40 42 44 45 46
37 34 34 31 32 31 33 30 31 31 33 31 31 35 31 28 28 27 30 35 27 39 38 39 29 30 28 34 34 31 33 32 33 32 33 32 33 38 40 41 41 40 43 44 44
39 41 38 33 30 30 28 30 32 34 35 36 35 32 31 32 34 34 34 34 33 36 36 36 28 25 23 30 31 25 32 33 36 35 35 34 36 41 40 42 40 40 42 42 43

GFSSW_sfc_temp_111.txt.gz
Temp
64 64 64 64 64 64 63 63 64 63 63 63 62 62 63 62 60 54 47 55 56 64 65 58 56 55 54 50 52 53 39 36 40 41 46 56 54 61 65 62 65 69 66 71 72
64 64 64 64 63 63 63 63 63 63 62 63 62 62 62 60 52 47 57 64 66 65 58 54 50 51 46 46 47 44 37 39 49 50 48 53 54 57 57 58 59 62 70 72 72
64 64 63 64 63 63 63 63 63 63 61 62 61 61 60 57 47 48 63 67 67 64 59 56 53 49 42 44 44 43 37 46 48 52 52 50 53 59 53 51 57 59 59 70 68
64 64 63 63 63 63 63 63 63 62 61 60 60 60 60 53 36 54 66 67 66 60 56 51 47 43 41 39 44 37 44 46 48 51 50 49 53 52 56 56 62 60 60 61 66
63 63 63 62 62 62 62 62 62 61 61 60 60 60 53 44 43 58 65 63 59 57 52 48 43 42 38 41 41 39 43 46 48 48 49 52 48 49 53 59 62 62 61 60 62
63 62 62 62 61 61 61 61 62 60 60 60 60 59 48 37 55 58 56 57 56 54 51 49 46 47 41 40 39 43 42 44 46 46 48 47 49 49 53 58 56 58 58 60 62
61 60 62 61 61 61 61 61 60 60 59 60 60 55 45 43 55 55 56 54 56 54 49 52 50 44 45 40 44 41 35 38 42 44 44 49 43 45 54 54 53 54 56 57 63
60 59 59 61 61 60 61 60 59 59 59 59 59 50 40 56 54 55 55 54 56 56 53 53 50 45 42 44 42 35 35 31 43 43 46 46 36 50 55 52 51 53 52 55 59
60 59 58 60 60 59 60 59 59 59 59 59 49 45 39 58 51 55 55 51 53 53 52 55 49 42 41 35 30 33 26 32 37 45 45 43 39 48 50 50 50 48 46 54 58
60 58 57 59 59 59 58 58 58 56 55 55 52 40 46 45 52 54 54 53 49 48 46 43 38 34 33 31 20 21 26 31 31 41 44 39 41 44 48 50 48 44 46 52 55
60 57 56 58 59 58 53 48 44 41 44 41 42 41 46 51 53 50 53 49 48 42 33 35 30 26 31 32 33 31 30 28 35 41 40 38 41 45 46 45 42 43 46 50 54
59 57 56 58 58 57 49 44 46 45 37 44 45 45 48 51 44 47 52 41 39 32 34 30 26 34 37 37 34 31 30 31 37 42 41 41 41 46 43 43 43 44 47 50 53
57 56 55 58 57 51 47 46 50 48 37 41 45 44 44 48 41 42 47 42 36 32 31 27 32 37 35 33 31 31 30 31 34 41 43 41 36 40 43 45 46 48 50 50 52
56 56 56 57 50 48 45 50 49 48 23 34 39 42 45 44 37 48 48 42 37 32 32 29 35 34 35 32 33 29 36 35 38 35 30 38 29 38 41 42 44 47 48 49 53
56 56 57 56 48 45 48 49 47 44 12 36 37 49 45 39 38 41 47 42 34 33 33 27 31 32 30 35 36 33 34 36 39 35 33 34 33 35 42 39 43 47 48 49 55
56 56 56 51 49 48 49 47 43 24 12 28 38 36 38 39 38 40 40 43 42 35 34 32 39 36 34 37 36 37 37 36 38 34 27 32 34 33 37 41 45 48 48 50 54
56 56 53 53 45 49 48 40 24 16 32 28 31 37 32 31 35 35 32 29 28 25 21 32 33 36 37 34 37 34 30 23 25 24 25 34 34 37 43 46 49 48 47 51 54
55 56 54 52 50 48 42 30 16 28 23 35 34 36 24 31 30 33 30 26 32 31 21 21 22 35 40 35 32 32 31 25 20 22 27 37 29 36 45 47 52 53 49 51 55
54 49 47 47 49 46 36 19 22 23 33 32 31 18 29 31 33 29 22 26 32 32 28 26 23 40 39 36 34 33 29 35 28 29 28 29 36 43 47 46 46 49 49 49 52
47 45 44 49 48 42 30 28 28 34 36 35 21 30 23 29 26 21 24 33 33 36 37 31 23 36 39 38 39 35 39 28 28 21 23 28 29 31 38 40 43 47 48 48 50
46 41 45 48 48 38 22 24 32 37 38 34 29 28 28 27 27 17 25 34 37 37 35 33 29 31 35 33 32 33 33 34 32 28 25 24 27 41 38 39 41 44 47 48 47
43 34 45 46 35 29 23 32 39 35 37 35 34 32 31 32 28 19 27 32 38 39 34 34 29 24 30 37 40 37 33 33 26 26 24 27 29 43 41 42 44 44 47 48 47
39 38 45 44 26 22 31 33 35 34 34 34 33 34 35 31 26 30 26 39 39 39 37 39 29 19 26 34 37 32 35 35 31 31 26 23 30 44 43 44 44 44 46 47 48
39 33 38 39 36 29 29 30 31 36 35 36 34 35 33 32 31 29 25 39 42 40 46 43 35 26 26 30 33 30 34 33 27 28 28 27 33 37 40 41 43 43 45 47 47
39 34 37 30 32 29 30 31 30 31 34 35 33 32 28 26 28 27 29 35 42 44 41 37 31 33 36 37 36 33 33 34 29 31 27 32 33 37 39 40 41 43 45 46 47
35 32 34 29 30 29 32 29 31 31 32 31 32 33 31 27 28 28 30 30 27 37 35 36 27 30 28 34 34 32 33 34 35 35 34 35 35 42 43 43 43 41 43 43 44
39 39 37 32 28 28 27 28 32 33 34 35 34 32 30 33 34 33 33 34 33 34 33 33 29 27 23 31 32 26 32 35 36 36 36 32 37 42 41 41 40 41 42 42 43

GFSSW_sfc_temp_114.txt.gz
Temp
64 65 64 64 64 64 64 64 64 64 64 63 63 62 62 62 60 61 54 62 64 64 66 63 62 61 61 57 59 60 44 40 45 48 53 63 61 67 72 68 70 73 74 78 81
64 65 64 64 64 64 64 64 64 63 63 63 63 62 61 60 58 55 64 64 66 66 62 54 52 55 53 54 55 51 44 46 55 57 55 60 58 61 62 64 65 66 74 76 75
63 64 64 64 64 63 63 63 63 63 62 61 61 61 60 61 52 56 64 67 67 66 64 60 57 53 49 53 52 51 44 53 55 57 58 56 56 61 56 53 65 64 69 71 70
63 63 64 63 63 63 63 63 63 63 61 61 61 60 60 58 44 61 66 67 66 66 62 58 55 49 47 45 53 44 52 53 53 56 54 52 58 56 59 61 68 69 73 71 69
63 62 61 61 62 62 62 62 63 62 61 60 60 60 57 50 53 64 65 65 66 62 57 54 51 50 45 48 49 46 49 52 54 53 53 55 52 54 57 64 66 68 66 68 69
64 62 59 59 60 62 61 62 62 61 60 60 60 59 54 44 62 65 64 63 63 60 57 55 52 53 48 47 46 51 49 49 51 50 51 49 51 54 57 63 62 62 63 65 68
63 60 59 59 60 61 61 61 61 60 60 60 60 59 50 51 64 64 62 62 62 61 55 57 56 50 50 45 52 49 41 46 48 49 47 51 45 48 58 62 59 59 63 66 68
62 60 59 58 58 60 61 61 60 59 59 60 60 56 48 61 65 61 63 61 63 62 59 59 57 52 48 51 47 42 41 34 49 51 51 48 38 52 59 59 56 58 62 63 68
62 62 59 58 58 59 59 59 59 59 59 60 55 52 47 62 56 62 63 57 59 59 58 58 54 48 47 38 34 36 30 37 43 53 50 46 42 53 59 58 56 59 61 58 65
61 61 59 57 57 58 58 58 59 59 58 59 56 46 53 50 57 59 62 59 54 53 50 49 47 42 41 33 26 31 30 36 38 46 47 44 45 52 54 54 53 57 58 56 59
60 59 57 57 58 58 56 54 48 45 49 47 48 47 50 57 59 55 59 55 54 49 39 42 36 33 40 42 38 35 32 32 40 46 43 39 46 50 51 51 53 54 55 54 57
59 59 57 57 58 57 56 50 50 51 43 49 49 49 53 55 47 51 58 48 45 39 41 37 33 43 43 41 38 36 32 33 40 47 45 43 43 51 52 51 53 53 53 54 57
59 57 56 57 57 55 52 51 54 55 44 45 49 48 49 52 46 47 52 48 43 39 39 33 40 43 40 37 34 35 32 33 34 40 45 44 39 45 46 49 51 54 57 53 55
56 56 56 57 54 52 49 54 54 53 35 39 43 46 49 49 43 53 53 48 42 36 39 37 42 38 38 35 35 30 37 35 35 31 30 45 29 37 41 42 47 52 53 53 57
58 56 56 57 53 50 51 53 52 52 25 40 42 53 49 44 44 46 53 47 39 39 37 35 37 37 33 35 35 33 36 34 36 33 33 35 35 33 40 40 45 52 54 57 57
57 56 57 55 52 52 53 52 52 34 25 33 42 40 41 43 42 46 46 49 47 39 40 38 45 40 38 40 37 38 36 36 35 33 29 35 38 33 38 44 49 53 53 54 55
57 55 55 57 49 53 53 48 33 29 37 33 35 39 36 36 39 40 39 37 34 28 30 36 36 39 38 33 40 36 34 30 27 28 27 36 37 36 46 48 49 51 52 51 51
56 55 54 53 54 53 49 39 28 34 31 40 38 39 32 37 37 39 37 36 37 32 30 29 29 37 39 35 32 32 34 29 23 25 29 39 30 34 49 52 54 54 50 50 50
54 49 48 48 53 52 44 32 34 33 39 36 35 30 33 36 36 36 32 36 39 39 29 31 31 39 37 36 36 34 33 36 33 35 33 31 38 48 50 50 52 50 48 48 50
47 46 45 50 53 49 40 34 35 40 40 41 32 37 30 33 33 32 33 41 38 41 42 37 29 40 41 39 42 38 38 33 36 28 25 29 32 31 41 43 47 46 45 47 50
46 41 45 49 52 42 33 35 37 42 44 40 38 36 37 35 35 30 32 41 41 41 43 39 36 37 42 36 33 36 35 38 38 35 32 29 30 42 42 44 46 47 46 46 48
43 35 45 47 37 37 35 37 42 41 44 42 42 40 38 39 36 31 32 37 44 42 38 41 37 32 33 43 43 42 38 38 34 32 33 36 30 49 49 48 49 48 47 47 48
38 38 45 44 32 33 38 38 41 40 41 40 39 41 42 38 33 37 31 45 45 42 41 44 37 31 33 38 43 39 42 40 38 39 30 33 32 51 52 50 52 51 51 47 48
41 33 38 41 42 39 37 37 37 42 41 42 40 42 41 38 40 37 33 43 45 44 46 46 39 32 30 33 38 34 40 41 35 35 36 36 39 45 46 48 48 51 52 52 50
42 37 41 32 34 39 39 40 36 36 41 42 39 39 36 34 36 36 36 41 45 45 46 45 33 38 40 40 40 39 40 41 34 38 35 39 39 43 46 48 50 52 52 50 49
38 36 39 38 41 38 38 37 38 37 40 38 38 40 39 36 37 35 39 38 36 45 43 44 36 38 35 41 43 39 41 44 42 43 43 44 40 49 51 54 52 51 51 49 49
43 45 47 37 38 37 39 39 39 41 40 42 42 41 38 40 43 44 44 43 43 41 42 41 40 37 31 38 39 35 37 40 42 43 44 40 43 50 48 47 47 49 50 49 49

GFSSW_sfc_temp_117.txt.gz
Temp
65 65 65 64 64 64 64 64 64 64 64 63 63 63 62 62 61 63 58 65 67 66 66 67 66 65 65 61 63 63 48 43 47 50 55 65 63 70 74 70 73 77 76 81 82
64 64 64 64 64 64 64 63 64 63 63 62 63 62 62 61 62 59 66 65 66 66 64 61 58 59 57 57 56 53 47 48 57 59 57 61 62 64 65 66 67 70 74 79 78
65 64 63 63 63 63 63 63 63 63 62 62 61 61 61 62 56 60 65 66 66 66 66 64 61 56 52 56 53 52 45 55 57 60 61 58 59 64 61 58 63 67 71 72 74
65 64 63 62 62 63 63 63 63 63 62 61 61 60 60 61 45 63 66 67 66 68 64 61 59 53 50 49 57 48 55 56 56 59 57 54 59 57 60 61 68 69 72 74 72
64 63 63 61 61 61 62 62 62 62 62 61 61 60 59 52 55 68 65 66 68 65 60 57 54 53 48 53 54 50 53 56 57 56 56 57 53 54 57 64 69 69 68 67 68
63 63 62 60 59 59 60 62 62 61 61 60 60 59 56 46 66 68 67 65 65 63 60 59 55 57 51 50 49 53 53 53 56 54 55 52 52 54 57 63 64 66 66 67 68
63 62 60 59 59 59 61 61 61 60 60 60 61 61 53 54 67 68 65 64 65 64 58 61 59 53 54 48 55 52 45 50 52 53 51 54 46 48 58 62 61 63 65 67 68
62 62 61 58 59 59 60 60 60 59 59 60 60 58 49 64 69 63 66 63 66 65 62 63 61 54 51 53 50 44 44 36 50 53 55 51 36 52 60 58 58 61 64 65 67
61 61 60 59 58 59 60 60 59 59 59 60 57 53 48 63 58 65 66 60 62 62 61 62 57 50 51 41 36 41 31 38 43 54 53 50 40 52 59 59 57 60 63 64 65
61 60 60 59 58 58 59 59 59 59 60 61 58 46 54 52 59 62 65 62 57 57 53 51 49 43 43 36 27 32 32 37 38 47 48 42 42 51 58 59 58 60 63 62 63
60 59 59 59 57 58 58 56 50 47 52 47 49 49 53 59 62 58 62 58 57 52 41 46 38 33 39 44 42 40 36 34 42 48 45 44 43 46 55 56 56 59 60 62 63
59 58 59 57 57 58 58 54 55 55 41 51 51 52 56 58 50 54 60 50 49 39 45 39 32 45 48 46 41 39 35 35 42 47 44 44 44 51 54 53 54 56 58 59 62
58 58 57 56 55 54 53 56 58 58 45 44 52 52 52 54 49 51 55 52 46 42 42 36 42 48 44 40 36 36 33 34 35 41 43 40 41 46 53 55 57 57 59 61 61
58 55 56 55 51 55 53 58 58 56 35 40 45 49 52 52 46 56 56 51 45 40 42 41 47 43 40 37 38 29 41 35 33 31 28 45 31 42 49 50 52 55 57 59 61
58 57 55 57 56 52 55 58 57 52 28 44 44 56 52 47 47 49 57 49 40 42 41 38 40 40 37 39 37 32 38 35 35 32 31 36 29 38 50 43 46 51 55 59 61
57 57 55 53 57 55 58 56 53 34 28 36 45 42 42 46 46 49 48 51 50 41 43 40 49 44 41 44 40 39 35 35 33 32 28 37 31 31 35 40 47 50 54 55 56
56 55 54 59 52 56 55 50 33 30 41 34 37 42 40 39 42 44 43 41 35 29 32 39 39 44 40 34 43 37 33 29 26 26 29 35 32 33 39 43 47 47 48 51 55
55 56 52 55 58 55 53 39 29 38 34 44 42 43 32 41 40 43 41 38 42 36 30 30 29 38 39 35 32 32 34 29 23 26 30 43 31 32 44 51 50 50 48 51 52
53 50 48 49 55 56 47 32 38 36 43 39 40 31 36 40 40 41 37 40 43 41 30 31 32 43 41 38 36 36 34 39 30 32 32 32 34 40 47 48 45 45 47 48 50
48 47 46 52 56 53 41 37 39 45 45 44 33 41 34 35 35 35 38 45 42 44 45 37 29 43 44 42 42 38 41 33 35 26 25 30 31 29 37 40 43 43 45 47 48
46 41 45 51 56 46 33 39 41 47 48 43 42 40 42 37 39 34 38 44 45 43 46 40 36 36 41 35 33 36 36 38 39 36 28 28 28 38 41 43 43 44 45 46 47
44 34 46 48 38 41 38 42 44 45 47 45 45 43 42 43 39 34 34 41 47 44 39 44 39 32 36 46 46 42 40 40 33 34 37 36 29 48 49 46 46 45 46 46 47
38 38 45 47 34 36 42 41 45 43 45 43 42 45 46 42 36 41 35 49 49 45 41 45 38 30 35 43 47 40 45 44 43 42 35 31 31 51 51 49 48 45 46 46 47
40 33 38 41 46 44 40 40 39 45 45 46 44 46 44 42 44 40 34 46 48 47 46 46 40 34 31 35 39 35 43 44 37 35 35 34 36 45 48 48 50 50 50 50 48
43 40 43 33 39 44 45 44 40 38 45 46 43 43 40 38 41 40 38 44 48 49 49 47 35 40 43 43 44 42 43 45 38 43 35 39 39 44 48 50 50 52 53 51 50
44 42 45 42 44 43 42 41 41 41 43 41 40 44 43 39 39 38 42 41 40 49 47 49 39 41 38 45 45 39 43 44 45 45 44 44 41 51 52 53 51 51 50 49 50
52 51 51 42 42 42 44 44 43 45 43 46 47 44 41 44 47 50 50 49 47 45 45 45 43 40 34 42 42 37 38 42 44 46 46 39 45 53 49 48 48 51 52 50 51